<?xml version="1.0" encoding="UTF-8"?>
<gpx version="1.1" creator="https://www.youtrack.es" xsi:schemaLocation="http://www.topografix.com/GPX/1/1 http://www.topografix.com/GPX/1/1/gpx.xsd http://www.garmin.com/xmlschemas/GpxExtensions/v3 http://www.garmin.com/xmlschemas/GpxExtensionsv3.xsd http://www.garmin.com/xmlschemas/TrackPointExtension/v1 http://www.garmin.com/xmlschemas/TrackPointExtensionv1.xsd" xmlns:gpxtpx="http://www.garmin.com/xmlschemas/TrackPointExtension/v1" xmlns:gpxx="http://www.garmin.com/xmlschemas/GpxExtensions/v3" xmlns:xsi="http://www.w3.org/2001/XMLSchema-instance">
  <metadata>
    <author>
      <name>Xos Popas</name>
      <email id="j_popas" domain="yahoo.es"/>
    </author>
    <link href="https://www.youtrack.es">
      <text>YouTrack.es</text>
    </link>
    <time>2026-05-08T23:06:22Z</time>
  </metadata>
  <trk>
    <src>https://www.youtrack.es</src>
    <link href="https://www.youtrack.es/ruta/29790-refugio-del-meicin-torrebarrio">
      <text>YouTrack.es</text>
    </link>
    <trkseg>
      <trkpt lat="43.00653741694986820220947265625" lon="-5.99441100843250751495361328125">
        <ele>1242.5999755859375</ele>
        <time>2022-02-23T11:28:37.000Z</time>
      </trkpt>
      <trkpt lat="43.00653398036956787109375" lon="-5.99440664984285831451416015625">
        <ele>1242.5999755859375</ele>
        <time>2022-02-23T11:28:38.000Z</time>
      </trkpt>
      <trkpt lat="43.00645552575588226318359375" lon="-5.994334481656551361083984375">
        <ele>1242.5999755859375</ele>
        <time>2022-02-23T11:28:48.000Z</time>
      </trkpt>
      <trkpt lat="43.00645024515688419342041015625" lon="-5.99432668648660182952880859375">
        <ele>1242.5999755859375</ele>
        <time>2022-02-23T11:28:49.000Z</time>
      </trkpt>
      <trkpt lat="43.00642308779060840606689453125" lon="-5.9943307936191558837890625">
        <ele>1242.5999755859375</ele>
        <time>2022-02-23T11:28:55.000Z</time>
      </trkpt>
      <trkpt lat="43.0064134486019611358642578125" lon="-5.99426382221281528472900390625">
        <ele>1242.800048828125</ele>
        <time>2022-02-23T11:29:02.000Z</time>
      </trkpt>
      <trkpt lat="43.00641705282032489776611328125" lon="-5.994176231324672698974609375">
        <ele>1243</ele>
        <time>2022-02-23T11:29:12.000Z</time>
      </trkpt>
      <trkpt lat="43.00641537643969058990478515625" lon="-5.9941147081553936004638671875">
        <ele>1243.199951171875</ele>
        <time>2022-02-23T11:29:21.000Z</time>
      </trkpt>
      <trkpt lat="43.00641336478292942047119140625" lon="-5.99410506896674633026123046875">
        <ele>1243.199951171875</ele>
        <time>2022-02-23T11:29:22.000Z</time>
      </trkpt>
      <trkpt lat="43.0064023844897747039794921875" lon="-5.9940416179597377777099609375">
        <ele>1243.4000244140625</ele>
        <time>2022-02-23T11:29:26.000Z</time>
      </trkpt>
      <trkpt lat="43.006266094744205474853515625" lon="-5.99386350251734256744384765625">
        <ele>1243.5999755859375</ele>
        <time>2022-02-23T11:29:39.000Z</time>
      </trkpt>
      <trkpt lat="43.00620415247976779937744140625" lon="-5.9938109479844570159912109375">
        <ele>1243.5999755859375</ele>
        <time>2022-02-23T11:29:44.000Z</time>
      </trkpt>
      <trkpt lat="43.00619476474821567535400390625" lon="-5.99379544146358966827392578125">
        <ele>1243.5999755859375</ele>
        <time>2022-02-23T11:29:45.000Z</time>
      </trkpt>
      <trkpt lat="43.00618571229279041290283203125" lon="-5.9937821142375469207763671875">
        <ele>1243.5999755859375</ele>
        <time>2022-02-23T11:29:46.000Z</time>
      </trkpt>
      <trkpt lat="43.0061720497906208038330078125" lon="-5.9937727265059947967529296875">
        <ele>1243.5999755859375</ele>
        <time>2022-02-23T11:29:47.000Z</time>
      </trkpt>
      <trkpt lat="43.00616291351616382598876953125" lon="-5.9937579743564128875732421875">
        <ele>1243.5999755859375</ele>
        <time>2022-02-23T11:29:48.000Z</time>
      </trkpt>
      <trkpt lat="43.006157465279102325439453125" lon="-5.9937469102442264556884765625">
        <ele>1243.5999755859375</ele>
        <time>2022-02-23T11:29:49.000Z</time>
      </trkpt>
      <trkpt lat="43.00614397041499614715576171875" lon="-5.993737019598484039306640625">
        <ele>1243.5999755859375</ele>
        <time>2022-02-23T11:29:50.000Z</time>
      </trkpt>
      <trkpt lat="43.0061100237071514129638671875" lon="-5.99369485862553119659423828125">
        <ele>1243.800048828125</ele>
        <time>2022-02-23T11:29:54.000Z</time>
      </trkpt>
      <trkpt lat="43.00605730153620243072509765625" lon="-5.9936630912125110626220703125">
        <ele>1244</ele>
        <time>2022-02-23T11:29:58.000Z</time>
      </trkpt>
      <trkpt lat="43.00603550858795642852783203125" lon="-5.993645153939723968505859375">
        <ele>1244</ele>
        <time>2022-02-23T11:30:00.000Z</time>
      </trkpt>
      <trkpt lat="43.0059725604951381683349609375" lon="-5.993591845035552978515625">
        <ele>1244.199951171875</ele>
        <time>2022-02-23T11:30:05.000Z</time>
      </trkpt>
      <trkpt lat="43.0059135518968105316162109375" lon="-5.9934978000819683074951171875">
        <ele>1244.199951171875</ele>
        <time>2022-02-23T11:30:13.000Z</time>
      </trkpt>
      <trkpt lat="43.00600818358361721038818359375" lon="-5.99328582175076007843017578125">
        <ele>1246.4000244140625</ele>
        <time>2022-02-23T11:30:29.000Z</time>
      </trkpt>
      <trkpt lat="43.0060820281505584716796875" lon="-5.993286073207855224609375">
        <ele>1246.4000244140625</ele>
        <time>2022-02-23T11:30:36.000Z</time>
      </trkpt>
      <trkpt lat="43.00618504174053668975830078125" lon="-5.9932952933013439178466796875">
        <ele>1246.4000244140625</ele>
        <time>2022-02-23T11:30:44.000Z</time>
      </trkpt>
      <trkpt lat="43.00620582886040210723876953125" lon="-5.99328330717980861663818359375">
        <ele>1246.5999755859375</ele>
        <time>2022-02-23T11:30:46.000Z</time>
      </trkpt>
      <trkpt lat="43.00621622242033481597900390625" lon="-5.99327693693339824676513671875">
        <ele>1246.5999755859375</ele>
        <time>2022-02-23T11:30:47.000Z</time>
      </trkpt>
      <trkpt lat="43.006226532161235809326171875" lon="-5.99326771683990955352783203125">
        <ele>1246.5999755859375</ele>
        <time>2022-02-23T11:30:48.000Z</time>
      </trkpt>
      <trkpt lat="43.0063232593238353729248046875" lon="-5.9931182675063610076904296875">
        <ele>1247</ele>
        <time>2022-02-23T11:31:00.000Z</time>
      </trkpt>
      <trkpt lat="43.00642979331314563751220703125" lon="-5.99293805658817291259765625">
        <ele>1247.5999755859375</ele>
        <time>2022-02-23T11:31:31.000Z</time>
      </trkpt>
      <trkpt lat="43.006549738347530364990234375" lon="-5.992754995822906494140625">
        <ele>1248.199951171875</ele>
        <time>2022-02-23T11:31:55.000Z</time>
      </trkpt>
      <trkpt lat="43.00658695399761199951171875" lon="-5.99269690923392772674560546875">
        <ele>1248.5999755859375</ele>
        <time>2022-02-23T11:32:00.000Z</time>
      </trkpt>
      <trkpt lat="43.00665124319493770599365234375" lon="-5.99260940216481685638427734375">
        <ele>1249.199951171875</ele>
        <time>2022-02-23T11:32:08.000Z</time>
      </trkpt>
      <trkpt lat="43.00677680410444736480712890625" lon="-5.9924678318202495574951171875">
        <ele>1250.800048828125</ele>
        <time>2022-02-23T11:32:21.000Z</time>
      </trkpt>
      <trkpt lat="43.006912171840667724609375" lon="-5.9922995232045650482177734375">
        <ele>1251.5999755859375</ele>
        <time>2022-02-23T11:32:36.000Z</time>
      </trkpt>
      <trkpt lat="43.006950058043003082275390625" lon="-5.9922371618449687957763671875">
        <ele>1251.800048828125</ele>
        <time>2022-02-23T11:32:41.000Z</time>
      </trkpt>
      <trkpt lat="43.006994314491748809814453125" lon="-5.99204245023429393768310546875">
        <ele>1254</ele>
        <time>2022-02-23T11:32:56.000Z</time>
      </trkpt>
      <trkpt lat="43.00705097615718841552734375" lon="-5.99191881716251373291015625">
        <ele>1255.4000244140625</ele>
        <time>2022-02-23T11:33:06.000Z</time>
      </trkpt>
      <trkpt lat="43.00708274357020854949951171875" lon="-5.99186911247670650482177734375">
        <ele>1255.800048828125</ele>
        <time>2022-02-23T11:33:11.000Z</time>
      </trkpt>
      <trkpt lat="43.007132112979888916015625" lon="-5.99179669283330440521240234375">
        <ele>1256.5999755859375</ele>
        <time>2022-02-23T11:33:19.000Z</time>
      </trkpt>
      <trkpt lat="43.00726630724966526031494140625" lon="-5.99162578582763671875">
        <ele>1257</ele>
        <time>2022-02-23T11:33:37.000Z</time>
      </trkpt>
      <trkpt lat="43.0073668062686920166015625" lon="-5.9914998896420001983642578125">
        <ele>1257.5999755859375</ele>
        <time>2022-02-23T11:33:51.000Z</time>
      </trkpt>
      <trkpt lat="43.00742489285767078399658203125" lon="-5.9914050064980983734130859375">
        <ele>1259.5999755859375</ele>
        <time>2022-02-23T11:34:00.000Z</time>
      </trkpt>
      <trkpt lat="43.007524721324443817138671875" lon="-5.99119470454752445220947265625">
        <ele>1264</ele>
        <time>2022-02-23T11:34:19.000Z</time>
      </trkpt>
      <trkpt lat="43.00767299719154834747314453125" lon="-5.9910341911017894744873046875">
        <ele>1266.4000244140625</ele>
        <time>2022-02-23T11:34:39.000Z</time>
      </trkpt>
      <trkpt lat="43.0078075267374515533447265625" lon="-5.9908702410757541656494140625">
        <ele>1270.199951171875</ele>
        <time>2022-02-23T11:34:59.000Z</time>
      </trkpt>
      <trkpt lat="43.00785304047167301177978515625" lon="-5.990777872502803802490234375">
        <ele>1272.800048828125</ele>
        <time>2022-02-23T11:35:08.000Z</time>
      </trkpt>
      <trkpt lat="43.0079292319715023040771484375" lon="-5.9905430115759372711181640625">
        <ele>1278.4000244140625</ele>
        <time>2022-02-23T11:35:28.000Z</time>
      </trkpt>
      <trkpt lat="43.00802470184862613677978515625" lon="-5.99032818339765071868896484375">
        <ele>1281.199951171875</ele>
        <time>2022-02-23T11:35:45.000Z</time>
      </trkpt>
      <trkpt lat="43.00812779925763607025146484375" lon="-5.99011645652353763580322265625">
        <ele>1283.4000244140625</ele>
        <time>2022-02-23T11:36:02.000Z</time>
      </trkpt>
      <trkpt lat="43.00816677510738372802734375" lon="-5.99003314040601253509521484375">
        <ele>1285</ele>
        <time>2022-02-23T11:36:09.000Z</time>
      </trkpt>
      <trkpt lat="43.00823341123759746551513671875" lon="-5.989910848438739776611328125">
        <ele>1287.5999755859375</ele>
        <time>2022-02-23T11:36:19.000Z</time>
      </trkpt>
      <trkpt lat="43.00827783532440662384033203125" lon="-5.98983800970017910003662109375">
        <ele>1289</ele>
        <time>2022-02-23T11:36:26.000Z</time>
      </trkpt>
      <trkpt lat="43.00835545174777507781982421875" lon="-5.98970524035394191741943359375">
        <ele>1290.4000244140625</ele>
        <time>2022-02-23T11:36:38.000Z</time>
      </trkpt>
      <trkpt lat="43.00847564823925495147705078125" lon="-5.98951128311455249786376953125">
        <ele>1292.800048828125</ele>
        <time>2022-02-23T11:36:56.000Z</time>
      </trkpt>
      <trkpt lat="43.00860908813774585723876953125" lon="-5.989343225955963134765625">
        <ele>1294.5999755859375</ele>
        <time>2022-02-23T11:37:14.000Z</time>
      </trkpt>
      <trkpt lat="43.0087627284228801727294921875" lon="-5.9892139770090579986572265625">
        <ele>1295.5999755859375</ele>
        <time>2022-02-23T11:37:32.000Z</time>
      </trkpt>
      <trkpt lat="43.0088690109550952911376953125" lon="-5.98914214409887790679931640625">
        <ele>1297.5999755859375</ele>
        <time>2022-02-23T11:37:44.000Z</time>
      </trkpt>
      <trkpt lat="43.0088948272168636322021484375" lon="-5.9891257993876934051513671875">
        <ele>1298</ele>
        <time>2022-02-23T11:37:47.000Z</time>
      </trkpt>
      <trkpt lat="43.00891511142253875732421875" lon="-5.98911046050488948822021484375">
        <ele>1298.5999755859375</ele>
        <time>2022-02-23T11:37:49.000Z</time>
      </trkpt>
      <trkpt lat="43.00905601121485233306884765625" lon="-5.98895363509654998779296875">
        <ele>1303.4000244140625</ele>
        <time>2022-02-23T11:38:09.000Z</time>
      </trkpt>
      <trkpt lat="43.0091301910579204559326171875" lon="-5.9888832271099090576171875">
        <ele>1306</ele>
        <time>2022-02-23T11:38:18.000Z</time>
      </trkpt>
      <trkpt lat="43.0092884413897991180419921875" lon="-5.98874383606016635894775390625">
        <ele>1311</ele>
        <time>2022-02-23T11:38:38.000Z</time>
      </trkpt>
      <trkpt lat="43.0094580911099910736083984375" lon="-5.98864057101309299468994140625">
        <ele>1317.5999755859375</ele>
        <time>2022-02-23T11:38:58.000Z</time>
      </trkpt>
      <trkpt lat="43.0095241405069828033447265625" lon="-5.98860553465783596038818359375">
        <ele>1320</ele>
        <time>2022-02-23T11:39:07.000Z</time>
      </trkpt>
      <trkpt lat="43.00968683324754238128662109375" lon="-5.988497994840145111083984375">
        <ele>1325</ele>
        <time>2022-02-23T11:39:31.000Z</time>
      </trkpt>
      <trkpt lat="43.00975841470062732696533203125" lon="-5.9884639643132686614990234375">
        <ele>1326.199951171875</ele>
        <time>2022-02-23T11:39:40.000Z</time>
      </trkpt>
      <trkpt lat="43.00993032753467559814453125" lon="-5.98837788216769695281982421875">
        <ele>1329.199951171875</ele>
        <time>2022-02-23T11:40:04.000Z</time>
      </trkpt>
      <trkpt lat="43.0101091973483562469482421875" lon="-5.98833664320409297943115234375">
        <ele>1330.5999755859375</ele>
        <time>2022-02-23T11:40:24.000Z</time>
      </trkpt>
      <trkpt lat="43.01028932444751262664794921875" lon="-5.98829875700175762176513671875">
        <ele>1330.4000244140625</ele>
        <time>2022-02-23T11:40:45.000Z</time>
      </trkpt>
      <trkpt lat="43.0104521848261356353759765625" lon="-5.98819297738373279571533203125">
        <ele>1331.4000244140625</ele>
        <time>2022-02-23T11:41:08.000Z</time>
      </trkpt>
      <trkpt lat="43.01047146320343017578125" lon="-5.98816640675067901611328125">
        <ele>1332.199951171875</ele>
        <time>2022-02-23T11:41:11.000Z</time>
      </trkpt>
      <trkpt lat="43.01058403216302394866943359375" lon="-5.98797823302447795867919921875">
        <ele>1337</ele>
        <time>2022-02-23T11:41:31.000Z</time>
      </trkpt>
      <trkpt lat="43.01070322282612323760986328125" lon="-5.9877786599099636077880859375">
        <ele>1341.800048828125</ele>
        <time>2022-02-23T11:41:55.000Z</time>
      </trkpt>
      <trkpt lat="43.01082626916468143463134765625" lon="-5.9875986166298389434814453125">
        <ele>1345.800048828125</ele>
        <time>2022-02-23T11:42:15.000Z</time>
      </trkpt>
      <trkpt lat="43.01096172071993350982666015625" lon="-5.98743441514670848846435546875">
        <ele>1349.5999755859375</ele>
        <time>2022-02-23T11:42:39.000Z</time>
      </trkpt>
      <trkpt lat="43.01110387779772281646728515625" lon="-5.9872841276228427886962890625">
        <ele>1352.800048828125</ele>
        <time>2022-02-23T11:43:00.000Z</time>
      </trkpt>
      <trkpt lat="43.0112477950751781463623046875" lon="-5.98713777959346771240234375">
        <ele>1355.4000244140625</ele>
        <time>2022-02-23T11:43:21.000Z</time>
      </trkpt>
      <trkpt lat="43.01138098351657390594482421875" lon="-5.986961089074611663818359375">
        <ele>1358.5999755859375</ele>
        <time>2022-02-23T11:43:42.000Z</time>
      </trkpt>
      <trkpt lat="43.01148592494428157806396484375" lon="-5.98675296641886234283447265625">
        <ele>1362.800048828125</ele>
        <time>2022-02-23T11:44:04.000Z</time>
      </trkpt>
      <trkpt lat="43.011570833623409271240234375" lon="-5.9865260683000087738037109375">
        <ele>1367.199951171875</ele>
        <time>2022-02-23T11:44:27.000Z</time>
      </trkpt>
      <trkpt lat="43.0116140842437744140625" lon="-5.9864553250372409820556640625">
        <ele>1368.4000244140625</ele>
        <time>2022-02-23T11:44:37.000Z</time>
      </trkpt>
      <trkpt lat="43.01173604093492031097412109375" lon="-5.9862816520035266876220703125">
        <ele>1371.199951171875</ele>
        <time>2022-02-23T11:45:01.000Z</time>
      </trkpt>
      <trkpt lat="43.01185271702706813812255859375" lon="-5.98609171807765960693359375">
        <ele>1376.4000244140625</ele>
        <time>2022-02-23T11:45:25.000Z</time>
      </trkpt>
      <trkpt lat="43.01195095293223857879638671875" lon="-5.985885523259639739990234375">
        <ele>1383.4000244140625</ele>
        <time>2022-02-23T11:45:50.000Z</time>
      </trkpt>
      <trkpt lat="43.01212169229984283447265625" lon="-5.98577798344194889068603515625">
        <ele>1386.800048828125</ele>
        <time>2022-02-23T11:46:14.000Z</time>
      </trkpt>
      <trkpt lat="43.0121969617903232574462890625" lon="-5.98572266288101673126220703125">
        <ele>1388.4000244140625</ele>
        <time>2022-02-23T11:46:25.000Z</time>
      </trkpt>
      <trkpt lat="43.0123290605843067169189453125" lon="-5.98554546944797039031982421875">
        <ele>1393.800048828125</ele>
        <time>2022-02-23T11:46:55.000Z</time>
      </trkpt>
      <trkpt lat="43.01246778108179569244384765625" lon="-5.985392667353153228759765625">
        <ele>1397.5999755859375</ele>
        <time>2022-02-23T11:47:17.000Z</time>
      </trkpt>
      <trkpt lat="43.01264564506709575653076171875" lon="-5.9853868000209331512451171875">
        <ele>1396.5999755859375</ele>
        <time>2022-02-23T11:47:37.000Z</time>
      </trkpt>
      <trkpt lat="43.0128266103565692901611328125" lon="-5.9854018874466419219970703125">
        <ele>1395.4000244140625</ele>
        <time>2022-02-23T11:47:56.000Z</time>
      </trkpt>
      <trkpt lat="43.01299014128744602203369140625" lon="-5.985288731753826141357421875">
        <ele>1395.5999755859375</ele>
        <time>2022-02-23T11:48:15.000Z</time>
      </trkpt>
      <trkpt lat="43.0130978487432003021240234375" lon="-5.985078848898410797119140625">
        <ele>1396.5999755859375</ele>
        <time>2022-02-23T11:48:36.000Z</time>
      </trkpt>
      <trkpt lat="43.01310069859027862548828125" lon="-5.98506468348205089569091796875">
        <ele>1396.800048828125</ele>
        <time>2022-02-23T11:48:37.000Z</time>
      </trkpt>
      <trkpt lat="43.013079576194286346435546875" lon="-5.98483233712613582611083984375">
        <ele>1399.5999755859375</ele>
        <time>2022-02-23T11:48:58.000Z</time>
      </trkpt>
      <trkpt lat="43.01303724758327007293701171875" lon="-5.98458565771579742431640625">
        <ele>1404.800048828125</ele>
        <time>2022-02-23T11:49:18.000Z</time>
      </trkpt>
      <trkpt lat="43.01296432502567768096923828125" lon="-5.984350629150867462158203125">
        <ele>1408.800048828125</ele>
        <time>2022-02-23T11:49:36.000Z</time>
      </trkpt>
      <trkpt lat="43.01290699280798435211181640625" lon="-5.98411115817725658416748046875">
        <ele>1410.199951171875</ele>
        <time>2022-02-23T11:49:54.000Z</time>
      </trkpt>
      <trkpt lat="43.01289291121065616607666015625" lon="-5.98386355675756931304931640625">
        <ele>1411.4000244140625</ele>
        <time>2022-02-23T11:50:11.000Z</time>
      </trkpt>
      <trkpt lat="43.01287061534821987152099609375" lon="-5.983612351119518280029296875">
        <ele>1415.800048828125</ele>
        <time>2022-02-23T11:50:28.000Z</time>
      </trkpt>
      <trkpt lat="43.012904562056064605712890625" lon="-5.98337086848914623260498046875">
        <ele>1421.4000244140625</ele>
        <time>2022-02-23T11:50:47.000Z</time>
      </trkpt>
      <trkpt lat="43.012950830161571502685546875" lon="-5.98319736309349536895751953125">
        <ele>1425.800048828125</ele>
        <time>2022-02-23T11:50:59.000Z</time>
      </trkpt>
      <trkpt lat="43.0129962600767612457275390625" lon="-5.98303358070552349090576171875">
        <ele>1428.800048828125</ele>
        <time>2022-02-23T11:51:13.000Z</time>
      </trkpt>
      <trkpt lat="43.012984357774257659912109375" lon="-5.982978679239749908447265625">
        <ele>1430</ele>
        <time>2022-02-23T11:51:19.000Z</time>
      </trkpt>
      <trkpt lat="43.01296449266374111175537109375" lon="-5.98284515552222728729248046875">
        <ele>1433</ele>
        <time>2022-02-23T11:51:33.000Z</time>
      </trkpt>
      <trkpt lat="43.01288570277392864227294921875" lon="-5.98261750303208827972412109375">
        <ele>1437</ele>
        <time>2022-02-23T11:51:55.000Z</time>
      </trkpt>
      <trkpt lat="43.01281412132084369659423828125" lon="-5.9826026670634746551513671875">
        <ele>1436.4000244140625</ele>
        <time>2022-02-23T11:52:02.000Z</time>
      </trkpt>
      <trkpt lat="43.0126589722931385040283203125" lon="-5.98246872425079345703125">
        <ele>1437.5999755859375</ele>
        <time>2022-02-23T11:52:23.000Z</time>
      </trkpt>
      <trkpt lat="43.01270364783704280853271484375" lon="-5.9822670556604862213134765625">
        <ele>1442.199951171875</ele>
        <time>2022-02-23T11:52:42.000Z</time>
      </trkpt>
      <trkpt lat="43.0127676017582416534423828125" lon="-5.98217301070690155029296875">
        <ele>1444.5999755859375</ele>
        <time>2022-02-23T11:52:53.000Z</time>
      </trkpt>
      <trkpt lat="43.01295024342834949493408203125" lon="-5.9821711666882038116455078125">
        <ele>1445.800048828125</ele>
        <time>2022-02-23T11:53:12.000Z</time>
      </trkpt>
      <trkpt lat="43.01303372718393802642822265625" lon="-5.98199808038771152496337890625">
        <ele>1449.5999755859375</ele>
        <time>2022-02-23T11:53:38.000Z</time>
      </trkpt>
      <trkpt lat="43.01302685402333736419677734375" lon="-5.98175131715834140777587890625">
        <ele>1454.4000244140625</ele>
        <time>2022-02-23T11:54:03.000Z</time>
      </trkpt>
      <trkpt lat="43.01303775049746036529541015625" lon="-5.98150589503347873687744140625">
        <ele>1458.5999755859375</ele>
        <time>2022-02-23T11:54:26.000Z</time>
      </trkpt>
      <trkpt lat="43.01304160617291927337646484375" lon="-5.9814925678074359893798828125">
        <ele>1458.800048828125</ele>
        <time>2022-02-23T11:54:27.000Z</time>
      </trkpt>
      <trkpt lat="43.01302970387041568756103515625" lon="-5.9814080782234668731689453125">
        <ele>1460.199951171875</ele>
        <time>2022-02-23T11:54:35.000Z</time>
      </trkpt>
      <trkpt lat="43.01300455816090106964111328125" lon="-5.98116491921246051788330078125">
        <ele>1463.4000244140625</ele>
        <time>2022-02-23T11:54:53.000Z</time>
      </trkpt>
      <trkpt lat="43.01298561505973339080810546875" lon="-5.98100951872766017913818359375">
        <ele>1465.4000244140625</ele>
        <time>2022-02-23T11:55:05.000Z</time>
      </trkpt>
      <trkpt lat="43.01297002471983432769775390625" lon="-5.9808580577373504638671875">
        <ele>1466.800048828125</ele>
        <time>2022-02-23T11:55:18.000Z</time>
      </trkpt>
      <trkpt lat="43.012948818504810333251953125" lon="-5.98069419153034687042236328125">
        <ele>1468.199951171875</ele>
        <time>2022-02-23T11:55:30.000Z</time>
      </trkpt>
      <trkpt lat="43.01289148628711700439453125" lon="-5.9804575704038143157958984375">
        <ele>1470.4000244140625</ele>
        <time>2022-02-23T11:55:49.000Z</time>
      </trkpt>
      <trkpt lat="43.01280699670314788818359375" lon="-5.9802393056452274322509765625">
        <ele>1470.800048828125</ele>
        <time>2022-02-23T11:56:11.000Z</time>
      </trkpt>
      <trkpt lat="43.0127344094216823577880859375" lon="-5.98000737838447093963623046875">
        <ele>1471.199951171875</ele>
        <time>2022-02-23T11:56:30.000Z</time>
      </trkpt>
      <trkpt lat="43.01267288625240325927734375" lon="-5.97977285273373126983642578125">
        <ele>1472.4000244140625</ele>
        <time>2022-02-23T11:56:49.000Z</time>
      </trkpt>
      <trkpt lat="43.01269643940031528472900390625" lon="-5.97952793352305889129638671875">
        <ele>1475</ele>
        <time>2022-02-23T11:57:09.000Z</time>
      </trkpt>
      <trkpt lat="43.01272711716592311859130859375" lon="-5.97928619943559169769287109375">
        <ele>1476.800048828125</ele>
        <time>2022-02-23T11:57:30.000Z</time>
      </trkpt>
      <trkpt lat="43.01273952238261699676513671875" lon="-5.9792326390743255615234375">
        <ele>1477.4000244140625</ele>
        <time>2022-02-23T11:57:34.000Z</time>
      </trkpt>
      <trkpt lat="43.0127538554370403289794921875" lon="-5.97916491329669952392578125">
        <ele>1478</ele>
        <time>2022-02-23T11:57:40.000Z</time>
      </trkpt>
      <trkpt lat="43.01275578327476978302001953125" lon="-5.97915443591773509979248046875">
        <ele>1478</ele>
        <time>2022-02-23T11:57:41.000Z</time>
      </trkpt>
      <trkpt lat="43.0127629078924655914306640625" lon="-5.97912325523793697357177734375">
        <ele>1478.4000244140625</ele>
        <time>2022-02-23T11:57:46.000Z</time>
      </trkpt>
      <trkpt lat="43.01278143189847469329833984375" lon="-5.97908553667366504669189453125">
        <ele>1479</ele>
        <time>2022-02-23T11:57:50.000Z</time>
      </trkpt>
      <trkpt lat="43.01287329755723476409912109375" lon="-5.9788680262863636016845703125">
        <ele>1483.4000244140625</ele>
        <time>2022-02-23T11:58:13.000Z</time>
      </trkpt>
      <trkpt lat="43.01289861090481281280517578125" lon="-5.97876283340156078338623046875">
        <ele>1485</ele>
        <time>2022-02-23T11:58:22.000Z</time>
      </trkpt>
      <trkpt lat="43.01286357454955577850341796875" lon="-5.97867918200790882110595703125">
        <ele>1484.4000244140625</ele>
        <time>2022-02-23T11:59:15.000Z</time>
      </trkpt>
      <trkpt lat="43.01286994479596614837646484375" lon="-5.97866945900022983551025390625">
        <ele>1484.800048828125</ele>
        <time>2022-02-23T11:59:44.000Z</time>
      </trkpt>
      <trkpt lat="43.01287044771015644073486328125" lon="-5.97867046482861042022705078125">
        <ele>1484.800048828125</ele>
        <time>2022-02-23T11:59:45.000Z</time>
      </trkpt>
      <trkpt lat="43.012867011129856109619140625" lon="-5.97867515869438648223876953125">
        <ele>1484.5999755859375</ele>
        <time>2022-02-23T11:59:57.000Z</time>
      </trkpt>
      <trkpt lat="43.01285753957927227020263671875" lon="-5.9786745719611644744873046875">
        <ele>1484.199951171875</ele>
        <time>2022-02-23T12:00:19.000Z</time>
      </trkpt>
      <trkpt lat="43.01285636611282825469970703125" lon="-5.97867541015148162841796875">
        <ele>1484.199951171875</ele>
        <time>2022-02-23T12:00:26.000Z</time>
      </trkpt>
      <trkpt lat="43.0128564499318599700927734375" lon="-5.97867532633244991302490234375">
        <ele>1484.199951171875</ele>
        <time>2022-02-23T12:00:27.000Z</time>
      </trkpt>
      <trkpt lat="43.0128572881221771240234375" lon="-5.9786752425134181976318359375">
        <ele>1484.199951171875</ele>
        <time>2022-02-23T12:00:28.000Z</time>
      </trkpt>
      <trkpt lat="43.0128574557602405548095703125" lon="-5.9786752425134181976318359375">
        <ele>1484.199951171875</ele>
        <time>2022-02-23T12:00:29.000Z</time>
      </trkpt>
      <trkpt lat="43.0128574557602405548095703125" lon="-5.97867532633244991302490234375">
        <ele>1484.199951171875</ele>
        <time>2022-02-23T12:00:30.000Z</time>
      </trkpt>
      <trkpt lat="43.01287564449012279510498046875" lon="-5.97861195914447307586669921875">
        <ele>1485.5999755859375</ele>
        <time>2022-02-23T12:00:49.000Z</time>
      </trkpt>
      <trkpt lat="43.01291537471115589141845703125" lon="-5.97855898551642894744873046875">
        <ele>1487.800048828125</ele>
        <time>2022-02-23T12:00:55.000Z</time>
      </trkpt>
      <trkpt lat="43.01291185431182384490966796875" lon="-5.9783926047384738922119140625">
        <ele>1490</ele>
        <time>2022-02-23T12:01:12.000Z</time>
      </trkpt>
      <trkpt lat="43.01293398253619670867919921875" lon="-5.97831666469573974609375">
        <ele>1492.199951171875</ele>
        <time>2022-02-23T12:01:22.000Z</time>
      </trkpt>
      <trkpt lat="43.01293549127876758575439453125" lon="-5.97830903716385364532470703125">
        <ele>1492.4000244140625</ele>
        <time>2022-02-23T12:01:24.000Z</time>
      </trkpt>
      <trkpt lat="43.01293381489813327789306640625" lon="-5.9782965481281280517578125">
        <ele>1492.4000244140625</ele>
        <time>2022-02-23T12:01:25.000Z</time>
      </trkpt>
      <trkpt lat="43.0129323899745941162109375" lon="-5.97828389145433902740478515625">
        <ele>1492.5999755859375</ele>
        <time>2022-02-23T12:01:26.000Z</time>
      </trkpt>
      <trkpt lat="43.012932725250720977783203125" lon="-5.978273414075374603271484375">
        <ele>1492.800048828125</ele>
        <time>2022-02-23T12:01:27.000Z</time>
      </trkpt>
      <trkpt lat="43.0129337310791015625" lon="-5.978243909776210784912109375">
        <ele>1493.4000244140625</ele>
        <time>2022-02-23T12:01:29.000Z</time>
      </trkpt>
      <trkpt lat="43.01291939802467823028564453125" lon="-5.9782082028687000274658203125">
        <ele>1493.5999755859375</ele>
        <time>2022-02-23T12:01:32.000Z</time>
      </trkpt>
      <trkpt lat="43.01291587762534618377685546875" lon="-5.97819537855684757232666015625">
        <ele>1493.5999755859375</ele>
        <time>2022-02-23T12:01:33.000Z</time>
      </trkpt>
      <trkpt lat="43.01291151903569698333740234375" lon="-5.9781865775585174560546875">
        <ele>1493.5999755859375</ele>
        <time>2022-02-23T12:01:34.000Z</time>
      </trkpt>
      <trkpt lat="43.0128966830670833587646484375" lon="-5.9781166724860668182373046875">
        <ele>1494.5999755859375</ele>
        <time>2022-02-23T12:01:40.000Z</time>
      </trkpt>
      <trkpt lat="43.01291101612150669097900390625" lon="-5.978000164031982421875">
        <ele>1497.5999755859375</ele>
        <time>2022-02-23T12:01:52.000Z</time>
      </trkpt>
      <trkpt lat="43.01292090676724910736083984375" lon="-5.97787871025502681732177734375">
        <ele>1500.5999755859375</ele>
        <time>2022-02-23T12:02:05.000Z</time>
      </trkpt>
      <trkpt lat="43.01283247768878936767578125" lon="-5.97775231115520000457763671875">
        <ele>1499</ele>
        <time>2022-02-23T12:02:18.000Z</time>
      </trkpt>
      <trkpt lat="43.01275913603603839874267578125" lon="-5.97758869640529155731201171875">
        <ele>1500</ele>
        <time>2022-02-23T12:02:34.000Z</time>
      </trkpt>
      <trkpt lat="43.0127178132534027099609375" lon="-5.97739867866039276123046875">
        <ele>1502</ele>
        <time>2022-02-23T12:02:55.000Z</time>
      </trkpt>
      <trkpt lat="43.01272242330014705657958984375" lon="-5.977221317589282989501953125">
        <ele>1506.4000244140625</ele>
        <time>2022-02-23T12:03:10.000Z</time>
      </trkpt>
      <trkpt lat="43.0127084255218505859375" lon="-5.97697597928345203399658203125">
        <ele>1511.5999755859375</ele>
        <time>2022-02-23T12:03:35.000Z</time>
      </trkpt>
      <trkpt lat="43.012696690857410430908203125" lon="-5.9768442995846271514892578125">
        <ele>1514.800048828125</ele>
        <time>2022-02-23T12:03:50.000Z</time>
      </trkpt>
      <trkpt lat="43.0126881413161754608154296875" lon="-5.9767755679786205291748046875">
        <ele>1516.199951171875</ele>
        <time>2022-02-23T12:03:56.000Z</time>
      </trkpt>
      <trkpt lat="43.01268319599330425262451171875" lon="-5.97666442394256591796875">
        <ele>1518.199951171875</ele>
        <time>2022-02-23T12:04:08.000Z</time>
      </trkpt>
      <trkpt lat="43.0126760713756084442138671875" lon="-5.976425372064113616943359375">
        <ele>1522.199951171875</ele>
        <time>2022-02-23T12:04:33.000Z</time>
      </trkpt>
      <trkpt lat="43.01265536807477474212646484375" lon="-5.9762102924287319183349609375">
        <ele>1524.800048828125</ele>
        <time>2022-02-23T12:05:01.000Z</time>
      </trkpt>
      <trkpt lat="43.0126220919191837310791015625" lon="-5.9761506132781505584716796875">
        <ele>1525</ele>
        <time>2022-02-23T12:05:14.000Z</time>
      </trkpt>
      <trkpt lat="43.01262921653687953948974609375" lon="-5.97610861994326114654541015625">
        <ele>1525.800048828125</ele>
        <time>2022-02-23T12:05:18.000Z</time>
      </trkpt>
      <trkpt lat="43.01266559399664402008056640625" lon="-5.97599848173558712005615234375">
        <ele>1528</ele>
        <time>2022-02-23T12:05:34.000Z</time>
      </trkpt>
      <trkpt lat="43.01263743080198764801025390625" lon="-5.97585397772490978240966796875">
        <ele>1530</ele>
        <time>2022-02-23T12:05:56.000Z</time>
      </trkpt>
      <trkpt lat="43.01260046660900115966796875" lon="-5.97574886865913867950439453125">
        <ele>1531.199951171875</ele>
        <time>2022-02-23T12:06:11.000Z</time>
      </trkpt>
      <trkpt lat="43.0125091038644313812255859375" lon="-5.97556681372225284576416015625">
        <ele>1536</ele>
        <time>2022-02-23T12:06:33.000Z</time>
      </trkpt>
      <trkpt lat="43.01244313828647136688232421875" lon="-5.9753462858498096466064453125">
        <ele>1542.5999755859375</ele>
        <time>2022-02-23T12:06:55.000Z</time>
      </trkpt>
      <trkpt lat="43.01240642555058002471923828125" lon="-5.97511905245482921600341796875">
        <ele>1550.5999755859375</ele>
        <time>2022-02-23T12:07:20.000Z</time>
      </trkpt>
      <trkpt lat="43.0124531127512454986572265625" lon="-5.9750351496040821075439453125">
        <ele>1553.800048828125</ele>
        <time>2022-02-23T12:07:30.000Z</time>
      </trkpt>
      <trkpt lat="43.01245571114122867584228515625" lon="-5.97483322955667972564697265625">
        <ele>1559.5999755859375</ele>
        <time>2022-02-23T12:08:07.000Z</time>
      </trkpt>
      <trkpt lat="43.01251673139631748199462890625" lon="-5.97465611994266510009765625">
        <ele>1564.800048828125</ele>
        <time>2022-02-23T12:08:38.000Z</time>
      </trkpt>
      <trkpt lat="43.012527041137218475341796875" lon="-5.9746311418712139129638671875">
        <ele>1565.5999755859375</ele>
        <time>2022-02-23T12:08:41.000Z</time>
      </trkpt>
      <trkpt lat="43.0124764144420623779296875" lon="-5.9745040722191333770751953125">
        <ele>1568.5999755859375</ele>
        <time>2022-02-23T12:09:03.000Z</time>
      </trkpt>
      <trkpt lat="43.0124469101428985595703125" lon="-5.97449745051562786102294921875">
        <ele>1568.5999755859375</ele>
        <time>2022-02-23T12:09:09.000Z</time>
      </trkpt>
      <trkpt lat="43.0124390311539173126220703125" lon="-5.97449979744851589202880859375">
        <ele>1568.4000244140625</ele>
        <time>2022-02-23T12:09:10.000Z</time>
      </trkpt>
      <trkpt lat="43.01243207417428493499755859375" lon="-5.97450197674334049224853515625">
        <ele>1568.4000244140625</ele>
        <time>2022-02-23T12:09:11.000Z</time>
      </trkpt>
      <trkpt lat="43.0124246142804622650146484375" lon="-5.974502228200435638427734375">
        <ele>1568.4000244140625</ele>
        <time>2022-02-23T12:09:12.000Z</time>
      </trkpt>
      <trkpt lat="43.01229469478130340576171875" lon="-5.974403657019138336181640625">
        <ele>1570</ele>
        <time>2022-02-23T12:09:32.000Z</time>
      </trkpt>
      <trkpt lat="43.01226711831986904144287109375" lon="-5.97434154711663722991943359375">
        <ele>1571.5999755859375</ele>
        <time>2022-02-23T12:09:39.000Z</time>
      </trkpt>
      <trkpt lat="43.01221397705376148223876953125" lon="-5.97424834035336971282958984375">
        <ele>1573.4000244140625</ele>
        <time>2022-02-23T12:09:50.000Z</time>
      </trkpt>
      <trkpt lat="43.012184388935565948486328125" lon="-5.97417466342449188232421875">
        <ele>1575</ele>
        <time>2022-02-23T12:09:58.000Z</time>
      </trkpt>
      <trkpt lat="43.0121035873889923095703125" lon="-5.97400124184787273406982421875">
        <ele>1580.4000244140625</ele>
        <time>2022-02-23T12:10:20.000Z</time>
      </trkpt>
      <trkpt lat="43.01201574504375457763671875" lon="-5.973787419497966766357421875">
        <ele>1585.4000244140625</ele>
        <time>2022-02-23T12:10:44.000Z</time>
      </trkpt>
      <trkpt lat="43.01192597486078739166259765625" lon="-5.97359589301049709320068359375">
        <ele>1591.199951171875</ele>
        <time>2022-02-23T12:11:06.000Z</time>
      </trkpt>
      <trkpt lat="43.0118677206337451934814453125" lon="-5.97340294159948825836181640625">
        <ele>1596.199951171875</ele>
        <time>2022-02-23T12:11:35.000Z</time>
      </trkpt>
      <trkpt lat="43.0118013359606266021728515625" lon="-5.9733406640589237213134765625">
        <ele>1597</ele>
        <time>2022-02-23T12:11:54.000Z</time>
      </trkpt>
      <trkpt lat="43.011785410344600677490234375" lon="-5.97337226383388042449951171875">
        <ele>1596</ele>
        <time>2022-02-23T12:12:12.000Z</time>
      </trkpt>
      <trkpt lat="43.011783398687839508056640625" lon="-5.9733678214251995086669921875">
        <ele>1596</ele>
        <time>2022-02-23T12:12:21.000Z</time>
      </trkpt>
      <trkpt lat="43.01178080029785633087158203125" lon="-5.97337947227060794830322265625">
        <ele>1595.800048828125</ele>
        <time>2022-02-23T12:12:48.000Z</time>
      </trkpt>
      <trkpt lat="43.01172900013625621795654296875" lon="-5.97322189249098300933837890625">
        <ele>1599.5999755859375</ele>
        <time>2022-02-23T12:13:09.000Z</time>
      </trkpt>
      <trkpt lat="43.0117289163172245025634765625" lon="-5.9732115827500820159912109375">
        <ele>1600</ele>
        <time>2022-02-23T12:13:10.000Z</time>
      </trkpt>
      <trkpt lat="43.01172606647014617919921875" lon="-5.9732045419514179229736328125">
        <ele>1600.4000244140625</ele>
        <time>2022-02-23T12:13:11.000Z</time>
      </trkpt>
      <trkpt lat="43.01170703954994678497314453125" lon="-5.9731445275247097015380859375">
        <ele>1602</ele>
        <time>2022-02-23T12:13:16.000Z</time>
      </trkpt>
      <trkpt lat="43.0117031000554561614990234375" lon="-5.973120220005512237548828125">
        <ele>1602.5999755859375</ele>
        <time>2022-02-23T12:13:18.000Z</time>
      </trkpt>
      <trkpt lat="43.0116957239806652069091796875" lon="-5.97310571931302547454833984375">
        <ele>1603</ele>
        <time>2022-02-23T12:13:20.000Z</time>
      </trkpt>
      <trkpt lat="43.01169295795261859893798828125" lon="-5.973095409572124481201171875">
        <ele>1603.4000244140625</ele>
        <time>2022-02-23T12:13:21.000Z</time>
      </trkpt>
      <trkpt lat="43.011682145297527313232421875" lon="-5.9730731137096881866455078125">
        <ele>1603.800048828125</ele>
        <time>2022-02-23T12:13:25.000Z</time>
      </trkpt>
      <trkpt lat="43.011675439774990081787109375" lon="-5.97304838709533214569091796875">
        <ele>1604.4000244140625</ele>
        <time>2022-02-23T12:13:28.000Z</time>
      </trkpt>
      <trkpt lat="43.011673428118228912353515625" lon="-5.973031036555767059326171875">
        <ele>1605</ele>
        <time>2022-02-23T12:13:30.000Z</time>
      </trkpt>
      <trkpt lat="43.011669404804706573486328125" lon="-5.97300589084625244140625">
        <ele>1605.5999755859375</ele>
        <time>2022-02-23T12:13:33.000Z</time>
      </trkpt>
      <trkpt lat="43.011668063700199127197265625" lon="-5.972994156181812286376953125">
        <ele>1605.800048828125</ele>
        <time>2022-02-23T12:13:34.000Z</time>
      </trkpt>
      <trkpt lat="43.01166580058634281158447265625" lon="-5.97298300825059413909912109375">
        <ele>1606.199951171875</ele>
        <time>2022-02-23T12:13:35.000Z</time>
      </trkpt>
      <trkpt lat="43.0116632021963596343994140625" lon="-5.97297546453773975372314453125">
        <ele>1606.4000244140625</ele>
        <time>2022-02-23T12:13:36.000Z</time>
      </trkpt>
      <trkpt lat="43.0116477794945240020751953125" lon="-5.97288074903190135955810546875">
        <ele>1608.5999755859375</ele>
        <time>2022-02-23T12:13:46.000Z</time>
      </trkpt>
      <trkpt lat="43.0116440914571285247802734375" lon="-5.97284571267664432525634765625">
        <ele>1609.199951171875</ele>
        <time>2022-02-23T12:13:52.000Z</time>
      </trkpt>
      <trkpt lat="43.011646606028079986572265625" lon="-5.9728360734879970550537109375">
        <ele>1609.4000244140625</ele>
        <time>2022-02-23T12:13:53.000Z</time>
      </trkpt>
      <trkpt lat="43.011647276580333709716796875" lon="-5.97282978706061840057373046875">
        <ele>1609.4000244140625</ele>
        <time>2022-02-23T12:13:54.000Z</time>
      </trkpt>
      <trkpt lat="43.01164828240871429443359375" lon="-5.972822494804859161376953125">
        <ele>1609.5999755859375</ele>
        <time>2022-02-23T12:13:55.000Z</time>
      </trkpt>
      <trkpt lat="43.01165607757866382598876953125" lon="-5.97274697385728359222412109375">
        <ele>1611</ele>
        <time>2022-02-23T12:14:03.000Z</time>
      </trkpt>
      <trkpt lat="43.01172673702239990234375" lon="-5.9725604765117168426513671875">
        <ele>1614.5999755859375</ele>
        <time>2022-02-23T12:14:36.000Z</time>
      </trkpt>
      <trkpt lat="43.01185221411287784576416015625" lon="-5.9724153019487857818603515625">
        <ele>1617</ele>
        <time>2022-02-23T12:15:06.000Z</time>
      </trkpt>
      <trkpt lat="43.01188238896429538726806640625" lon="-5.9723365120589733123779296875">
        <ele>1618.5999755859375</ele>
        <time>2022-02-23T12:15:19.000Z</time>
      </trkpt>
      <trkpt lat="43.01186981610953807830810546875" lon="-5.9721323288977146148681640625">
        <ele>1622.800048828125</ele>
        <time>2022-02-23T12:16:08.000Z</time>
      </trkpt>
      <trkpt lat="43.0118412338197231292724609375" lon="-5.97205446101725101470947265625">
        <ele>1624.4000244140625</ele>
        <time>2022-02-23T12:16:16.000Z</time>
      </trkpt>
      <trkpt lat="43.011777698993682861328125" lon="-5.97197399474680423736572265625">
        <ele>1625.199951171875</ele>
        <time>2022-02-23T12:16:28.000Z</time>
      </trkpt>
      <trkpt lat="43.01175045780837535858154296875" lon="-5.97192185930907726287841796875">
        <ele>1625.800048828125</ele>
        <time>2022-02-23T12:16:33.000Z</time>
      </trkpt>
      <trkpt lat="43.01169396378099918365478515625" lon="-5.971822701394557952880859375">
        <ele>1627.800048828125</ele>
        <time>2022-02-23T12:16:43.000Z</time>
      </trkpt>
      <trkpt lat="43.01161852665245532989501953125" lon="-5.9717115573585033416748046875">
        <ele>1630</ele>
        <time>2022-02-23T12:16:57.000Z</time>
      </trkpt>
      <trkpt lat="43.01159136928617954254150390625" lon="-5.97165732644498348236083984375">
        <ele>1631.4000244140625</ele>
        <time>2022-02-23T12:17:05.000Z</time>
      </trkpt>
      <trkpt lat="43.01159505732357501983642578125" lon="-5.97162396647036075592041015625">
        <ele>1632</ele>
        <time>2022-02-23T12:17:07.000Z</time>
      </trkpt>
      <trkpt lat="43.01158818416297435760498046875" lon="-5.9715856611728668212890625">
        <ele>1633</ele>
        <time>2022-02-23T12:17:10.000Z</time>
      </trkpt>
      <trkpt lat="43.01156387664377689361572265625" lon="-5.971534363925457000732421875">
        <ele>1634.4000244140625</ele>
        <time>2022-02-23T12:17:17.000Z</time>
      </trkpt>
      <trkpt lat="43.01156739704310894012451171875" lon="-5.9713722579181194305419921875">
        <ele>1638</ele>
        <time>2022-02-23T12:17:42.000Z</time>
      </trkpt>
      <trkpt lat="43.01161534152925014495849609375" lon="-5.97122934646904468536376953125">
        <ele>1640.4000244140625</ele>
        <time>2022-02-23T12:18:01.000Z</time>
      </trkpt>
      <trkpt lat="43.01162841729819774627685546875" lon="-5.97117863595485687255859375">
        <ele>1641.199951171875</ele>
        <time>2022-02-23T12:18:09.000Z</time>
      </trkpt>
      <trkpt lat="43.01164953969419002532958984375" lon="-5.9711077250540256500244140625">
        <ele>1642.4000244140625</ele>
        <time>2022-02-23T12:18:23.000Z</time>
      </trkpt>
      <trkpt lat="43.01167669706046581268310546875" lon="-5.97086842171847820281982421875">
        <ele>1648.4000244140625</ele>
        <time>2022-02-23T12:18:55.000Z</time>
      </trkpt>
      <trkpt lat="43.01171055994927883148193359375" lon="-5.9707778133451938629150390625">
        <ele>1650.4000244140625</ele>
        <time>2022-02-23T12:19:07.000Z</time>
      </trkpt>
      <trkpt lat="43.011749871075153350830078125" lon="-5.97059433348476886749267578125">
        <ele>1655.199951171875</ele>
        <time>2022-02-23T12:19:29.000Z</time>
      </trkpt>
      <trkpt lat="43.01170972175896167755126953125" lon="-5.97042351029813289642333984375">
        <ele>1661.199951171875</ele>
        <time>2022-02-23T12:19:53.000Z</time>
      </trkpt>
      <trkpt lat="43.01169094629585742950439453125" lon="-5.97041613422334194183349609375">
        <ele>1661.5999755859375</ele>
        <time>2022-02-23T12:24:05.000Z</time>
      </trkpt>
      <trkpt lat="43.01168222911655902862548828125" lon="-5.9704162180423736572265625">
        <ele>1661.5999755859375</ele>
        <time>2022-02-23T12:24:06.000Z</time>
      </trkpt>
      <trkpt lat="43.01162657327950000762939453125" lon="-5.97036458551883697509765625">
        <ele>1663.4000244140625</ele>
        <time>2022-02-23T12:24:16.000Z</time>
      </trkpt>
      <trkpt lat="43.01161735318601131439208984375" lon="-5.9703469835221767425537109375">
        <ele>1664</ele>
        <time>2022-02-23T12:24:18.000Z</time>
      </trkpt>
      <trkpt lat="43.0116082169115543365478515625" lon="-5.970333404839038848876953125">
        <ele>1664.4000244140625</ele>
        <time>2022-02-23T12:24:20.000Z</time>
      </trkpt>
      <trkpt lat="43.01159304566681385040283203125" lon="-5.97031253390014171600341796875">
        <ele>1665.199951171875</ele>
        <time>2022-02-23T12:24:24.000Z</time>
      </trkpt>
      <trkpt lat="43.01157091744244098663330078125" lon="-5.970279760658740997314453125">
        <ele>1666.5999755859375</ele>
        <time>2022-02-23T12:24:31.000Z</time>
      </trkpt>
      <trkpt lat="43.01150738261640071868896484375" lon="-5.9703144617378711700439453125">
        <ele>1666.4000244140625</ele>
        <time>2022-02-23T12:24:44.000Z</time>
      </trkpt>
      <trkpt lat="43.01146681420505046844482421875" lon="-5.9703826904296875">
        <ele>1664.800048828125</ele>
        <time>2022-02-23T12:24:53.000Z</time>
      </trkpt>
      <trkpt lat="43.01134963519871234893798828125" lon="-5.97040859051048755645751953125">
        <ele>1665.5999755859375</ele>
        <time>2022-02-23T12:25:10.000Z</time>
      </trkpt>
      <trkpt lat="43.0113228969275951385498046875" lon="-5.9703570418059825897216796875">
        <ele>1667.5999755859375</ele>
        <time>2022-02-23T12:25:15.000Z</time>
      </trkpt>
      <trkpt lat="43.011259697377681732177734375" lon="-5.9702453948557376861572265625">
        <ele>1670</ele>
        <time>2022-02-23T12:25:25.000Z</time>
      </trkpt>
      <trkpt lat="43.01118417643010616302490234375" lon="-5.97014422528445720672607421875">
        <ele>1672</ele>
        <time>2022-02-23T12:25:36.000Z</time>
      </trkpt>
      <trkpt lat="43.0111755430698394775390625" lon="-5.97012712620198726654052734375">
        <ele>1672.4000244140625</ele>
        <time>2022-02-23T12:25:38.000Z</time>
      </trkpt>
      <trkpt lat="43.0111706815659999847412109375" lon="-5.970121510326862335205078125">
        <ele>1672.5999755859375</ele>
        <time>2022-02-23T12:25:39.000Z</time>
      </trkpt>
      <trkpt lat="43.01116473041474819183349609375" lon="-5.97011438570916652679443359375">
        <ele>1672.800048828125</ele>
        <time>2022-02-23T12:25:40.000Z</time>
      </trkpt>
      <trkpt lat="43.01104755140841007232666015625" lon="-5.9699352644383907318115234375">
        <ele>1676.4000244140625</ele>
        <time>2022-02-23T12:26:08.000Z</time>
      </trkpt>
      <trkpt lat="43.01104553975164890289306640625" lon="-5.96990852616727352142333984375">
        <ele>1676.800048828125</ele>
        <time>2022-02-23T12:26:13.000Z</time>
      </trkpt>
      <trkpt lat="43.01102072931826114654541015625" lon="-5.9696921892464160919189453125">
        <ele>1681.5999755859375</ele>
        <time>2022-02-23T12:26:40.000Z</time>
      </trkpt>
      <trkpt lat="43.01105819642543792724609375" lon="-5.96945657394826412200927734375">
        <ele>1689.800048828125</ele>
        <time>2022-02-23T12:27:10.000Z</time>
      </trkpt>
      <trkpt lat="43.0110414326190948486328125" lon="-5.96923948265612125396728515625">
        <ele>1698.800048828125</ele>
        <time>2022-02-23T12:27:38.000Z</time>
      </trkpt>
      <trkpt lat="43.0110687576234340667724609375" lon="-5.96901141107082366943359375">
        <ele>1707.800048828125</ele>
        <time>2022-02-23T12:28:14.000Z</time>
      </trkpt>
      <trkpt lat="43.01108359359204769134521484375" lon="-5.96897595562040805816650390625">
        <ele>1709</ele>
        <time>2022-02-23T12:28:20.000Z</time>
      </trkpt>
      <trkpt lat="43.0110617168247699737548828125" lon="-5.96877462230622768402099609375">
        <ele>1715.800048828125</ele>
        <time>2022-02-23T12:29:00.000Z</time>
      </trkpt>
      <trkpt lat="43.01111745648086071014404296875" lon="-5.96856289543211460113525390625">
        <ele>1722.199951171875</ele>
        <time>2022-02-23T12:29:37.000Z</time>
      </trkpt>
      <trkpt lat="43.01124519668519496917724609375" lon="-5.96839475445449352264404296875">
        <ele>1727.5999755859375</ele>
        <time>2022-02-23T12:30:07.000Z</time>
      </trkpt>
      <trkpt lat="43.01133689470589160919189453125" lon="-5.9682327322661876678466796875">
        <ele>1732.5999755859375</ele>
        <time>2022-02-23T12:30:42.000Z</time>
      </trkpt>
      <trkpt lat="43.011370338499546051025390625" lon="-5.9680174849927425384521484375">
        <ele>1742.4000244140625</ele>
        <time>2022-02-23T12:31:23.000Z</time>
      </trkpt>
      <trkpt lat="43.0112980864942073822021484375" lon="-5.96779360435903072357177734375">
        <ele>1750.5999755859375</ele>
        <time>2022-02-23T12:31:55.000Z</time>
      </trkpt>
      <trkpt lat="43.01118853501975536346435546875" lon="-5.96758958883583545684814453125">
        <ele>1754.800048828125</ele>
        <time>2022-02-23T12:32:20.000Z</time>
      </trkpt>
      <trkpt lat="43.01115232519805431365966796875" lon="-5.96735053695738315582275390625">
        <ele>1760.5999755859375</ele>
        <time>2022-02-23T12:32:48.000Z</time>
      </trkpt>
      <trkpt lat="43.0110643990337848663330078125" lon="-5.96713629551231861114501953125">
        <ele>1766.199951171875</ele>
        <time>2022-02-23T12:33:32.000Z</time>
      </trkpt>
      <trkpt lat="43.01105341874063014984130859375" lon="-5.9671149216592311859130859375">
        <ele>1766.4000244140625</ele>
        <time>2022-02-23T12:33:35.000Z</time>
      </trkpt>
      <trkpt lat="43.010998852550983428955078125" lon="-5.96689623780548572540283203125">
        <ele>1773.5999755859375</ele>
        <time>2022-02-23T12:34:09.000Z</time>
      </trkpt>
      <trkpt lat="43.01092266105115413665771484375" lon="-5.9667876921594142913818359375">
        <ele>1775</ele>
        <time>2022-02-23T12:34:28.000Z</time>
      </trkpt>
      <trkpt lat="43.0109071545302867889404296875" lon="-5.96673882566392421722412109375">
        <ele>1776.5999755859375</ele>
        <time>2022-02-23T12:34:33.000Z</time>
      </trkpt>
      <trkpt lat="43.01086516119539737701416015625" lon="-5.966526009142398834228515625">
        <ele>1782.4000244140625</ele>
        <time>2022-02-23T12:34:59.000Z</time>
      </trkpt>
      <trkpt lat="43.010982088744640350341796875" lon="-5.96637270413339138031005859375">
        <ele>1794.4000244140625</ele>
        <time>2022-02-23T12:35:38.000Z</time>
      </trkpt>
      <trkpt lat="43.010920397937297821044921875" lon="-5.96615754067897796630859375">
        <ele>1800</ele>
        <time>2022-02-23T12:36:19.000Z</time>
      </trkpt>
      <trkpt lat="43.01091645844280719757080078125" lon="-5.966027788817882537841796875">
        <ele>1805.4000244140625</ele>
        <time>2022-02-23T12:36:46.000Z</time>
      </trkpt>
      <trkpt lat="43.0108173005282878875732421875" lon="-5.9658405371010303497314453125">
        <ele>1809.4000244140625</ele>
        <time>2022-02-23T12:37:16.000Z</time>
      </trkpt>
      <trkpt lat="43.010746724903583526611328125" lon="-5.9656775929033756256103515625">
        <ele>1814.199951171875</ele>
        <time>2022-02-23T12:37:42.000Z</time>
      </trkpt>
      <trkpt lat="43.01065360195934772491455078125" lon="-5.96547282300889492034912109375">
        <ele>1817</ele>
        <time>2022-02-23T12:38:13.000Z</time>
      </trkpt>
      <trkpt lat="43.0106107704341411590576171875" lon="-5.9653094597160816192626953125">
        <ele>1819.5999755859375</ele>
        <time>2022-02-23T12:38:32.000Z</time>
      </trkpt>
      <trkpt lat="43.0106127820909023284912109375" lon="-5.96529881469905376434326171875">
        <ele>1820</ele>
        <time>2022-02-23T12:38:33.000Z</time>
      </trkpt>
      <trkpt lat="43.0105380155146121978759765625" lon="-5.965097062289714813232421875">
        <ele>1822.4000244140625</ele>
        <time>2022-02-23T12:38:55.000Z</time>
      </trkpt>
      <trkpt lat="43.01046668551862239837646484375" lon="-5.96487368457019329071044921875">
        <ele>1825.5999755859375</ele>
        <time>2022-02-23T12:39:19.000Z</time>
      </trkpt>
      <trkpt lat="43.010362498462200164794921875" lon="-5.96467293798923492431640625">
        <ele>1827.800048828125</ele>
        <time>2022-02-23T12:39:37.000Z</time>
      </trkpt>
      <trkpt lat="43.01032519899308681488037109375" lon="-5.9644270129501819610595703125">
        <ele>1833.199951171875</ele>
        <time>2022-02-23T12:40:04.000Z</time>
      </trkpt>
      <trkpt lat="43.01028245128691196441650390625" lon="-5.96418435685336589813232421875">
        <ele>1838.5999755859375</ele>
        <time>2022-02-23T12:40:36.000Z</time>
      </trkpt>
      <trkpt lat="43.0102528631687164306640625" lon="-5.9639505855739116668701171875">
        <ele>1845.4000244140625</ele>
        <time>2022-02-23T12:41:06.000Z</time>
      </trkpt>
      <trkpt lat="43.01024154759943485260009765625" lon="-5.96370340324938297271728515625">
        <ele>1852.5999755859375</ele>
        <time>2022-02-23T12:41:33.000Z</time>
      </trkpt>
      <trkpt lat="43.01013140939176082611083984375" lon="-5.96350508742034435272216796875">
        <ele>1850</ele>
        <time>2022-02-23T12:41:59.000Z</time>
      </trkpt>
      <trkpt lat="43.01004423759877681732177734375" lon="-5.963309369981288909912109375">
        <ele>1849.199951171875</ele>
        <time>2022-02-23T12:42:22.000Z</time>
      </trkpt>
      <trkpt lat="43.0099472589790821075439453125" lon="-5.96310024149715900421142578125">
        <ele>1849.5999755859375</ele>
        <time>2022-02-23T12:42:52.000Z</time>
      </trkpt>
      <trkpt lat="43.009947426617145538330078125" lon="-5.96307811327278614044189453125">
        <ele>1850</ele>
        <time>2022-02-23T12:42:55.000Z</time>
      </trkpt>
      <trkpt lat="43.00994130782783031463623046875" lon="-5.963057912886142730712890625">
        <ele>1850</ele>
        <time>2022-02-23T12:42:58.000Z</time>
      </trkpt>
      <trkpt lat="43.00993728451430797576904296875" lon="-5.96302396617829799652099609375">
        <ele>1850.4000244140625</ele>
        <time>2022-02-23T12:43:04.000Z</time>
      </trkpt>
      <trkpt lat="43.009928651154041290283203125" lon="-5.96299848519265651702880859375">
        <ele>1850.5999755859375</ele>
        <time>2022-02-23T12:43:07.000Z</time>
      </trkpt>
      <trkpt lat="43.0098667927086353302001953125" lon="-5.9627717547118663787841796875">
        <ele>1852.5999755859375</ele>
        <time>2022-02-23T12:43:38.000Z</time>
      </trkpt>
      <trkpt lat="43.00978414714336395263671875" lon="-5.96259690821170806884765625">
        <ele>1854.4000244140625</ele>
        <time>2022-02-23T12:44:01.000Z</time>
      </trkpt>
      <trkpt lat="43.00971382297575473785400390625" lon="-5.96236783079802989959716796875">
        <ele>1858.800048828125</ele>
        <time>2022-02-23T12:44:23.000Z</time>
      </trkpt>
      <trkpt lat="43.009740225970745086669921875" lon="-5.96212777309119701385498046875">
        <ele>1867.800048828125</ele>
        <time>2022-02-23T12:44:51.000Z</time>
      </trkpt>
      <trkpt lat="43.0097165890038013458251953125" lon="-5.96188084222376346588134765625">
        <ele>1874</ele>
        <time>2022-02-23T12:45:21.000Z</time>
      </trkpt>
      <trkpt lat="43.00971499644219875335693359375" lon="-5.9617196582257747650146484375">
        <ele>1878.199951171875</ele>
        <time>2022-02-23T12:45:39.000Z</time>
      </trkpt>
      <trkpt lat="43.00965347327291965484619140625" lon="-5.96151153557002544403076171875">
        <ele>1879</ele>
        <time>2022-02-23T12:46:05.000Z</time>
      </trkpt>
      <trkpt lat="43.0096247233450412750244140625" lon="-5.96142989583313465118408203125">
        <ele>1878.4000244140625</ele>
        <time>2022-02-23T12:46:14.000Z</time>
      </trkpt>
      <trkpt lat="43.009603433310985565185546875" lon="-5.96137583255767822265625">
        <ele>1878</ele>
        <time>2022-02-23T12:46:20.000Z</time>
      </trkpt>
      <trkpt lat="43.00954501144587993621826171875" lon="-5.9611439891159534454345703125">
        <ele>1878.4000244140625</ele>
        <time>2022-02-23T12:46:47.000Z</time>
      </trkpt>
      <trkpt lat="43.00952556543052196502685546875" lon="-5.9610863216221332550048828125">
        <ele>1878.199951171875</ele>
        <time>2022-02-23T12:46:54.000Z</time>
      </trkpt>
      <trkpt lat="43.0094973184168338775634765625" lon="-5.9609726630151271820068359375">
        <ele>1878.4000244140625</ele>
        <time>2022-02-23T12:47:08.000Z</time>
      </trkpt>
      <trkpt lat="43.00941995345056056976318359375" lon="-5.9607433341443538665771484375">
        <ele>1879.4000244140625</ele>
        <time>2022-02-23T12:47:37.000Z</time>
      </trkpt>
      <trkpt lat="43.009395897388458251953125" lon="-5.96070838160812854766845703125">
        <ele>1878.5999755859375</ele>
        <time>2022-02-23T12:48:15.000Z</time>
      </trkpt>
      <trkpt lat="43.00940302200615406036376953125" lon="-5.96070419065654277801513671875">
        <ele>1879</ele>
        <time>2022-02-23T12:48:22.000Z</time>
      </trkpt>
      <trkpt lat="43.0094004236161708831787109375" lon="-5.9607067890465259552001953125">
        <ele>1878.800048828125</ele>
        <time>2022-02-23T12:48:23.000Z</time>
      </trkpt>
      <trkpt lat="43.00936027429997920989990234375" lon="-5.96072866581380367279052734375">
        <ele>1876.199951171875</ele>
        <time>2022-02-23T12:48:29.000Z</time>
      </trkpt>
      <trkpt lat="43.00933864898979663848876953125" lon="-5.96050570718944072723388671875">
        <ele>1880</ele>
        <time>2022-02-23T12:49:00.000Z</time>
      </trkpt>
      <trkpt lat="43.00933085381984710693359375" lon="-5.9604751132428646087646484375">
        <ele>1880</ele>
        <time>2022-02-23T12:49:03.000Z</time>
      </trkpt>
      <trkpt lat="43.00932817161083221435546875" lon="-5.9604556672275066375732421875">
        <ele>1880.199951171875</ele>
        <time>2022-02-23T12:49:05.000Z</time>
      </trkpt>
      <trkpt lat="43.0093243159353733062744140625" lon="-5.9604332037270069122314453125">
        <ele>1880.5999755859375</ele>
        <time>2022-02-23T12:49:07.000Z</time>
      </trkpt>
      <trkpt lat="43.00931031815707683563232421875" lon="-5.96039271913468837738037109375">
        <ele>1880.5999755859375</ele>
        <time>2022-02-23T12:49:11.000Z</time>
      </trkpt>
      <trkpt lat="43.00929238088428974151611328125" lon="-5.96034393645823001861572265625">
        <ele>1882</ele>
        <time>2022-02-23T12:49:17.000Z</time>
      </trkpt>
      <trkpt lat="43.009290285408496856689453125" lon="-5.9603366442024707794189453125">
        <ele>1882.199951171875</ele>
        <time>2022-02-23T12:49:18.000Z</time>
      </trkpt>
      <trkpt lat="43.00928601063787937164306640625" lon="-5.96032465808093547821044921875">
        <ele>1882.5999755859375</ele>
        <time>2022-02-23T12:49:19.000Z</time>
      </trkpt>
      <trkpt lat="43.00928534008562564849853515625" lon="-5.9602964110672473907470703125">
        <ele>1883.5999755859375</ele>
        <time>2022-02-23T12:49:23.000Z</time>
      </trkpt>
      <trkpt lat="43.0092860944569110870361328125" lon="-5.9602709300816059112548828125">
        <ele>1884.5999755859375</ele>
        <time>2022-02-23T12:49:24.000Z</time>
      </trkpt>
      <trkpt lat="43.00925835035741329193115234375" lon="-5.96022189594805240631103515625">
        <ele>1885.800048828125</ele>
        <time>2022-02-23T12:49:31.000Z</time>
      </trkpt>
      <trkpt lat="43.0092175304889678955078125" lon="-5.96015785820782184600830078125">
        <ele>1886.5999755859375</ele>
        <time>2022-02-23T12:49:39.000Z</time>
      </trkpt>
      <trkpt lat="43.0091379024088382720947265625" lon="-5.95993188209831714630126953125">
        <ele>1890.800048828125</ele>
        <time>2022-02-23T12:50:05.000Z</time>
      </trkpt>
      <trkpt lat="43.009112589061260223388671875" lon="-5.95988628454506397247314453125">
        <ele>1890.5999755859375</ele>
        <time>2022-02-23T12:50:11.000Z</time>
      </trkpt>
      <trkpt lat="43.009101189672946929931640625" lon="-5.9598350711166858673095703125">
        <ele>1891.4000244140625</ele>
        <time>2022-02-23T12:50:16.000Z</time>
      </trkpt>
      <trkpt lat="43.00909775309264659881591796875" lon="-5.95981285907328128814697265625">
        <ele>1892.199951171875</ele>
        <time>2022-02-23T12:50:17.000Z</time>
      </trkpt>
      <trkpt lat="43.00909590907394886016845703125" lon="-5.95980338752269744873046875">
        <ele>1892.5999755859375</ele>
        <time>2022-02-23T12:50:19.000Z</time>
      </trkpt>
      <trkpt lat="43.00909607671201229095458984375" lon="-5.95979190431535243988037109375">
        <ele>1893</ele>
        <time>2022-02-23T12:50:20.000Z</time>
      </trkpt>
      <trkpt lat="43.009055592119693756103515625" lon="-5.95955117605626583099365234375">
        <ele>1897.5999755859375</ele>
        <time>2022-02-23T12:50:39.000Z</time>
      </trkpt>
      <trkpt lat="43.00906925462186336517333984375" lon="-5.95940181054174900054931640625">
        <ele>1904.5999755859375</ele>
        <time>2022-02-23T12:50:56.000Z</time>
      </trkpt>
      <trkpt lat="43.00907243974506855010986328125" lon="-5.95938521437346935272216796875">
        <ele>1905.4000244140625</ele>
        <time>2022-02-23T12:50:58.000Z</time>
      </trkpt>
      <trkpt lat="43.0090909637510776519775390625" lon="-5.95932067371904850006103515625">
        <ele>1909.4000244140625</ele>
        <time>2022-02-23T12:51:08.000Z</time>
      </trkpt>
      <trkpt lat="43.00908165983855724334716796875" lon="-5.95927926711738109588623046875">
        <ele>1910</ele>
        <time>2022-02-23T12:51:14.000Z</time>
      </trkpt>
      <trkpt lat="43.0090711824595928192138671875" lon="-5.95926987938582897186279296875">
        <ele>1909.5999755859375</ele>
        <time>2022-02-23T12:51:16.000Z</time>
      </trkpt>
      <trkpt lat="43.00906598567962646484375" lon="-5.95926568843424320220947265625">
        <ele>1909.199951171875</ele>
        <time>2022-02-23T12:51:18.000Z</time>
      </trkpt>
      <trkpt lat="43.00906263291835784912109375" lon="-5.9592225216329097747802734375">
        <ele>1910.800048828125</ele>
        <time>2022-02-23T12:51:22.000Z</time>
      </trkpt>
      <trkpt lat="43.00905014388263225555419921875" lon="-5.959129817783832550048828125">
        <ele>1914.199951171875</ele>
        <time>2022-02-23T12:51:33.000Z</time>
      </trkpt>
      <trkpt lat="43.0090726912021636962890625" lon="-5.9590133093297481536865234375">
        <ele>1920.4000244140625</ele>
        <time>2022-02-23T12:51:44.000Z</time>
      </trkpt>
      <trkpt lat="43.00907914526760578155517578125" lon="-5.9587967209517955780029296875">
        <ele>1927.800048828125</ele>
        <time>2022-02-23T12:52:05.000Z</time>
      </trkpt>
      <trkpt lat="43.00907461903989315032958984375" lon="-5.95854769460856914520263671875">
        <ele>1933.5999755859375</ele>
        <time>2022-02-23T12:52:30.000Z</time>
      </trkpt>
      <trkpt lat="43.0090634711086750030517578125" lon="-5.958300344645977020263671875">
        <ele>1937.4000244140625</ele>
        <time>2022-02-23T12:52:54.000Z</time>
      </trkpt>
      <trkpt lat="43.009055592119693756103515625" lon="-5.9580557607114315032958984375">
        <ele>1940.800048828125</ele>
        <time>2022-02-23T12:53:20.000Z</time>
      </trkpt>
      <trkpt lat="43.00907042808830738067626953125" lon="-5.95780824311077594757080078125">
        <ele>1944.199951171875</ele>
        <time>2022-02-23T12:53:42.000Z</time>
      </trkpt>
      <trkpt lat="43.0090673267841339111328125" lon="-5.9575592167675495147705078125">
        <ele>1946.4000244140625</ele>
        <time>2022-02-23T12:54:08.000Z</time>
      </trkpt>
      <trkpt lat="43.00907344557344913482666015625" lon="-5.95753516070544719696044921875">
        <ele>1947</ele>
        <time>2022-02-23T12:54:11.000Z</time>
      </trkpt>
      <trkpt lat="43.00907746888697147369384765625" lon="-5.9572899900376796722412109375">
        <ele>1950.800048828125</ele>
        <time>2022-02-23T12:54:35.000Z</time>
      </trkpt>
      <trkpt lat="43.009115941822528839111328125" lon="-5.95716702751815319061279296875">
        <ele>1954</ele>
        <time>2022-02-23T12:54:52.000Z</time>
      </trkpt>
      <trkpt lat="43.00920856185257434844970703125" lon="-5.9569523669779300689697265625">
        <ele>1961.199951171875</ele>
        <time>2022-02-23T12:55:24.000Z</time>
      </trkpt>
      <trkpt lat="43.00929053686559200286865234375" lon="-5.95674566924571990966796875">
        <ele>1968.199951171875</ele>
        <time>2022-02-23T12:56:00.000Z</time>
      </trkpt>
      <trkpt lat="43.009435124695301055908203125" lon="-5.9566767700016498565673828125">
        <ele>1974.4000244140625</ele>
        <time>2022-02-23T12:56:35.000Z</time>
      </trkpt>
      <trkpt lat="43.00949270837008953094482421875" lon="-5.956640057265758514404296875">
        <ele>1977</ele>
        <time>2022-02-23T12:56:46.000Z</time>
      </trkpt>
      <trkpt lat="43.009508885443210601806640625" lon="-5.95663561485707759857177734375">
        <ele>1977.800048828125</ele>
        <time>2022-02-23T12:56:48.000Z</time>
      </trkpt>
      <trkpt lat="43.00959647633135318756103515625" lon="-5.95645355992019176483154296875">
        <ele>1981.800048828125</ele>
        <time>2022-02-23T12:57:19.000Z</time>
      </trkpt>
      <trkpt lat="43.00960402004420757293701171875" lon="-5.95642522908747196197509765625">
        <ele>1981.800048828125</ele>
        <time>2022-02-23T12:57:23.000Z</time>
      </trkpt>
      <trkpt lat="43.00959647633135318756103515625" lon="-5.95635817386209964752197265625">
        <ele>1981</ele>
        <time>2022-02-23T12:57:31.000Z</time>
      </trkpt>
      <trkpt lat="43.00958675332367420196533203125" lon="-5.95615047030150890350341796875">
        <ele>1978.800048828125</ele>
        <time>2022-02-23T12:57:52.000Z</time>
      </trkpt>
      <trkpt lat="43.00956822931766510009765625" lon="-5.95602641813457012176513671875">
        <ele>1976.5999755859375</ele>
        <time>2022-02-23T12:58:06.000Z</time>
      </trkpt>
      <trkpt lat="43.009563200175762176513671875" lon="-5.95589515753090381622314453125">
        <ele>1975.199951171875</ele>
        <time>2022-02-23T12:58:22.000Z</time>
      </trkpt>
      <trkpt lat="43.009562529623508453369140625" lon="-5.95587101764976978302001953125">
        <ele>1975</ele>
        <time>2022-02-23T12:58:25.000Z</time>
      </trkpt>
      <trkpt lat="43.0095871724188327789306640625" lon="-5.9558035433292388916015625">
        <ele>1974.4000244140625</ele>
        <time>2022-02-23T12:58:35.000Z</time>
      </trkpt>
      <trkpt lat="43.00945666618645191192626953125" lon="-5.95586121082305908203125">
        <ele>1974.4000244140625</ele>
        <time>2022-02-23T13:26:23.000Z</time>
      </trkpt>
      <trkpt lat="43.00949773751199245452880859375" lon="-5.95586322247982025146484375">
        <ele>1974.5999755859375</ele>
        <time>2022-02-23T13:26:24.000Z</time>
      </trkpt>
      <trkpt lat="43.0096173472702503204345703125" lon="-5.95587738789618015289306640625">
        <ele>1975</ele>
        <time>2022-02-23T13:26:32.000Z</time>
      </trkpt>
      <trkpt lat="43.009630925953388214111328125" lon="-5.955869257450103759765625">
        <ele>1974.800048828125</ele>
        <time>2022-02-23T13:26:36.000Z</time>
      </trkpt>
      <trkpt lat="43.00962430424988269805908203125" lon="-5.95584318973124027252197265625">
        <ele>1974.5999755859375</ele>
        <time>2022-02-23T13:26:40.000Z</time>
      </trkpt>
      <trkpt lat="43.009643666446208953857421875" lon="-5.95584520138800144195556640625">
        <ele>1974.5999755859375</ele>
        <time>2022-02-23T13:26:43.000Z</time>
      </trkpt>
      <trkpt lat="43.00966504029929637908935546875" lon="-5.95585760660469532012939453125">
        <ele>1974.5999755859375</ele>
        <time>2022-02-23T13:26:45.000Z</time>
      </trkpt>
      <trkpt lat="43.00967811606824398040771484375" lon="-5.95586028881371021270751953125">
        <ele>1974.5999755859375</ele>
        <time>2022-02-23T13:26:46.000Z</time>
      </trkpt>
      <trkpt lat="43.009744919836521148681640625" lon="-5.95589867793023586273193359375">
        <ele>1976.199951171875</ele>
        <time>2022-02-23T13:26:52.000Z</time>
      </trkpt>
      <trkpt lat="43.00981859676539897918701171875" lon="-5.95596455968916416168212890625">
        <ele>1978.5999755859375</ele>
        <time>2022-02-23T13:26:58.000Z</time>
      </trkpt>
      <trkpt lat="43.0098912678658962249755859375" lon="-5.95602549612522125244140625">
        <ele>1981.199951171875</ele>
        <time>2022-02-23T13:27:06.000Z</time>
      </trkpt>
      <trkpt lat="43.0099341832101345062255859375" lon="-5.956041924655437469482421875">
        <ele>1982.4000244140625</ele>
        <time>2022-02-23T13:27:10.000Z</time>
      </trkpt>
      <trkpt lat="43.009965531527996063232421875" lon="-5.95603681169450283050537109375">
        <ele>1982.800048828125</ele>
        <time>2022-02-23T13:27:13.000Z</time>
      </trkpt>
      <trkpt lat="43.009985983371734619140625" lon="-5.95604024827480316162109375">
        <ele>1983.199951171875</ele>
        <time>2022-02-23T13:27:15.000Z</time>
      </trkpt>
      <trkpt lat="43.009994029998779296875" lon="-5.95604787580668926239013671875">
        <ele>1983.5999755859375</ele>
        <time>2022-02-23T13:27:16.000Z</time>
      </trkpt>
      <trkpt lat="43.010012805461883544921875" lon="-5.9560568444430828094482421875">
        <ele>1984.199951171875</ele>
        <time>2022-02-23T13:27:18.000Z</time>
      </trkpt>
      <trkpt lat="43.01007223315536975860595703125" lon="-5.95608509145677089691162109375">
        <ele>1985.800048828125</ele>
        <time>2022-02-23T13:27:25.000Z</time>
      </trkpt>
      <trkpt lat="43.0102560482919216156005859375" lon="-5.9561279229819774627685546875">
        <ele>1990.800048828125</ele>
        <time>2022-02-23T13:27:47.000Z</time>
      </trkpt>
      <trkpt lat="43.01032737828791141510009765625" lon="-5.95612197183072566986083984375">
        <ele>1992</ele>
        <time>2022-02-23T13:27:57.000Z</time>
      </trkpt>
      <trkpt lat="43.0105023086071014404296875" lon="-5.95604360103607177734375">
        <ele>1996.199951171875</ele>
        <time>2022-02-23T13:28:21.000Z</time>
      </trkpt>
      <trkpt lat="43.010621331632137298583984375" lon="-5.95617343671619892120361328125">
        <ele>2003.199951171875</ele>
        <time>2022-02-23T13:28:47.000Z</time>
      </trkpt>
      <trkpt lat="43.01061672158539295196533203125" lon="-5.956216938793659210205078125">
        <ele>2003.800048828125</ele>
        <time>2022-02-23T13:28:51.000Z</time>
      </trkpt>
      <trkpt lat="43.010613955557346343994140625" lon="-5.95623747445642948150634765625">
        <ele>2004</ele>
        <time>2022-02-23T13:28:53.000Z</time>
      </trkpt>
      <trkpt lat="43.01060666330158710479736328125" lon="-5.95627753995358943939208984375">
        <ele>2004.800048828125</ele>
        <time>2022-02-23T13:28:57.000Z</time>
      </trkpt>
      <trkpt lat="43.0106476508080959320068359375" lon="-5.9564119018614292144775390625">
        <ele>2010</ele>
        <time>2022-02-23T13:29:16.000Z</time>
      </trkpt>
      <trkpt lat="43.01067271269857883453369140625" lon="-5.95652279444038867950439453125">
        <ele>2014</ele>
        <time>2022-02-23T13:29:32.000Z</time>
      </trkpt>
      <trkpt lat="43.010678328573703765869140625" lon="-5.95653184689581394195556640625">
        <ele>2014.5999755859375</ele>
        <time>2022-02-23T13:29:34.000Z</time>
      </trkpt>
      <trkpt lat="43.0106774903833866119384765625" lon="-5.95654391683638095855712890625">
        <ele>2015</ele>
        <time>2022-02-23T13:29:36.000Z</time>
      </trkpt>
      <trkpt lat="43.01068134605884552001953125" lon="-5.9565574117004871368408203125">
        <ele>2015.5999755859375</ele>
        <time>2022-02-23T13:29:38.000Z</time>
      </trkpt>
      <trkpt lat="43.01070070825517177581787109375" lon="-5.95666562207043170928955078125">
        <ele>2020.5999755859375</ele>
        <time>2022-02-23T13:29:55.000Z</time>
      </trkpt>
      <trkpt lat="43.01072702743113040924072265625" lon="-5.95679872669279575347900390625">
        <ele>2026.800048828125</ele>
        <time>2022-02-23T13:30:13.000Z</time>
      </trkpt>
      <trkpt lat="43.01076692529022693634033203125" lon="-5.95680073834955692291259765625">
        <ele>2029</ele>
        <time>2022-02-23T13:30:22.000Z</time>
      </trkpt>
      <trkpt lat="43.010785281658172607421875" lon="-5.95678581856191158294677734375">
        <ele>2029.5999755859375</ele>
        <time>2022-02-23T13:30:25.000Z</time>
      </trkpt>
      <trkpt lat="43.010790646076202392578125" lon="-5.95677978359162807464599609375">
        <ele>2029.5999755859375</ele>
        <time>2022-02-23T13:30:26.000Z</time>
      </trkpt>
      <trkpt lat="43.0108025483787059783935546875" lon="-5.956776849925518035888671875">
        <ele>2030.199951171875</ele>
        <time>2022-02-23T13:30:28.000Z</time>
      </trkpt>
      <trkpt lat="43.0108082480728626251220703125" lon="-5.95677508972585201263427734375">
        <ele>2030.5999755859375</ele>
        <time>2022-02-23T13:30:29.000Z</time>
      </trkpt>
      <trkpt lat="43.0108126066625118255615234375" lon="-5.95677249133586883544921875">
        <ele>2030.5999755859375</ele>
        <time>2022-02-23T13:30:30.000Z</time>
      </trkpt>
      <trkpt lat="43.010817132890224456787109375" lon="-5.95677073113620281219482421875">
        <ele>2030.800048828125</ele>
        <time>2022-02-23T13:30:31.000Z</time>
      </trkpt>
      <trkpt lat="43.01083548925817012786865234375" lon="-5.956774838268756866455078125">
        <ele>2032</ele>
        <time>2022-02-23T13:30:36.000Z</time>
      </trkpt>
      <trkpt lat="43.010833561420440673828125" lon="-5.95682077109813690185546875">
        <ele>2033.199951171875</ele>
        <time>2022-02-23T13:30:44.000Z</time>
      </trkpt>
      <trkpt lat="43.0108233354985713958740234375" lon="-5.95691573806107044219970703125">
        <ele>2035.800048828125</ele>
        <time>2022-02-23T13:31:01.000Z</time>
      </trkpt>
      <trkpt lat="43.0108484812080860137939453125" lon="-5.95693409442901611328125">
        <ele>2037.800048828125</ele>
        <time>2022-02-23T13:31:08.000Z</time>
      </trkpt>
      <trkpt lat="43.01089919172227382659912109375" lon="-5.95689830370247364044189453125">
        <ele>2039.5999755859375</ele>
        <time>2022-02-23T13:31:18.000Z</time>
      </trkpt>
      <trkpt lat="43.01092333160340785980224609375" lon="-5.95690987072885036468505859375">
        <ele>2041.5999755859375</ele>
        <time>2022-02-23T13:31:27.000Z</time>
      </trkpt>
      <trkpt lat="43.0109762214124202728271484375" lon="-5.9568977169692516326904296875">
        <ele>2044.5999755859375</ele>
        <time>2022-02-23T13:31:36.000Z</time>
      </trkpt>
      <trkpt lat="43.011031709611415863037109375" lon="-5.9568789415061473846435546875">
        <ele>2047</ele>
        <time>2022-02-23T13:32:00.000Z</time>
      </trkpt>
      <trkpt lat="43.01105157472193241119384765625" lon="-5.9568645246326923370361328125">
        <ele>2047.4000244140625</ele>
        <time>2022-02-23T13:32:10.000Z</time>
      </trkpt>
      <trkpt lat="43.0111120082437992095947265625" lon="-5.95681666396558284759521484375">
        <ele>2048.800048828125</ele>
        <time>2022-02-23T13:32:21.000Z</time>
      </trkpt>
      <trkpt lat="43.01117629744112491607666015625" lon="-5.9568259678781032562255859375">
        <ele>2053</ele>
        <time>2022-02-23T13:32:36.000Z</time>
      </trkpt>
      <trkpt lat="43.0112709291279315948486328125" lon="-5.95677316188812255859375">
        <ele>2055.800048828125</ele>
        <time>2022-02-23T13:32:58.000Z</time>
      </trkpt>
      <trkpt lat="43.01144116558134555816650390625" lon="-5.95671859569847583770751953125">
        <ele>2059.800048828125</ele>
        <time>2022-02-23T13:33:30.000Z</time>
      </trkpt>
      <trkpt lat="43.0114818178117275238037109375" lon="-5.95681934617459774017333984375">
        <ele>2065.199951171875</ele>
        <time>2022-02-23T13:34:02.000Z</time>
      </trkpt>
      <trkpt lat="43.0115337856113910675048828125" lon="-5.9568796120584011077880859375">
        <ele>2070.800048828125</ele>
        <time>2022-02-23T13:34:21.000Z</time>
      </trkpt>
      <trkpt lat="43.01157611422240734100341796875" lon="-5.95689428038895130157470703125">
        <ele>2074.800048828125</ele>
        <time>2022-02-23T13:34:34.000Z</time>
      </trkpt>
      <trkpt lat="43.0116038583219051361083984375" lon="-5.956976003944873809814453125">
        <ele>2081.39990234375</ele>
        <time>2022-02-23T13:34:58.000Z</time>
      </trkpt>
      <trkpt lat="43.01166160963475704193115234375" lon="-5.9570660255849361419677734375">
        <ele>2088.39990234375</ele>
        <time>2022-02-23T13:35:56.000Z</time>
      </trkpt>
      <trkpt lat="43.011663369834423065185546875" lon="-5.95706795342266559600830078125">
        <ele>2088.39990234375</ele>
        <time>2022-02-23T13:35:57.000Z</time>
      </trkpt>
      <trkpt lat="43.0116732604801654815673828125" lon="-5.95708538778126239776611328125">
        <ele>2089.60009765625</ele>
        <time>2022-02-23T13:36:01.000Z</time>
      </trkpt>
      <trkpt lat="43.01168038509786128997802734375" lon="-5.9571119584143161773681640625">
        <ele>2091</ele>
        <time>2022-02-23T13:36:11.000Z</time>
      </trkpt>
      <trkpt lat="43.01168289966881275177001953125" lon="-5.95711313188076019287109375">
        <ele>2091.199951171875</ele>
        <time>2022-02-23T13:36:12.000Z</time>
      </trkpt>
      <trkpt lat="43.01169480197131633758544921875" lon="-5.9571111202239990234375">
        <ele>2091.800048828125</ele>
        <time>2022-02-23T13:36:17.000Z</time>
      </trkpt>
      <trkpt lat="43.0116980709135532379150390625" lon="-5.95715328119695186614990234375">
        <ele>2093.60009765625</ele>
        <time>2022-02-23T13:51:33.000Z</time>
      </trkpt>
      <trkpt lat="43.01177443005144596099853515625" lon="-5.95711153931915760040283203125">
        <ele>2096.39990234375</ele>
        <time>2022-02-23T13:51:52.000Z</time>
      </trkpt>
      <trkpt lat="43.0117979831993579864501953125" lon="-5.957113802433013916015625">
        <ele>2097.39990234375</ele>
        <time>2022-02-23T13:51:56.000Z</time>
      </trkpt>
      <trkpt lat="43.0117996595799922943115234375" lon="-5.95711271278560161590576171875">
        <ele>2097.39990234375</ele>
        <time>2022-02-23T13:51:57.000Z</time>
      </trkpt>
      <trkpt lat="43.01184014417231082916259765625" lon="-5.95712763257324695587158203125">
        <ele>2099.800048828125</ele>
        <time>2022-02-23T13:52:09.000Z</time>
      </trkpt>
      <trkpt lat="43.01185883581638336181640625" lon="-5.9571317397058010101318359375">
        <ele>2100.800048828125</ele>
        <time>2022-02-23T13:52:14.000Z</time>
      </trkpt>
      <trkpt lat="43.01188808865845203399658203125" lon="-5.95712712965905666351318359375">
        <ele>2102.199951171875</ele>
        <time>2022-02-23T13:52:20.000Z</time>
      </trkpt>
      <trkpt lat="43.011899404227733612060546875" lon="-5.957128889858722686767578125">
        <ele>2102.800048828125</ele>
        <time>2022-02-23T13:52:22.000Z</time>
      </trkpt>
      <trkpt lat="43.01190619356930255889892578125" lon="-5.95712897367775440216064453125">
        <ele>2103.199951171875</ele>
        <time>2022-02-23T13:52:24.000Z</time>
      </trkpt>
      <trkpt lat="43.01191784441471099853515625" lon="-5.95712813548743724822998046875">
        <ele>2103.800048828125</ele>
        <time>2022-02-23T13:52:26.000Z</time>
      </trkpt>
      <trkpt lat="43.01192413084208965301513671875" lon="-5.957128889858722686767578125">
        <ele>2104</ele>
        <time>2022-02-23T13:52:28.000Z</time>
      </trkpt>
      <trkpt lat="43.01193871535360813140869140625" lon="-5.957134254276752471923828125">
        <ele>2105</ele>
        <time>2022-02-23T13:52:31.000Z</time>
      </trkpt>
      <trkpt lat="43.01194240339100360870361328125" lon="-5.95713484100997447967529296875">
        <ele>2105</ele>
        <time>2022-02-23T13:52:33.000Z</time>
      </trkpt>
      <trkpt lat="43.01197308115661144256591796875" lon="-5.95713115297257900238037109375">
        <ele>2106.60009765625</ele>
        <time>2022-02-23T13:52:40.000Z</time>
      </trkpt>
      <trkpt lat="43.0120266415178775787353515625" lon="-5.95712210051715373992919921875">
        <ele>2109</ele>
        <time>2022-02-23T13:52:58.000Z</time>
      </trkpt>
      <trkpt lat="43.012083806097507476806640625" lon="-5.95712427981197834014892578125">
        <ele>2112.800048828125</ele>
        <time>2022-02-23T13:53:15.000Z</time>
      </trkpt>
      <trkpt lat="43.01224985159933567047119140625" lon="-5.95712059177458286285400390625">
        <ele>2126.199951171875</ele>
        <time>2022-02-23T13:54:10.000Z</time>
      </trkpt>
      <trkpt lat="43.0123498477041721343994140625" lon="-5.95713299699127674102783203125">
        <ele>2134.39990234375</ele>
        <time>2022-02-23T13:54:59.000Z</time>
      </trkpt>
      <trkpt lat="43.01251371391117572784423828125" lon="-5.95719485543668270111083984375">
        <ele>2143.60009765625</ele>
        <time>2022-02-23T13:56:16.000Z</time>
      </trkpt>
      <trkpt lat="43.01253148354589939117431640625" lon="-5.95720231533050537109375">
        <ele>2144.60009765625</ele>
        <time>2022-02-23T13:57:01.000Z</time>
      </trkpt>
      <trkpt lat="43.0125541985034942626953125" lon="-5.95720969140529632568359375">
        <ele>2146</ele>
        <time>2022-02-23T13:57:10.000Z</time>
      </trkpt>
      <trkpt lat="43.0125590600073337554931640625" lon="-5.95721530728042125701904296875">
        <ele>2146.39990234375</ele>
        <time>2022-02-23T13:57:12.000Z</time>
      </trkpt>
      <trkpt lat="43.01255981437861919403076171875" lon="-5.9572189114987850189208984375">
        <ele>2146.60009765625</ele>
        <time>2022-02-23T13:57:13.000Z</time>
      </trkpt>
      <trkpt lat="43.01257708109915256500244140625" lon="-5.95722846686840057373046875">
        <ele>2147.800048828125</ele>
        <time>2022-02-23T13:57:18.000Z</time>
      </trkpt>
      <trkpt lat="43.01260541193187236785888671875" lon="-5.95723844133317470550537109375">
        <ele>2149.60009765625</ele>
        <time>2022-02-23T13:57:29.000Z</time>
      </trkpt>
      <trkpt lat="43.0126197449862957000732421875" lon="-5.9572269581258296966552734375">
        <ele>2149.800048828125</ele>
        <time>2022-02-23T13:57:37.000Z</time>
      </trkpt>
      <trkpt lat="43.0126344971358776092529296875" lon="-5.95722469501197338104248046875">
        <ele>2150.60009765625</ele>
        <time>2022-02-23T13:57:46.000Z</time>
      </trkpt>
      <trkpt lat="43.01262821070849895477294921875" lon="-5.95721765421330928802490234375">
        <ele>2150</ele>
        <time>2022-02-23T13:57:54.000Z</time>
      </trkpt>
      <trkpt lat="43.0126811005175113677978515625" lon="-5.9572437219321727752685546875">
        <ele>2153.39990234375</ele>
        <time>2022-02-23T13:58:40.000Z</time>
      </trkpt>
      <trkpt lat="43.01269040443003177642822265625" lon="-5.95724917016923427581787109375">
        <ele>2154</ele>
        <time>2022-02-23T13:58:44.000Z</time>
      </trkpt>
      <trkpt lat="43.0127152986824512481689453125" lon="-5.95727800391614437103271484375">
        <ele>2156</ele>
        <time>2022-02-23T13:58:55.000Z</time>
      </trkpt>
      <trkpt lat="43.01275041885673999786376953125" lon="-5.95723995007574558258056640625">
        <ele>2156.60009765625</ele>
        <time>2022-02-23T13:59:26.000Z</time>
      </trkpt>
      <trkpt lat="43.0127511732280254364013671875" lon="-5.95724095590412616729736328125">
        <ele>2156.60009765625</ele>
        <time>2022-02-23T13:59:30.000Z</time>
      </trkpt>
      <trkpt lat="43.01275444217026233673095703125" lon="-5.9572836197912693023681640625">
        <ele>2157.800048828125</ele>
        <time>2022-02-23T14:02:07.000Z</time>
      </trkpt>
      <trkpt lat="43.01275603473186492919921875" lon="-5.95728755928575992584228515625">
        <ele>2158</ele>
        <time>2022-02-23T14:02:10.000Z</time>
      </trkpt>
      <trkpt lat="43.01274874247610569000244140625" lon="-5.9572940133512020111083984375">
        <ele>2157.800048828125</ele>
        <time>2022-02-23T14:02:14.000Z</time>
      </trkpt>
      <trkpt lat="43.01275243051350116729736328125" lon="-5.9573057480156421661376953125">
        <ele>2158.199951171875</ele>
        <time>2022-02-23T14:02:16.000Z</time>
      </trkpt>
      <trkpt lat="43.01276198588311672210693359375" lon="-5.95731572248041629791259765625">
        <ele>2158.800048828125</ele>
        <time>2022-02-23T14:02:19.000Z</time>
      </trkpt>
      <trkpt lat="43.01276617683470249176025390625" lon="-5.95731304027140140533447265625">
        <ele>2159</ele>
        <time>2022-02-23T14:02:23.000Z</time>
      </trkpt>
      <trkpt lat="43.0127722956240177154541015625" lon="-5.9573198296129703521728515625">
        <ele>2159.39990234375</ele>
        <time>2022-02-23T14:02:41.000Z</time>
      </trkpt>
      <trkpt lat="43.01277154125273227691650390625" lon="-5.95732125453650951385498046875">
        <ele>2159.39990234375</ele>
        <time>2022-02-23T14:02:49.000Z</time>
      </trkpt>
      <trkpt lat="43.01277087070047855377197265625" lon="-5.95732997171580791473388671875">
        <ele>2159.60009765625</ele>
        <time>2022-02-23T14:03:21.000Z</time>
      </trkpt>
      <trkpt lat="43.0127525143325328826904296875" lon="-5.957329384982585906982421875">
        <ele>2158.800048828125</ele>
        <time>2022-02-23T14:03:41.000Z</time>
      </trkpt>
      <trkpt lat="43.0127528496086597442626953125" lon="-5.95732930116355419158935546875">
        <ele>2158.800048828125</ele>
        <time>2022-02-23T14:03:42.000Z</time>
      </trkpt>
      <trkpt lat="43.01275259815156459808349609375" lon="-5.95732930116355419158935546875">
        <ele>2158.800048828125</ele>
        <time>2022-02-23T14:03:43.000Z</time>
      </trkpt>
      <trkpt lat="43.01275243051350116729736328125" lon="-5.9573292173445224761962890625">
        <ele>2158.800048828125</ele>
        <time>2022-02-23T14:03:44.000Z</time>
      </trkpt>
      <trkpt lat="43.01275201141834259033203125" lon="-5.9573292173445224761962890625">
        <ele>2158.800048828125</ele>
        <time>2022-02-23T14:03:45.000Z</time>
      </trkpt>
      <trkpt lat="43.01275159232318401336669921875" lon="-5.9573312290012836456298828125">
        <ele>2158.800048828125</ele>
        <time>2022-02-23T14:03:46.000Z</time>
      </trkpt>
      <trkpt lat="43.0127518437802791595458984375" lon="-5.957332067191600799560546875">
        <ele>2158.800048828125</ele>
        <time>2022-02-23T14:03:47.000Z</time>
      </trkpt>
      <trkpt lat="43.0127806775271892547607421875" lon="-5.957332067191600799560546875">
        <ele>2160</ele>
        <time>2022-02-23T14:04:00.000Z</time>
      </trkpt>
      <trkpt lat="43.0127830244600772857666015625" lon="-5.95733265392482280731201171875">
        <ele>2160.199951171875</ele>
        <time>2022-02-23T14:04:01.000Z</time>
      </trkpt>
      <trkpt lat="43.012786544859409332275390625" lon="-5.95733634196221828460693359375">
        <ele>2160.39990234375</ele>
        <time>2022-02-23T14:04:03.000Z</time>
      </trkpt>
      <trkpt lat="43.0127954296767711639404296875" lon="-5.957339107990264892578125">
        <ele>2160.800048828125</ele>
        <time>2022-02-23T14:04:06.000Z</time>
      </trkpt>
      <trkpt lat="43.0128014646470546722412109375" lon="-5.95733818598091602325439453125">
        <ele>2161</ele>
        <time>2022-02-23T14:04:08.000Z</time>
      </trkpt>
      <trkpt lat="43.01280439831316471099853515625" lon="-5.95733902417123317718505859375">
        <ele>2161.199951171875</ele>
        <time>2022-02-23T14:04:09.000Z</time>
      </trkpt>
      <trkpt lat="43.012806661427021026611328125" lon="-5.95733868889510631561279296875">
        <ele>2161.199951171875</ele>
        <time>2022-02-23T14:04:10.000Z</time>
      </trkpt>
      <trkpt lat="43.01285284571349620819091796875" lon="-5.95734380185604095458984375">
        <ele>2163.199951171875</ele>
        <time>2022-02-23T14:04:25.000Z</time>
      </trkpt>
      <trkpt lat="43.012875057756900787353515625" lon="-5.95735293813049793243408203125">
        <ele>2164.39990234375</ele>
        <time>2022-02-23T14:04:31.000Z</time>
      </trkpt>
      <trkpt lat="43.01300237886607646942138671875" lon="-5.95734187401831150054931640625">
        <ele>2170.39990234375</ele>
        <time>2022-02-23T14:06:03.000Z</time>
      </trkpt>
      <trkpt lat="43.013001792132854461669921875" lon="-5.95734271220862865447998046875">
        <ele>2170.39990234375</ele>
        <time>2022-02-23T14:06:12.000Z</time>
      </trkpt>
      <trkpt lat="43.013001792132854461669921875" lon="-5.95734304748475551605224609375">
        <ele>2170.39990234375</ele>
        <time>2022-02-23T14:06:23.000Z</time>
      </trkpt>
      <trkpt lat="43.0130230821669101715087890625" lon="-5.95735159702599048614501953125">
        <ele>2172</ele>
        <time>2022-02-23T14:06:54.000Z</time>
      </trkpt>
      <trkpt lat="43.01302400417625904083251953125" lon="-5.95735478214919567108154296875">
        <ele>2172.199951171875</ele>
        <time>2022-02-23T14:07:03.000Z</time>
      </trkpt>
      <trkpt lat="43.013033308088779449462890625" lon="-5.95736986957490444183349609375">
        <ele>2173.199951171875</ele>
        <time>2022-02-23T14:07:11.000Z</time>
      </trkpt>
      <trkpt lat="43.01303456537425518035888671875" lon="-5.95737104304134845733642578125">
        <ele>2173.199951171875</ele>
        <time>2022-02-23T14:07:12.000Z</time>
      </trkpt>
      <trkpt lat="43.01303506828844547271728515625" lon="-5.95737221650779247283935546875">
        <ele>2173.199951171875</ele>
        <time>2022-02-23T14:07:13.000Z</time>
      </trkpt>
      <trkpt lat="43.0130425281822681427001953125" lon="-5.95738361589610576629638671875">
        <ele>2174</ele>
        <time>2022-02-23T14:07:18.000Z</time>
      </trkpt>
      <trkpt lat="43.01305518485605716705322265625" lon="-5.9573966078460216522216796875">
        <ele>2175.199951171875</ele>
        <time>2022-02-23T14:07:22.000Z</time>
      </trkpt>
      <trkpt lat="43.01306239329278469085693359375" lon="-5.95739853568375110626220703125">
        <ele>2175.60009765625</ele>
        <time>2022-02-23T14:07:24.000Z</time>
      </trkpt>
      <trkpt lat="43.01306851208209991455078125" lon="-5.9574002958834171295166015625">
        <ele>2176</ele>
        <time>2022-02-23T14:07:26.000Z</time>
      </trkpt>
      <trkpt lat="43.01307915709912776947021484375" lon="-5.95741446129977703094482421875">
        <ele>2177</ele>
        <time>2022-02-23T14:07:30.000Z</time>
      </trkpt>
      <trkpt lat="43.0130834318697452545166015625" lon="-5.95741731114685535430908203125">
        <ele>2177.39990234375</ele>
        <time>2022-02-23T14:07:32.000Z</time>
      </trkpt>
      <trkpt lat="43.0130867846310138702392578125" lon="-5.95741965807974338531494140625">
        <ele>2177.60009765625</ele>
        <time>2022-02-23T14:07:33.000Z</time>
      </trkpt>
      <trkpt lat="43.01308552734553813934326171875" lon="-5.95742183737456798553466796875">
        <ele>2177.60009765625</ele>
        <time>2022-02-23T14:07:36.000Z</time>
      </trkpt>
      <trkpt lat="43.013092987239360809326171875" lon="-5.95744614489376544952392578125">
        <ele>2178.800048828125</ele>
        <time>2022-02-23T14:07:43.000Z</time>
      </trkpt>
      <trkpt lat="43.01311301998794078826904296875" lon="-5.9574727155268192291259765625">
        <ele>2181</ele>
        <time>2022-02-23T14:07:56.000Z</time>
      </trkpt>
      <trkpt lat="43.01315300166606903076171875" lon="-5.957538597285747528076171875">
        <ele>2185.800048828125</ele>
        <time>2022-02-23T14:09:02.000Z</time>
      </trkpt>
      <trkpt lat="43.01320371218025684356689453125" lon="-5.9576864540576934814453125">
        <ele>2193.39990234375</ele>
        <time>2022-02-23T14:11:11.000Z</time>
      </trkpt>
      <trkpt lat="43.01321662031114101409912109375" lon="-5.95768469385802745819091796875">
        <ele>2194.60009765625</ele>
        <time>2022-02-23T14:11:55.000Z</time>
      </trkpt>
      <trkpt lat="43.013218380510807037353515625" lon="-5.95768653787672519683837890625">
        <ele>2194.800048828125</ele>
        <time>2022-02-23T14:11:56.000Z</time>
      </trkpt>
      <trkpt lat="43.0132219009101390838623046875" lon="-5.95768980681896209716796875">
        <ele>2195.199951171875</ele>
        <time>2022-02-23T14:12:01.000Z</time>
      </trkpt>
      <trkpt lat="43.0132220685482025146484375" lon="-5.95769106410443782806396484375">
        <ele>2195.199951171875</ele>
        <time>2022-02-23T14:12:03.000Z</time>
      </trkpt>
      <trkpt lat="43.0132220685482025146484375" lon="-5.95769173465669155120849609375">
        <ele>2195.199951171875</ele>
        <time>2022-02-23T14:12:05.000Z</time>
      </trkpt>
      <trkpt lat="43.01322877407073974609375" lon="-5.95770179294049739837646484375">
        <ele>2196</ele>
        <time>2022-02-23T14:12:19.000Z</time>
      </trkpt>
      <trkpt lat="43.013226427137851715087890625" lon="-5.957697518169879913330078125">
        <ele>2195.60009765625</ele>
        <time>2022-02-23T14:12:31.000Z</time>
      </trkpt>
      <trkpt lat="43.01337906159460544586181640625" lon="-5.9576732106506824493408203125">
        <ele>2209.60009765625</ele>
        <time>2022-02-23T14:13:53.000Z</time>
      </trkpt>
      <trkpt lat="43.01339708268642425537109375" lon="-5.95763926394283771514892578125">
        <ele>2210.800048828125</ele>
        <time>2022-02-23T14:14:03.000Z</time>
      </trkpt>
      <trkpt lat="43.013424575328826904296875" lon="-5.957628451287746429443359375">
        <ele>2213.199951171875</ele>
        <time>2022-02-23T14:14:16.000Z</time>
      </trkpt>
      <trkpt lat="43.01345206797122955322265625" lon="-5.9576554410159587860107421875">
        <ele>2216.199951171875</ele>
        <time>2022-02-23T14:14:36.000Z</time>
      </trkpt>
      <trkpt lat="43.0134814046323299407958984375" lon="-5.9576715342700481414794921875">
        <ele>2219</ele>
        <time>2022-02-23T14:15:08.000Z</time>
      </trkpt>
      <trkpt lat="43.01360285840928554534912109375" lon="-5.95774772576987743377685546875">
        <ele>2228.800048828125</ele>
        <time>2022-02-23T14:16:49.000Z</time>
      </trkpt>
      <trkpt lat="43.01364460028707981109619140625" lon="-5.9577620588243007659912109375">
        <ele>2232</ele>
        <time>2022-02-23T14:17:37.000Z</time>
      </trkpt>
      <trkpt lat="43.013707883656024932861328125" lon="-5.95774135552346706390380859375">
        <ele>2236.39990234375</ele>
        <time>2022-02-23T14:18:18.000Z</time>
      </trkpt>
      <trkpt lat="43.01369623281061649322509765625" lon="-5.9576996974647045135498046875">
        <ele>2234.800048828125</ele>
        <time>2022-02-23T14:18:22.000Z</time>
      </trkpt>
      <trkpt lat="43.01369807682931423187255859375" lon="-5.95770481042563915252685546875">
        <ele>2235.199951171875</ele>
        <time>2022-02-23T14:18:30.000Z</time>
      </trkpt>
      <trkpt lat="43.0137090571224689483642578125" lon="-5.957681424915790557861328125">
        <ele>2235.60009765625</ele>
        <time>2022-02-23T14:18:50.000Z</time>
      </trkpt>
      <trkpt lat="43.01371517591178417205810546875" lon="-5.9576490707695484161376953125">
        <ele>2235.60009765625</ele>
        <time>2022-02-23T14:19:10.000Z</time>
      </trkpt>
      <trkpt lat="43.0137513019144535064697265625" lon="-5.95762141048908233642578125">
        <ele>2237.60009765625</ele>
        <time>2022-02-23T14:19:39.000Z</time>
      </trkpt>
      <trkpt lat="43.013896979391574859619140625" lon="-5.9575523436069488525390625">
        <ele>2243.800048828125</ele>
        <time>2022-02-23T14:20:51.000Z</time>
      </trkpt>
      <trkpt lat="43.013962693512439727783203125" lon="-5.9575075842440128326416015625">
        <ele>2246.199951171875</ele>
        <time>2022-02-23T14:21:58.000Z</time>
      </trkpt>
      <trkpt lat="43.0140141583979129791259765625" lon="-5.9575903974473476409912109375">
        <ele>2251.199951171875</ele>
        <time>2022-02-23T14:23:33.000Z</time>
      </trkpt>
      <trkpt lat="43.01401340402662754058837890625" lon="-5.95759651623666286468505859375">
        <ele>2251.199951171875</ele>
        <time>2022-02-23T14:23:38.000Z</time>
      </trkpt>
      <trkpt lat="43.01401323638856410980224609375" lon="-5.9575974382460117340087890625">
        <ele>2251.199951171875</ele>
        <time>2022-02-23T14:23:39.000Z</time>
      </trkpt>
      <trkpt lat="43.0140141583979129791259765625" lon="-5.95759861171245574951171875">
        <ele>2251.39990234375</ele>
        <time>2022-02-23T14:23:40.000Z</time>
      </trkpt>
      <trkpt lat="43.0140175111591815948486328125" lon="-5.957599617540836334228515625">
        <ele>2251.60009765625</ele>
        <time>2022-02-23T14:23:45.000Z</time>
      </trkpt>
      <trkpt lat="43.01401826553046703338623046875" lon="-5.95760372467339038848876953125">
        <ele>2251.60009765625</ele>
        <time>2022-02-23T14:23:49.000Z</time>
      </trkpt>
      <trkpt lat="43.01401910372078418731689453125" lon="-5.95760523341596126556396484375">
        <ele>2251.800048828125</ele>
        <time>2022-02-23T14:23:50.000Z</time>
      </trkpt>
      <trkpt lat="43.01401935517787933349609375" lon="-5.9576058201491832733154296875">
        <ele>2251.800048828125</ele>
        <time>2022-02-23T14:23:51.000Z</time>
      </trkpt>
      <trkpt lat="43.01402111537754535675048828125" lon="-5.9576118551194667816162109375">
        <ele>2252</ele>
        <time>2022-02-23T14:23:58.000Z</time>
      </trkpt>
      <trkpt lat="43.01405732519924640655517578125" lon="-5.95761604607105255126953125">
        <ele>2253.800048828125</ele>
        <time>2022-02-23T14:24:25.000Z</time>
      </trkpt>
      <trkpt lat="43.01406503655016422271728515625" lon="-5.9576168842613697052001953125">
        <ele>2254.199951171875</ele>
        <time>2022-02-23T14:24:36.000Z</time>
      </trkpt>
      <trkpt lat="43.01405598409473896026611328125" lon="-5.95761076547205448150634765625">
        <ele>2253.60009765625</ele>
        <time>2022-02-23T14:24:44.000Z</time>
      </trkpt>
      <trkpt lat="43.01405715756118297576904296875" lon="-5.95760741271078586578369140625">
        <ele>2253.60009765625</ele>
        <time>2022-02-23T14:24:50.000Z</time>
      </trkpt>
      <trkpt lat="43.01407434046268463134765625" lon="-5.95760104246437549591064453125">
        <ele>2254.199951171875</ele>
        <time>2022-02-23T14:25:15.000Z</time>
      </trkpt>
      <trkpt lat="43.014063946902751922607421875" lon="-5.9576007910072803497314453125">
        <ele>2253.800048828125</ele>
        <time>2022-02-23T14:25:55.000Z</time>
      </trkpt>
      <trkpt lat="43.01406855694949626922607421875" lon="-5.95760271884500980377197265625">
        <ele>2254</ele>
        <time>2022-02-23T14:26:15.000Z</time>
      </trkpt>
      <trkpt lat="43.01406419835984706878662109375" lon="-5.9575960971415042877197265625">
        <ele>2253.60009765625</ele>
        <time>2022-02-23T14:26:21.000Z</time>
      </trkpt>
      <trkpt lat="43.01406369544565677642822265625" lon="-5.95759618096053600311279296875">
        <ele>2253.60009765625</ele>
        <time>2022-02-23T14:26:22.000Z</time>
      </trkpt>
      <trkpt lat="43.0140637792646884918212890625" lon="-5.95759819261729717254638671875">
        <ele>2253.60009765625</ele>
        <time>2022-02-23T14:26:28.000Z</time>
      </trkpt>
      <trkpt lat="43.01406268961727619171142578125" lon="-5.95759056508541107177734375">
        <ele>2253.39990234375</ele>
        <time>2022-02-23T14:26:34.000Z</time>
      </trkpt>
      <trkpt lat="43.01406168378889560699462890625" lon="-5.95758981071412563323974609375">
        <ele>2253.39990234375</ele>
        <time>2022-02-23T14:26:35.000Z</time>
      </trkpt>
      <trkpt lat="43.0140604265034198760986328125" lon="-5.95758846960961818695068359375">
        <ele>2253.199951171875</ele>
        <time>2022-02-23T14:26:36.000Z</time>
      </trkpt>
      <trkpt lat="43.01405967213213443756103515625" lon="-5.9575880505144596099853515625">
        <ele>2253.199951171875</ele>
        <time>2022-02-23T14:26:37.000Z</time>
      </trkpt>
      <trkpt lat="43.01405422389507293701171875" lon="-5.95758444629609584808349609375">
        <ele>2252.800048828125</ele>
        <time>2022-02-23T14:26:40.000Z</time>
      </trkpt>
      <trkpt lat="43.0140520446002483367919921875" lon="-5.957583524286746978759765625">
        <ele>2252.800048828125</ele>
        <time>2022-02-23T14:26:41.000Z</time>
      </trkpt>
      <trkpt lat="43.01405145786702632904052734375" lon="-5.95758310519158840179443359375">
        <ele>2252.800048828125</ele>
        <time>2022-02-23T14:26:43.000Z</time>
      </trkpt>
      <trkpt lat="43.01405095495283603668212890625" lon="-5.95758276991546154022216796875">
        <ele>2252.800048828125</ele>
        <time>2022-02-23T14:26:44.000Z</time>
      </trkpt>
      <trkpt lat="43.01405112259089946746826171875" lon="-5.95758276991546154022216796875">
        <ele>2252.800048828125</ele>
        <time>2022-02-23T14:26:46.000Z</time>
      </trkpt>
      <trkpt lat="43.01405556499958038330078125" lon="-5.957584865391254425048828125">
        <ele>2253</ele>
        <time>2022-02-23T14:26:56.000Z</time>
      </trkpt>
      <trkpt lat="43.01406872458755970001220703125" lon="-5.95758520066738128662109375">
        <ele>2253.60009765625</ele>
        <time>2022-02-23T14:27:25.000Z</time>
      </trkpt>
      <trkpt lat="43.0140795372426509857177734375" lon="-5.95758746378123760223388671875">
        <ele>2254</ele>
        <time>2022-02-23T14:27:35.000Z</time>
      </trkpt>
      <trkpt lat="43.0140855722129344940185546875" lon="-5.957607328891754150390625">
        <ele>2255</ele>
        <time>2022-02-23T14:28:03.000Z</time>
      </trkpt>
      <trkpt lat="43.01409286446869373321533203125" lon="-5.957664661109447479248046875">
        <ele>2256.60009765625</ele>
        <time>2022-02-23T14:28:16.000Z</time>
      </trkpt>
      <trkpt lat="43.01409202627837657928466796875" lon="-5.957667343318462371826171875">
        <ele>2256.60009765625</ele>
        <time>2022-02-23T14:28:18.000Z</time>
      </trkpt>
      <trkpt lat="43.0140916071832180023193359375" lon="-5.95766910351812839508056640625">
        <ele>2256.800048828125</ele>
        <time>2022-02-23T14:28:19.000Z</time>
      </trkpt>
      <trkpt lat="43.01409722305834293365478515625" lon="-5.95768704079091548919677734375">
        <ele>2257.39990234375</ele>
        <time>2022-02-23T14:28:25.000Z</time>
      </trkpt>
      <trkpt lat="43.0140942893922328948974609375" lon="-5.95770229585468769073486328125">
        <ele>2257.60009765625</ele>
        <time>2022-02-23T14:28:30.000Z</time>
      </trkpt>
      <trkpt lat="43.014092780649662017822265625" lon="-5.95770447514951229095458984375">
        <ele>2257.60009765625</ele>
        <time>2022-02-23T14:28:31.000Z</time>
      </trkpt>
      <trkpt lat="43.01409102044999599456787109375" lon="-5.95771419815719127655029296875">
        <ele>2257.60009765625</ele>
        <time>2022-02-23T14:28:33.000Z</time>
      </trkpt>
      <trkpt lat="43.014090768992900848388671875" lon="-5.95771721564233303070068359375">
        <ele>2257.800048828125</ele>
        <time>2022-02-23T14:28:34.000Z</time>
      </trkpt>
      <trkpt lat="43.0140911042690277099609375" lon="-5.95772056840360164642333984375">
        <ele>2257.800048828125</ele>
        <time>2022-02-23T14:28:35.000Z</time>
      </trkpt>
      <trkpt lat="43.0140885896980762481689453125" lon="-5.95772576518356800079345703125">
        <ele>2257.800048828125</ele>
        <time>2022-02-23T14:28:37.000Z</time>
      </trkpt>
      <trkpt lat="43.01410962827503681182861328125" lon="-5.9577580355107784271240234375">
        <ele>2259.39990234375</ele>
        <time>2022-02-23T14:28:58.000Z</time>
      </trkpt>
      <trkpt lat="43.01410543732345104217529296875" lon="-5.9577623941004276275634765625">
        <ele>2259.39990234375</ele>
        <time>2022-02-23T14:29:01.000Z</time>
      </trkpt>
      <trkpt lat="43.01411348395049571990966796875" lon="-5.957910753786563873291015625">
        <ele>2263.39990234375</ele>
        <time>2022-02-23T14:30:22.000Z</time>
      </trkpt>
      <trkpt lat="43.01413192413747310638427734375" lon="-5.95798493362963199615478515625">
        <ele>2265.60009765625</ele>
        <time>2022-02-23T14:30:44.000Z</time>
      </trkpt>
      <trkpt lat="43.01427558995783329010009765625" lon="-5.95809171907603740692138671875">
        <ele>2276.60009765625</ele>
        <time>2022-02-23T14:31:53.000Z</time>
      </trkpt>
      <trkpt lat="43.01428078673779964447021484375" lon="-5.9581047110259532928466796875">
        <ele>2277.199951171875</ele>
        <time>2022-02-23T14:32:22.000Z</time>
      </trkpt>
      <trkpt lat="43.01429503597319126129150390625" lon="-5.9580966643989086151123046875">
        <ele>2277.800048828125</ele>
        <time>2022-02-23T14:32:39.000Z</time>
      </trkpt>
      <trkpt lat="43.01429168321192264556884765625" lon="-5.95810362137854099273681640625">
        <ele>2277.800048828125</ele>
        <time>2022-02-23T14:32:51.000Z</time>
      </trkpt>
      <trkpt lat="43.014395199716091156005859375" lon="-5.95814888365566730499267578125">
        <ele>2285.199951171875</ele>
        <time>2022-02-23T14:34:00.000Z</time>
      </trkpt>
      <trkpt lat="43.014558814465999603271484375" lon="-5.958051569759845733642578125">
        <ele>2292</ele>
        <time>2022-02-23T14:35:01.000Z</time>
      </trkpt>
      <trkpt lat="43.0147252790629863739013671875" lon="-5.95796783454716205596923828125">
        <ele>2301.39990234375</ele>
        <time>2022-02-23T14:35:53.000Z</time>
      </trkpt>
      <trkpt lat="43.0148191563785076141357421875" lon="-5.95790329389274120330810546875">
        <ele>2306.39990234375</ele>
        <time>2022-02-23T14:36:32.000Z</time>
      </trkpt>
      <trkpt lat="43.01487573422491550445556640625" lon="-5.95782903023064136505126953125">
        <ele>2306.199951171875</ele>
        <time>2022-02-23T14:37:48.000Z</time>
      </trkpt>
      <trkpt lat="43.01487690769135951995849609375" lon="-5.957834310829639434814453125">
        <ele>2306.800048828125</ele>
        <time>2022-02-23T14:37:59.000Z</time>
      </trkpt>
      <trkpt lat="43.014874644577503204345703125" lon="-5.95783020369708538055419921875">
        <ele>2306.199951171875</ele>
        <time>2022-02-23T14:38:06.000Z</time>
      </trkpt>
      <trkpt lat="43.01487707532942295074462890625" lon="-5.95783355645835399627685546875">
        <ele>2306.60009765625</ele>
        <time>2022-02-23T14:38:11.000Z</time>
      </trkpt>
      <trkpt lat="43.01488093100488185882568359375" lon="-5.9578358195722103118896484375">
        <ele>2307.199951171875</ele>
        <time>2022-02-23T14:38:12.000Z</time>
      </trkpt>
      <trkpt lat="43.014883361756801605224609375" lon="-5.95783757977187633514404296875">
        <ele>2307.60009765625</ele>
        <time>2022-02-23T14:38:13.000Z</time>
      </trkpt>
      <trkpt lat="43.01488311029970645904541015625" lon="-5.957838334143161773681640625">
        <ele>2307.60009765625</ele>
        <time>2022-02-23T14:38:14.000Z</time>
      </trkpt>
      <trkpt lat="43.014883361756801605224609375" lon="-5.95783841796219348907470703125">
        <ele>2307.60009765625</ele>
        <time>2022-02-23T14:38:15.000Z</time>
      </trkpt>
      <trkpt lat="43.01487405784428119659423828125" lon="-5.9578442014753818511962890625">
        <ele>2307</ele>
        <time>2022-02-23T14:38:20.000Z</time>
      </trkpt>
      <trkpt lat="43.014873974025249481201171875" lon="-5.95784663222730159759521484375">
        <ele>2307.199951171875</ele>
        <time>2022-02-23T14:38:22.000Z</time>
      </trkpt>
      <trkpt lat="43.01486969925463199615478515625" lon="-5.9578462131321430206298828125">
        <ele>2306.800048828125</ele>
        <time>2022-02-23T14:38:24.000Z</time>
      </trkpt>
      <trkpt lat="43.014866597950458526611328125" lon="-5.95784713514149188995361328125">
        <ele>2306.60009765625</ele>
        <time>2022-02-23T14:38:26.000Z</time>
      </trkpt>
      <trkpt lat="43.01486550830304622650146484375" lon="-5.95784747041761875152587890625">
        <ele>2306.60009765625</ele>
        <time>2022-02-23T14:38:28.000Z</time>
      </trkpt>
      <trkpt lat="43.01486819051206111907958984375" lon="-5.9578488953411579132080078125">
        <ele>2306.800048828125</ele>
        <time>2022-02-23T14:38:31.000Z</time>
      </trkpt>
      <trkpt lat="43.01486953161656856536865234375" lon="-5.957858450710773468017578125">
        <ele>2307.60009765625</ele>
        <time>2022-02-23T14:38:35.000Z</time>
      </trkpt>
      <trkpt lat="43.0148694477975368499755859375" lon="-5.95785677433013916015625">
        <ele>2307.39990234375</ele>
        <time>2022-02-23T14:38:36.000Z</time>
      </trkpt>
      <trkpt lat="43.0148707889020442962646484375" lon="-5.95785635523498058319091796875">
        <ele>2307.60009765625</ele>
        <time>2022-02-23T14:38:37.000Z</time>
      </trkpt>
      <trkpt lat="43.01486617885529994964599609375" lon="-5.95784805715084075927734375">
        <ele>2306.60009765625</ele>
        <time>2022-02-23T14:38:47.000Z</time>
      </trkpt>
      <trkpt lat="43.01490171812474727630615234375" lon="-5.95783255062997341156005859375">
        <ele>2308.800048828125</ele>
        <time>2022-02-23T14:39:02.000Z</time>
      </trkpt>
      <trkpt lat="43.01490490324795246124267578125" lon="-5.957830958068370819091796875">
        <ele>2309</ele>
        <time>2022-02-23T14:39:04.000Z</time>
      </trkpt>
      <trkpt lat="43.0149090103805065155029296875" lon="-5.95782701857388019561767578125">
        <ele>2309.199951171875</ele>
        <time>2022-02-23T14:39:06.000Z</time>
      </trkpt>
      <trkpt lat="43.014914877712726593017578125" lon="-5.95782668329775333404541015625">
        <ele>2309.60009765625</ele>
        <time>2022-02-23T14:39:08.000Z</time>
      </trkpt>
      <trkpt lat="43.01491546444594860076904296875" lon="-5.9578267671167850494384765625">
        <ele>2309.800048828125</ele>
        <time>2022-02-23T14:39:09.000Z</time>
      </trkpt>
      <trkpt lat="43.01492200233042240142822265625" lon="-5.957819558680057525634765625">
        <ele>2309.800048828125</ele>
        <time>2022-02-23T14:39:13.000Z</time>
      </trkpt>
      <trkpt lat="43.0149185657501220703125" lon="-5.9578163735568523406982421875">
        <ele>2309.39990234375</ele>
        <time>2022-02-23T14:39:17.000Z</time>
      </trkpt>
      <trkpt lat="43.01492250524461269378662109375" lon="-5.95781385898590087890625">
        <ele>2309.60009765625</ele>
        <time>2022-02-23T14:39:18.000Z</time>
      </trkpt>
      <trkpt lat="43.01495938561856746673583984375" lon="-5.9577925689518451690673828125">
        <ele>2311.60009765625</ele>
        <time>2022-02-23T14:39:31.000Z</time>
      </trkpt>
      <trkpt lat="43.01504739560186862945556640625" lon="-5.9577385894954204559326171875">
        <ele>2316</ele>
        <time>2022-02-23T14:40:13.000Z</time>
      </trkpt>
      <trkpt lat="43.01504395902156829833984375" lon="-5.9577084146440029144287109375">
        <ele>2314</ele>
        <time>2022-02-23T14:40:42.000Z</time>
      </trkpt>
      <trkpt lat="43.01508410833775997161865234375" lon="-5.957727022469043731689453125">
        <ele>2318.39990234375</ele>
        <time>2022-02-23T14:41:08.000Z</time>
      </trkpt>
      <trkpt lat="43.01515183411538600921630859375" lon="-5.95775258727371692657470703125">
        <ele>2325</ele>
        <time>2022-02-23T14:42:08.000Z</time>
      </trkpt>
      <trkpt lat="43.01517027430236339569091796875" lon="-5.95774638466536998748779296875">
        <ele>2326</ele>
        <time>2022-02-23T14:42:20.000Z</time>
      </trkpt>
      <trkpt lat="43.01518184132874011993408203125" lon="-5.95775392837822437286376953125">
        <ele>2327.39990234375</ele>
        <time>2022-02-23T14:42:27.000Z</time>
      </trkpt>
      <trkpt lat="43.01520145498216152191162109375" lon="-5.95775292254984378814697265625">
        <ele>2328.800048828125</ele>
        <time>2022-02-23T14:42:41.000Z</time>
      </trkpt>
      <trkpt lat="43.01525359041988849639892578125" lon="-5.957800112664699554443359375">
        <ele>2335</ele>
        <time>2022-02-23T14:43:48.000Z</time>
      </trkpt>
      <trkpt lat="43.01526247523725032806396484375" lon="-5.95779298804700374603271484375">
        <ele>2335.39990234375</ele>
        <time>2022-02-23T14:43:53.000Z</time>
      </trkpt>
      <trkpt lat="43.0153016187250614166259765625" lon="-5.9578542597591876983642578125">
        <ele>2340.60009765625</ele>
        <time>2022-02-23T14:45:00.000Z</time>
      </trkpt>
      <trkpt lat="43.0153800733387470245361328125" lon="-5.95802147872745990753173828125">
        <ele>2351.39990234375</ele>
        <time>2022-02-23T14:46:50.000Z</time>
      </trkpt>
      <trkpt lat="43.0153723619878292083740234375" lon="-5.9580990113317966461181640625">
        <ele>2353</ele>
        <time>2022-02-23T14:47:23.000Z</time>
      </trkpt>
      <trkpt lat="43.01538082771003246307373046875" lon="-5.9580949880182743072509765625">
        <ele>2353.60009765625</ele>
        <time>2022-02-23T14:47:26.000Z</time>
      </trkpt>
      <trkpt lat="43.015382923185825347900390625" lon="-5.9580953232944011688232421875">
        <ele>2353.800048828125</ele>
        <time>2022-02-23T14:47:28.000Z</time>
      </trkpt>
      <trkpt lat="43.01538535393774509429931640625" lon="-5.95810244791209697723388671875">
        <ele>2354.199951171875</ele>
        <time>2022-02-23T14:47:32.000Z</time>
      </trkpt>
      <trkpt lat="43.0154169537127017974853515625" lon="-5.95816246233880519866943359375">
        <ele>2358.199951171875</ele>
        <time>2022-02-23T14:47:58.000Z</time>
      </trkpt>
      <trkpt lat="43.01542810164391994476318359375" lon="-5.95815558917820453643798828125">
        <ele>2358.39990234375</ele>
        <time>2022-02-23T14:51:31.000Z</time>
      </trkpt>
      <trkpt lat="43.015484847128391265869140625" lon="-5.958083756268024444580078125">
        <ele>2358.39990234375</ele>
        <time>2022-02-23T14:51:59.000Z</time>
      </trkpt>
      <trkpt lat="43.01561937667429447174072265625" lon="-5.95798728056252002716064453125">
        <ele>2360.60009765625</ele>
        <time>2022-02-23T14:52:29.000Z</time>
      </trkpt>
      <trkpt lat="43.01566413603723049163818359375" lon="-5.95797772519290447235107421875">
        <ele>2361.800048828125</ele>
        <time>2022-02-23T14:52:39.000Z</time>
      </trkpt>
      <trkpt lat="43.01568995229899883270263671875" lon="-5.95798778347671031951904296875">
        <ele>2363</ele>
        <time>2022-02-23T14:52:43.000Z</time>
      </trkpt>
      <trkpt lat="43.0157411657273769378662109375" lon="-5.9580047987401485443115234375">
        <ele>2364.800048828125</ele>
        <time>2022-02-23T14:52:51.000Z</time>
      </trkpt>
      <trkpt lat="43.0157810635864734649658203125" lon="-5.95802332274615764617919921875">
        <ele>2366.199951171875</ele>
        <time>2022-02-23T14:52:58.000Z</time>
      </trkpt>
      <trkpt lat="43.0159282498061656951904296875" lon="-5.95815190114080905914306640625">
        <ele>2369.39990234375</ele>
        <time>2022-02-23T14:53:46.000Z</time>
      </trkpt>
      <trkpt lat="43.01594509743154048919677734375" lon="-5.95816464163362979888916015625">
        <ele>2369.60009765625</ele>
        <time>2022-02-23T14:53:52.000Z</time>
      </trkpt>
      <trkpt lat="43.0159641243517398834228515625" lon="-5.958170928061008453369140625">
        <ele>2369.800048828125</ele>
        <time>2022-02-23T14:53:56.000Z</time>
      </trkpt>
      <trkpt lat="43.0159699916839599609375" lon="-5.95817687921226024627685546875">
        <ele>2370</ele>
        <time>2022-02-23T14:53:57.000Z</time>
      </trkpt>
      <trkpt lat="43.01602908410131931304931640625" lon="-5.9581560082733631134033203125">
        <ele>2368.800048828125</ele>
        <time>2022-02-23T14:54:09.000Z</time>
      </trkpt>
      <trkpt lat="43.016032688319683074951171875" lon="-5.9581509791314601898193359375">
        <ele>2368.800048828125</ele>
        <time>2022-02-23T14:54:10.000Z</time>
      </trkpt>
      <trkpt lat="43.0160375498235225677490234375" lon="-5.9581459499895572662353515625">
        <ele>2368.800048828125</ele>
        <time>2022-02-23T14:54:12.000Z</time>
      </trkpt>
      <trkpt lat="43.0161039344966411590576171875" lon="-5.95807445235550403594970703125">
        <ele>2367.800048828125</ele>
        <time>2022-02-23T14:54:51.000Z</time>
      </trkpt>
      <trkpt lat="43.0161042697727680206298828125" lon="-5.958054922521114349365234375">
        <ele>2368.199951171875</ele>
        <time>2022-02-23T14:54:58.000Z</time>
      </trkpt>
      <trkpt lat="43.01616914570331573486328125" lon="-5.957898013293743133544921875">
        <ele>2366.39990234375</ele>
        <time>2022-02-23T14:55:27.000Z</time>
      </trkpt>
      <trkpt lat="43.016292192041873931884765625" lon="-5.95771386288106441497802734375">
        <ele>2368</ele>
        <time>2022-02-23T14:55:59.000Z</time>
      </trkpt>
      <trkpt lat="43.01637525670230388641357421875" lon="-5.9576862864196300506591796875">
        <ele>2369.39990234375</ele>
        <time>2022-02-23T14:56:16.000Z</time>
      </trkpt>
      <trkpt lat="43.01652931608259677886962890625" lon="-5.95755427144467830657958984375">
        <ele>2371.60009765625</ele>
        <time>2022-02-23T14:56:49.000Z</time>
      </trkpt>
      <trkpt lat="43.0165506899356842041015625" lon="-5.957511104643344879150390625">
        <ele>2372.199951171875</ele>
        <time>2022-02-23T14:56:57.000Z</time>
      </trkpt>
      <trkpt lat="43.01665605045855045318603515625" lon="-5.9574623219668865203857421875">
        <ele>2375</ele>
        <time>2022-02-23T14:57:20.000Z</time>
      </trkpt>
      <trkpt lat="43.016707599163055419921875" lon="-5.95744195394217967987060546875">
        <ele>2376.39990234375</ele>
        <time>2022-02-23T14:57:29.000Z</time>
      </trkpt>
      <trkpt lat="43.01688822917640209197998046875" lon="-5.957397781312465667724609375">
        <ele>2379.800048828125</ele>
        <time>2022-02-23T14:58:09.000Z</time>
      </trkpt>
      <trkpt lat="43.01692284643650054931640625" lon="-5.95736299641430377960205078125">
        <ele>2380.800048828125</ele>
        <time>2022-02-23T14:58:16.000Z</time>
      </trkpt>
      <trkpt lat="43.0170629918575286865234375" lon="-5.95721296034753322601318359375">
        <ele>2382</ele>
        <time>2022-02-23T14:58:53.000Z</time>
      </trkpt>
      <trkpt lat="43.0172212421894073486328125" lon="-5.9571008943021297454833984375">
        <ele>2384.60009765625</ele>
        <time>2022-02-23T14:59:46.000Z</time>
      </trkpt>
      <trkpt lat="43.0173602141439914703369140625" lon="-5.9570159018039703369140625">
        <ele>2387</ele>
        <time>2022-02-23T15:00:09.000Z</time>
      </trkpt>
      <trkpt lat="43.01740027964115142822265625" lon="-5.9570006467401981353759765625">
        <ele>2387.800048828125</ele>
        <time>2022-02-23T15:00:14.000Z</time>
      </trkpt>
      <trkpt lat="43.01740673370659351348876953125" lon="-5.95699721015989780426025390625">
        <ele>2387.800048828125</ele>
        <time>2022-02-23T15:00:15.000Z</time>
      </trkpt>
      <trkpt lat="43.01741293631494045257568359375" lon="-5.9569966234266757965087890625">
        <ele>2388</ele>
        <time>2022-02-23T15:00:16.000Z</time>
      </trkpt>
      <trkpt lat="43.0175288580358028411865234375" lon="-5.95694188959896564483642578125">
        <ele>2388.800048828125</ele>
        <time>2022-02-23T15:00:36.000Z</time>
      </trkpt>
      <trkpt lat="43.01768987439572811126708984375" lon="-5.95693518407642841339111328125">
        <ele>2388.39990234375</ele>
        <time>2022-02-23T15:01:00.000Z</time>
      </trkpt>
      <trkpt lat="43.01785198040306568145751953125" lon="-5.9568296559154987335205078125">
        <ele>2388.800048828125</ele>
        <time>2022-02-23T15:01:22.000Z</time>
      </trkpt>
      <trkpt lat="43.0179668962955474853515625" lon="-5.95680291764438152313232421875">
        <ele>2387.39990234375</ele>
        <time>2022-02-23T15:01:39.000Z</time>
      </trkpt>
      <trkpt lat="43.01813595928251743316650390625" lon="-5.95671356655657291412353515625">
        <ele>2384.60009765625</ele>
        <time>2022-02-23T15:02:02.000Z</time>
      </trkpt>
      <trkpt lat="43.018247522413730621337890625" lon="-5.95668154768645763397216796875">
        <ele>2380.60009765625</ele>
        <time>2022-02-23T15:02:18.000Z</time>
      </trkpt>
      <trkpt lat="43.0183772742748260498046875" lon="-5.95669613219797611236572265625">
        <ele>2373.39990234375</ele>
        <time>2022-02-23T15:02:39.000Z</time>
      </trkpt>
      <trkpt lat="43.01835858263075351715087890625" lon="-5.9567076154053211212158203125">
        <ele>2374.199951171875</ele>
        <time>2022-02-23T15:15:10.000Z</time>
      </trkpt>
      <trkpt lat="43.0183553136885166168212890625" lon="-5.9567052684724330902099609375">
        <ele>2374.39990234375</ele>
        <time>2022-02-23T15:15:11.000Z</time>
      </trkpt>
      <trkpt lat="43.018359839916229248046875" lon="-5.9567022509872913360595703125">
        <ele>2374.199951171875</ele>
        <time>2022-02-23T15:15:12.000Z</time>
      </trkpt>
      <trkpt lat="43.018358834087848663330078125" lon="-5.9567035920917987823486328125">
        <ele>2374.199951171875</ele>
        <time>2022-02-23T15:15:13.000Z</time>
      </trkpt>
      <trkpt lat="43.018354475498199462890625" lon="-5.95670451410114765167236328125">
        <ele>2374.39990234375</ele>
        <time>2022-02-23T15:15:14.000Z</time>
      </trkpt>
      <trkpt lat="43.0183450877666473388671875" lon="-5.95668800175189971923828125">
        <ele>2375.199951171875</ele>
        <time>2022-02-23T15:15:18.000Z</time>
      </trkpt>
      <trkpt lat="43.0183477699756622314453125" lon="-5.95668372698128223419189453125">
        <ele>2375.199951171875</ele>
        <time>2022-02-23T15:15:19.000Z</time>
      </trkpt>
      <trkpt lat="43.01834785379469394683837890625" lon="-5.95668221823871135711669921875">
        <ele>2375.199951171875</ele>
        <time>2022-02-23T15:15:20.000Z</time>
      </trkpt>
      <trkpt lat="43.0183316767215728759765625" lon="-5.95668456517159938812255859375">
        <ele>2376</ele>
        <time>2022-02-23T15:15:28.000Z</time>
      </trkpt>
      <trkpt lat="43.01832706667482852935791015625" lon="-5.956682302057743072509765625">
        <ele>2376.199951171875</ele>
        <time>2022-02-23T15:15:29.000Z</time>
      </trkpt>
      <trkpt lat="43.01832438446581363677978515625" lon="-5.95668037422001361846923828125">
        <ele>2376.39990234375</ele>
        <time>2022-02-23T15:15:30.000Z</time>
      </trkpt>
      <trkpt lat="43.0183224566280841827392578125" lon="-5.9566838108003139495849609375">
        <ele>2376.39990234375</ele>
        <time>2022-02-23T15:15:31.000Z</time>
      </trkpt>
      <trkpt lat="43.0183187685906887054443359375" lon="-5.9566841460764408111572265625">
        <ele>2376.60009765625</ele>
        <time>2022-02-23T15:15:32.000Z</time>
      </trkpt>
      <trkpt lat="43.01831533201038837432861328125" lon="-5.95668473280966281890869140625">
        <ele>2376.800048828125</ele>
        <time>2022-02-23T15:15:33.000Z</time>
      </trkpt>
      <trkpt lat="43.01831080578267574310302734375" lon="-5.95668607391417026519775390625">
        <ele>2377</ele>
        <time>2022-02-23T15:15:34.000Z</time>
      </trkpt>
      <trkpt lat="43.0183056928217411041259765625" lon="-5.95668791793286800384521484375">
        <ele>2377.199951171875</ele>
        <time>2022-02-23T15:15:35.000Z</time>
      </trkpt>
      <trkpt lat="43.01829286850988864898681640625" lon="-5.956697054207324981689453125">
        <ele>2377.800048828125</ele>
        <time>2022-02-23T15:15:37.000Z</time>
      </trkpt>
      <trkpt lat="43.0182788707315921783447265625" lon="-5.95670568756759166717529296875">
        <ele>2378.39990234375</ele>
        <time>2022-02-23T15:15:40.000Z</time>
      </trkpt>
      <trkpt lat="43.0182567425072193145751953125" lon="-5.9567102976143360137939453125">
        <ele>2379.60009765625</ele>
        <time>2022-02-23T15:15:43.000Z</time>
      </trkpt>
      <trkpt lat="43.01824794150888919830322265625" lon="-5.9567129798233509063720703125">
        <ele>2380</ele>
        <time>2022-02-23T15:15:45.000Z</time>
      </trkpt>
      <trkpt lat="43.0182458460330963134765625" lon="-5.9567123092710971832275390625">
        <ele>2380</ele>
        <time>2022-02-23T15:15:46.000Z</time>
      </trkpt>
      <trkpt lat="43.018243499100208282470703125" lon="-5.95671214163303375244140625">
        <ele>2380.199951171875</ele>
        <time>2022-02-23T15:15:47.000Z</time>
      </trkpt>
      <trkpt lat="43.01823989488184452056884765625" lon="-5.956713147461414337158203125">
        <ele>2380.39990234375</ele>
        <time>2022-02-23T15:15:48.000Z</time>
      </trkpt>
      <trkpt lat="43.018236793577671051025390625" lon="-5.9567109681665897369384765625">
        <ele>2380.60009765625</ele>
        <time>2022-02-23T15:15:50.000Z</time>
      </trkpt>
      <trkpt lat="43.0182185210287570953369140625" lon="-5.95671557821333408355712890625">
        <ele>2381.60009765625</ele>
        <time>2022-02-23T15:15:53.000Z</time>
      </trkpt>
      <trkpt lat="43.018172085285186767578125" lon="-5.95673603005707263946533203125">
        <ele>2383</ele>
        <time>2022-02-23T15:16:01.000Z</time>
      </trkpt>
      <trkpt lat="43.018038980662822723388671875" lon="-5.95679990015923976898193359375">
        <ele>2385.39990234375</ele>
        <time>2022-02-23T15:16:18.000Z</time>
      </trkpt>
      <trkpt lat="43.017860949039459228515625" lon="-5.9568403847515583038330078125">
        <ele>2388.800048828125</ele>
        <time>2022-02-23T15:16:46.000Z</time>
      </trkpt>
      <trkpt lat="43.0177249945700168609619140625" lon="-5.95694976858794689178466796875">
        <ele>2388</ele>
        <time>2022-02-23T15:17:05.000Z</time>
      </trkpt>
      <trkpt lat="43.01772415637969970703125" lon="-5.9569171629846096038818359375">
        <ele>2388.39990234375</ele>
        <time>2022-02-23T15:19:26.000Z</time>
      </trkpt>
      <trkpt lat="43.01772474311292171478271484375" lon="-5.95691741444170475006103515625">
        <ele>2388.39990234375</ele>
        <time>2022-02-23T15:19:27.000Z</time>
      </trkpt>
      <trkpt lat="43.01770160906016826629638671875" lon="-5.9569248743355274200439453125">
        <ele>2388.39990234375</ele>
        <time>2022-02-23T15:19:35.000Z</time>
      </trkpt>
      <trkpt lat="43.0176850967109203338623046875" lon="-5.95693971030414104461669921875">
        <ele>2388.199951171875</ele>
        <time>2022-02-23T15:19:39.000Z</time>
      </trkpt>
      <trkpt lat="43.01766774617135524749755859375" lon="-5.956954546272754669189453125">
        <ele>2388.199951171875</ele>
        <time>2022-02-23T15:19:43.000Z</time>
      </trkpt>
      <trkpt lat="43.01759582944214344024658203125" lon="-5.956953875720500946044921875">
        <ele>2388.39990234375</ele>
        <time>2022-02-23T15:19:53.000Z</time>
      </trkpt>
      <trkpt lat="43.01758090965449810028076171875" lon="-5.95694909803569316864013671875">
        <ele>2388.60009765625</ele>
        <time>2022-02-23T15:19:55.000Z</time>
      </trkpt>
      <trkpt lat="43.01757353357970714569091796875" lon="-5.9569488465785980224609375">
        <ele>2388.60009765625</ele>
        <time>2022-02-23T15:19:56.000Z</time>
      </trkpt>
      <trkpt lat="43.01756666041910648345947265625" lon="-5.95695144496858119964599609375">
        <ele>2388.60009765625</ele>
        <time>2022-02-23T15:19:57.000Z</time>
      </trkpt>
      <trkpt lat="43.01755827851593494415283203125" lon="-5.95695395953953266143798828125">
        <ele>2388.60009765625</ele>
        <time>2022-02-23T15:19:58.000Z</time>
      </trkpt>
      <trkpt lat="43.017549812793731689453125" lon="-5.95695555210113525390625">
        <ele>2388.60009765625</ele>
        <time>2022-02-23T15:19:59.000Z</time>
      </trkpt>
      <trkpt lat="43.01754268817603588104248046875" lon="-5.956957899034023284912109375">
        <ele>2388.60009765625</ele>
        <time>2022-02-23T15:20:00.000Z</time>
      </trkpt>
      <trkpt lat="43.01753447391092777252197265625" lon="-5.956959910690784454345703125">
        <ele>2388.60009765625</ele>
        <time>2022-02-23T15:20:01.000Z</time>
      </trkpt>
      <trkpt lat="43.01752625964581966400146484375" lon="-5.95696334727108478546142578125">
        <ele>2388.60009765625</ele>
        <time>2022-02-23T15:20:02.000Z</time>
      </trkpt>
      <trkpt lat="43.017521314322948455810546875" lon="-5.9569684602320194244384765625">
        <ele>2388.60009765625</ele>
        <time>2022-02-23T15:20:03.000Z</time>
      </trkpt>
      <trkpt lat="43.017508573830127716064453125" lon="-5.956977345049381256103515625">
        <ele>2388.60009765625</ele>
        <time>2022-02-23T15:20:05.000Z</time>
      </trkpt>
      <trkpt lat="43.01749658770859241485595703125" lon="-5.95698413439095020294189453125">
        <ele>2388.39990234375</ele>
        <time>2022-02-23T15:20:07.000Z</time>
      </trkpt>
      <trkpt lat="43.01748837344348430633544921875" lon="-5.9569869004189968109130859375">
        <ele>2388.39990234375</ele>
        <time>2022-02-23T15:20:08.000Z</time>
      </trkpt>
      <trkpt lat="43.01747160963714122772216796875" lon="-5.95698933117091655731201171875">
        <ele>2388.60009765625</ele>
        <time>2022-02-23T15:20:10.000Z</time>
      </trkpt>
      <trkpt lat="43.01746473647654056549072265625" lon="-5.95699083991348743438720703125">
        <ele>2388.60009765625</ele>
        <time>2022-02-23T15:20:11.000Z</time>
      </trkpt>
      <trkpt lat="43.01745853386819362640380859375" lon="-5.95699335448443889617919921875">
        <ele>2388.60009765625</ele>
        <time>2022-02-23T15:20:12.000Z</time>
      </trkpt>
      <trkpt lat="43.01741830073297023773193359375" lon="-5.9569926001131534576416015625">
        <ele>2388</ele>
        <time>2022-02-23T15:20:17.000Z</time>
      </trkpt>
      <trkpt lat="43.01737521775066852569580078125" lon="-5.95701481215655803680419921875">
        <ele>2387.39990234375</ele>
        <time>2022-02-23T15:20:22.000Z</time>
      </trkpt>
      <trkpt lat="43.017358370125293731689453125" lon="-5.9570264630019664764404296875">
        <ele>2387.199951171875</ele>
        <time>2022-02-23T15:20:24.000Z</time>
      </trkpt>
      <trkpt lat="43.0173178017139434814453125" lon="-5.95707013271749019622802734375">
        <ele>2386.800048828125</ele>
        <time>2022-02-23T15:20:29.000Z</time>
      </trkpt>
      <trkpt lat="43.017281256616115570068359375" lon="-5.95710952766239643096923828125">
        <ele>2386.199951171875</ele>
        <time>2022-02-23T15:20:35.000Z</time>
      </trkpt>
      <trkpt lat="43.017260134220123291015625" lon="-5.95712645910680294036865234375">
        <ele>2386</ele>
        <time>2022-02-23T15:20:39.000Z</time>
      </trkpt>
      <trkpt lat="43.01714546978473663330078125" lon="-5.95717524178326129913330078125">
        <ele>2383.60009765625</ele>
        <time>2022-02-23T15:21:13.000Z</time>
      </trkpt>
      <trkpt lat="43.01704446785151958465576171875" lon="-5.95724732615053653717041015625">
        <ele>2382.199951171875</ele>
        <time>2022-02-23T15:21:37.000Z</time>
      </trkpt>
      <trkpt lat="43.016909100115299224853515625" lon="-5.9574204124510288238525390625">
        <ele>2379.800048828125</ele>
        <time>2022-02-23T15:22:05.000Z</time>
      </trkpt>
      <trkpt lat="43.01683793775737285614013671875" lon="-5.9574495814740657806396484375">
        <ele>2378</ele>
        <time>2022-02-23T15:22:17.000Z</time>
      </trkpt>
      <trkpt lat="43.01680373959243297576904296875" lon="-5.95745033584535121917724609375">
        <ele>2377.39990234375</ele>
        <time>2022-02-23T15:22:36.000Z</time>
      </trkpt>
      <trkpt lat="43.0167813599109649658203125" lon="-5.95744212158024311065673828125">
        <ele>2377.39990234375</ele>
        <time>2022-02-23T15:22:42.000Z</time>
      </trkpt>
      <trkpt lat="43.01667599938809871673583984375" lon="-5.95747296698391437530517578125">
        <ele>2375.60009765625</ele>
        <time>2022-02-23T15:23:00.000Z</time>
      </trkpt>
      <trkpt lat="43.01658346317708492279052734375" lon="-5.95751638524234294891357421875">
        <ele>2373</ele>
        <time>2022-02-23T15:23:09.000Z</time>
      </trkpt>
      <trkpt lat="43.016450107097625732421875" lon="-5.957692153751850128173828125">
        <ele>2370.39990234375</ele>
        <time>2022-02-23T15:23:27.000Z</time>
      </trkpt>
      <trkpt lat="43.0163000710308551788330078125" lon="-5.95773833803832530975341796875">
        <ele>2367.800048828125</ele>
        <time>2022-02-23T15:23:43.000Z</time>
      </trkpt>
      <trkpt lat="43.01625497639179229736328125" lon="-5.957757197320461273193359375">
        <ele>2367</ele>
        <time>2022-02-23T15:23:48.000Z</time>
      </trkpt>
      <trkpt lat="43.0162075348198413848876953125" lon="-5.957801453769207000732421875">
        <ele>2367</ele>
        <time>2022-02-23T15:23:53.000Z</time>
      </trkpt>
      <trkpt lat="43.016201667487621307373046875" lon="-5.95781478099524974822998046875">
        <ele>2366.800048828125</ele>
        <time>2022-02-23T15:23:54.000Z</time>
      </trkpt>
      <trkpt lat="43.0161776952445507049560546875" lon="-5.9578688442707061767578125">
        <ele>2366.60009765625</ele>
        <time>2022-02-23T15:23:59.000Z</time>
      </trkpt>
      <trkpt lat="43.01616973243653774261474609375" lon="-5.95790438354015350341796875">
        <ele>2366.39990234375</ele>
        <time>2022-02-23T15:24:02.000Z</time>
      </trkpt>
      <trkpt lat="43.01615447737276554107666015625" lon="-5.95794034190475940704345703125">
        <ele>2366.800048828125</ele>
        <time>2022-02-23T15:24:06.000Z</time>
      </trkpt>
      <trkpt lat="43.0161081254482269287109375" lon="-5.957967750728130340576171875">
        <ele>2367.199951171875</ele>
        <time>2022-02-23T15:24:16.000Z</time>
      </trkpt>
      <trkpt lat="43.01604710519313812255859375" lon="-5.9580145217478275299072265625">
        <ele>2368</ele>
        <time>2022-02-23T15:24:39.000Z</time>
      </trkpt>
      <trkpt lat="43.0159668065607547760009765625" lon="-5.95804519951343536376953125">
        <ele>2368.39990234375</ele>
        <time>2022-02-23T15:24:57.000Z</time>
      </trkpt>
      <trkpt lat="43.0158720910549163818359375" lon="-5.95808836631476879119873046875">
        <ele>2368.60009765625</ele>
        <time>2022-02-23T15:25:22.000Z</time>
      </trkpt>
      <trkpt lat="43.01570302806794643402099609375" lon="-5.9579990990459918975830078125">
        <ele>2363.800048828125</ele>
        <time>2022-02-23T15:26:02.000Z</time>
      </trkpt>
      <trkpt lat="43.01553203724324703216552734375" lon="-5.958066992461681365966796875">
        <ele>2359.60009765625</ele>
        <time>2022-02-23T15:26:26.000Z</time>
      </trkpt>
      <trkpt lat="43.01548057235777378082275390625" lon="-5.9581110812723636627197265625">
        <ele>2359</ele>
        <time>2022-02-23T15:26:41.000Z</time>
      </trkpt>
      <trkpt lat="43.0154042132198810577392578125" lon="-5.9581573493778705596923828125">
        <ele>2357</ele>
        <time>2022-02-23T15:27:03.000Z</time>
      </trkpt>
      <trkpt lat="43.0153582803905010223388671875" lon="-5.9580470435321331024169921875">
        <ele>2350.60009765625</ele>
        <time>2022-02-23T15:28:19.000Z</time>
      </trkpt>
      <trkpt lat="43.01535970531404018402099609375" lon="-5.95794721506536006927490234375">
        <ele>2347.800048828125</ele>
        <time>2022-02-23T15:30:14.000Z</time>
      </trkpt>
      <trkpt lat="43.015354759991168975830078125" lon="-5.957953669130802154541015625">
        <ele>2347.60009765625</ele>
        <time>2022-02-23T15:30:26.000Z</time>
      </trkpt>
      <trkpt lat="43.01533355377614498138427734375" lon="-5.95794972963631153106689453125">
        <ele>2346.199951171875</ele>
        <time>2022-02-23T15:30:40.000Z</time>
      </trkpt>
      <trkpt lat="43.01531461067497730255126953125" lon="-5.957924164831638336181640625">
        <ele>2344.199951171875</ele>
        <time>2022-02-23T15:31:00.000Z</time>
      </trkpt>
      <trkpt lat="43.01531561650335788726806640625" lon="-5.957916788756847381591796875">
        <ele>2344</ele>
        <time>2022-02-23T15:31:06.000Z</time>
      </trkpt>
      <trkpt lat="43.01531880162656307220458984375" lon="-5.9579099155962467193603515625">
        <ele>2344.199951171875</ele>
        <time>2022-02-23T15:31:15.000Z</time>
      </trkpt>
      <trkpt lat="43.01531595177948474884033203125" lon="-5.95790840685367584228515625">
        <ele>2344</ele>
        <time>2022-02-23T15:31:18.000Z</time>
      </trkpt>
      <trkpt lat="43.0153153650462627410888671875" lon="-5.95790748484432697296142578125">
        <ele>2343.800048828125</ele>
        <time>2022-02-23T15:31:19.000Z</time>
      </trkpt>
      <trkpt lat="43.015316538512706756591796875" lon="-5.95790161751210689544677734375">
        <ele>2343.800048828125</ele>
        <time>2022-02-23T15:31:22.000Z</time>
      </trkpt>
      <trkpt lat="43.01531494595110416412353515625" lon="-5.95789767801761627197265625">
        <ele>2343.39990234375</ele>
        <time>2022-02-23T15:31:26.000Z</time>
      </trkpt>
      <trkpt lat="43.01531326957046985626220703125" lon="-5.95789055339992046356201171875">
        <ele>2343</ele>
        <time>2022-02-23T15:31:29.000Z</time>
      </trkpt>
      <trkpt lat="43.01531209610402584075927734375" lon="-5.9578903019428253173828125">
        <ele>2343</ele>
        <time>2022-02-23T15:31:30.000Z</time>
      </trkpt>
      <trkpt lat="43.0153100006282329559326171875" lon="-5.95788694918155670166015625">
        <ele>2342.60009765625</ele>
        <time>2022-02-23T15:31:33.000Z</time>
      </trkpt>
      <trkpt lat="43.01530505530536174774169921875" lon="-5.957881920039653778076171875">
        <ele>2342</ele>
        <time>2022-02-23T15:31:38.000Z</time>
      </trkpt>
      <trkpt lat="43.015304468572139739990234375" lon="-5.95788200385868549346923828125">
        <ele>2342</ele>
        <time>2022-02-23T15:31:41.000Z</time>
      </trkpt>
      <trkpt lat="43.0153019540011882781982421875" lon="-5.9578824229538440704345703125">
        <ele>2341.800048828125</ele>
        <time>2022-02-23T15:31:46.000Z</time>
      </trkpt>
      <trkpt lat="43.01529985852539539337158203125" lon="-5.957879908382892608642578125">
        <ele>2341.60009765625</ele>
        <time>2022-02-23T15:31:47.000Z</time>
      </trkpt>
      <trkpt lat="43.01529935561120510101318359375" lon="-5.95788024365901947021484375">
        <ele>2341.60009765625</ele>
        <time>2022-02-23T15:31:48.000Z</time>
      </trkpt>
      <trkpt lat="43.01529885269701480865478515625" lon="-5.9578787349164485931396484375">
        <ele>2341.60009765625</ele>
        <time>2022-02-23T15:31:49.000Z</time>
      </trkpt>
      <trkpt lat="43.01529834978282451629638671875" lon="-5.9578777290880680084228515625">
        <ele>2341.39990234375</ele>
        <time>2022-02-23T15:31:50.000Z</time>
      </trkpt>
      <trkpt lat="43.01529583521187305450439453125" lon="-5.95787244848906993865966796875">
        <ele>2341</ele>
        <time>2022-02-23T15:31:51.000Z</time>
      </trkpt>
      <trkpt lat="43.015287034213542938232421875" lon="-5.95786138437688350677490234375">
        <ele>2340</ele>
        <time>2022-02-23T15:31:58.000Z</time>
      </trkpt>
      <trkpt lat="43.0152848549187183380126953125" lon="-5.95785719342529773712158203125">
        <ele>2339.60009765625</ele>
        <time>2022-02-23T15:32:18.000Z</time>
      </trkpt>
      <trkpt lat="43.01528108306229114532470703125" lon="-5.95785317011177539825439453125">
        <ele>2339.199951171875</ele>
        <time>2022-02-23T15:32:31.000Z</time>
      </trkpt>
      <trkpt lat="43.0152659118175506591796875" lon="-5.9578458778560161590576171875">
        <ele>2337.800048828125</ele>
        <time>2022-02-23T15:32:47.000Z</time>
      </trkpt>
      <trkpt lat="43.01526331342756748199462890625" lon="-5.95784260891377925872802734375">
        <ele>2337.60009765625</ele>
        <time>2022-02-23T15:32:55.000Z</time>
      </trkpt>
      <trkpt lat="43.01525644026696681976318359375" lon="-5.95783573575317859649658203125">
        <ele>2336.800048828125</ele>
        <time>2022-02-23T15:33:05.000Z</time>
      </trkpt>
      <trkpt lat="43.01525107584893703460693359375" lon="-5.95782265998423099517822265625">
        <ele>2335.800048828125</ele>
        <time>2022-02-23T15:33:13.000Z</time>
      </trkpt>
      <trkpt lat="43.01525183022022247314453125" lon="-5.957822911441326141357421875">
        <ele>2335.800048828125</ele>
        <time>2022-02-23T15:33:15.000Z</time>
      </trkpt>
      <trkpt lat="43.0152379162609577178955078125" lon="-5.957814194262027740478515625">
        <ele>2334.60009765625</ele>
        <time>2022-02-23T15:33:29.000Z</time>
      </trkpt>
      <trkpt lat="43.015238083899021148681640625" lon="-5.95781578682363033294677734375">
        <ele>2334.60009765625</ele>
        <time>2022-02-23T15:33:30.000Z</time>
      </trkpt>
      <trkpt lat="43.01523766480386257171630859375" lon="-5.9578152000904083251953125">
        <ele>2334.60009765625</ele>
        <time>2022-02-23T15:33:31.000Z</time>
      </trkpt>
      <trkpt lat="43.01523439586162567138671875" lon="-5.95781008712947368621826171875">
        <ele>2334.199951171875</ele>
        <time>2022-02-23T15:33:32.000Z</time>
      </trkpt>
      <trkpt lat="43.01523079164326190948486328125" lon="-5.957810170948505401611328125">
        <ele>2333.800048828125</ele>
        <time>2022-02-23T15:33:36.000Z</time>
      </trkpt>
      <trkpt lat="43.01523129455745220184326171875" lon="-5.95780958421528339385986328125">
        <ele>2333.800048828125</ele>
        <time>2022-02-23T15:33:37.000Z</time>
      </trkpt>
      <trkpt lat="43.01523028872907161712646484375" lon="-5.9578071534633636474609375">
        <ele>2333.60009765625</ele>
        <time>2022-02-23T15:33:38.000Z</time>
      </trkpt>
      <trkpt lat="43.01522576250135898590087890625" lon="-5.95780891366302967071533203125">
        <ele>2333.39990234375</ele>
        <time>2022-02-23T15:33:40.000Z</time>
      </trkpt>
      <trkpt lat="43.01522023044526576995849609375" lon="-5.95780287869274616241455078125">
        <ele>2332.60009765625</ele>
        <time>2022-02-23T15:33:47.000Z</time>
      </trkpt>
      <trkpt lat="43.01522375084459781646728515625" lon="-5.95778762362897396087646484375">
        <ele>2332.199951171875</ele>
        <time>2022-02-23T15:33:55.000Z</time>
      </trkpt>
      <trkpt lat="43.0152144469320774078369140625" lon="-5.95777438022196292877197265625">
        <ele>2330.800048828125</ele>
        <time>2022-02-23T15:34:06.000Z</time>
      </trkpt>
      <trkpt lat="43.01519357599318027496337890625" lon="-5.95776700414717197418212890625">
        <ele>2328.800048828125</ele>
        <time>2022-02-23T15:34:18.000Z</time>
      </trkpt>
      <trkpt lat="43.01517329178750514984130859375" lon="-5.9577593766152858734130859375">
        <ele>2327</ele>
        <time>2022-02-23T15:34:49.000Z</time>
      </trkpt>
      <trkpt lat="43.01516507752239704132080078125" lon="-5.95775174908339977264404296875">
        <ele>2326</ele>
        <time>2022-02-23T15:35:06.000Z</time>
      </trkpt>
      <trkpt lat="43.0151331424713134765625" lon="-5.9577389247715473175048828125">
        <ele>2322.800048828125</ele>
        <time>2022-02-23T15:35:31.000Z</time>
      </trkpt>
      <trkpt lat="43.015091232955455780029296875" lon="-5.9577333927154541015625">
        <ele>2319.199951171875</ele>
        <time>2022-02-23T15:36:01.000Z</time>
      </trkpt>
      <trkpt lat="43.0150461383163928985595703125" lon="-5.95771989785134792327880859375">
        <ele>2315</ele>
        <time>2022-02-23T15:37:11.000Z</time>
      </trkpt>
      <trkpt lat="43.0150417797267436981201171875" lon="-5.95771855674684047698974609375">
        <ele>2314.39990234375</ele>
        <time>2022-02-23T15:37:12.000Z</time>
      </trkpt>
      <trkpt lat="43.0150364153087139129638671875" lon="-5.95771604217588901519775390625">
        <ele>2313.800048828125</ele>
        <time>2022-02-23T15:37:13.000Z</time>
      </trkpt>
      <trkpt lat="43.0150283686816692352294921875" lon="-5.95771905966103076934814453125">
        <ele>2313.39990234375</ele>
        <time>2022-02-23T15:37:35.000Z</time>
      </trkpt>
      <trkpt lat="43.01502644084393978118896484375" lon="-5.95770916901528835296630859375">
        <ele>2312.60009765625</ele>
        <time>2022-02-23T15:37:50.000Z</time>
      </trkpt>
      <trkpt lat="43.0150179751217365264892578125" lon="-5.9577134437859058380126953125">
        <ele>2312</ele>
        <time>2022-02-23T15:38:00.000Z</time>
      </trkpt>
      <trkpt lat="43.015012778341770172119140625" lon="-5.957713611423969268798828125">
        <ele>2311.60009765625</ele>
        <time>2022-02-23T15:38:08.000Z</time>
      </trkpt>
      <trkpt lat="43.0150122754275798797607421875" lon="-5.957706905901432037353515625">
        <ele>2311.199951171875</ele>
        <time>2022-02-23T15:38:21.000Z</time>
      </trkpt>
      <trkpt lat="43.01499861292541027069091796875" lon="-5.9577020443975925445556640625">
        <ele>2309.60009765625</ele>
        <time>2022-02-23T15:38:28.000Z</time>
      </trkpt>
      <trkpt lat="43.0149867944419384002685546875" lon="-5.95770313404500484466552734375">
        <ele>2308.60009765625</ele>
        <time>2022-02-23T15:38:31.000Z</time>
      </trkpt>
      <trkpt lat="43.014985620975494384765625" lon="-5.95771201886236667633056640625">
        <ele>2309</ele>
        <time>2022-02-23T15:38:34.000Z</time>
      </trkpt>
      <trkpt lat="43.01497556269168853759765625" lon="-5.95771537162363529205322265625">
        <ele>2308.39990234375</ele>
        <time>2022-02-23T15:38:40.000Z</time>
      </trkpt>
      <trkpt lat="43.0149601399898529052734375" lon="-5.95771403051912784576416015625">
        <ele>2306.800048828125</ele>
        <time>2022-02-23T15:38:46.000Z</time>
      </trkpt>
      <trkpt lat="43.01496122963726520538330078125" lon="-5.95771905966103076934814453125">
        <ele>2307.199951171875</ele>
        <time>2022-02-23T15:38:50.000Z</time>
      </trkpt>
      <trkpt lat="43.0149626545608043670654296875" lon="-5.95772090367972850799560546875">
        <ele>2307.60009765625</ele>
        <time>2022-02-23T15:38:51.000Z</time>
      </trkpt>
      <trkpt lat="43.01496374420821666717529296875" lon="-5.957720987498760223388671875">
        <ele>2307.60009765625</ele>
        <time>2022-02-23T15:38:52.000Z</time>
      </trkpt>
      <trkpt lat="43.0149660073220729827880859375" lon="-5.95772065222263336181640625">
        <ele>2307.800048828125</ele>
        <time>2022-02-23T15:38:58.000Z</time>
      </trkpt>
      <trkpt lat="43.014967180788516998291015625" lon="-5.95772325061261653900146484375">
        <ele>2308</ele>
        <time>2022-02-23T15:39:01.000Z</time>
      </trkpt>
      <trkpt lat="43.014967851340770721435546875" lon="-5.9577265195548534393310546875">
        <ele>2308.39990234375</ele>
        <time>2022-02-23T15:39:03.000Z</time>
      </trkpt>
      <trkpt lat="43.01497313193976879119873046875" lon="-5.9577292017638683319091796875">
        <ele>2309</ele>
        <time>2022-02-23T15:39:06.000Z</time>
      </trkpt>
      <trkpt lat="43.01497413776814937591552734375" lon="-5.9577312134206295013427734375">
        <ele>2309.199951171875</ele>
        <time>2022-02-23T15:39:07.000Z</time>
      </trkpt>
      <trkpt lat="43.0149814300239086151123046875" lon="-5.95773548819124698638916015625">
        <ele>2310</ele>
        <time>2022-02-23T15:39:20.000Z</time>
      </trkpt>
      <trkpt lat="43.0149824358522891998291015625" lon="-5.9577362425625324249267578125">
        <ele>2310.199951171875</ele>
        <time>2022-02-23T15:39:28.000Z</time>
      </trkpt>
      <trkpt lat="43.0149831064045429229736328125" lon="-5.95773397944867610931396484375">
        <ele>2310.199951171875</ele>
        <time>2022-02-23T15:39:36.000Z</time>
      </trkpt>
      <trkpt lat="43.0149834416806697845458984375" lon="-5.95773280598223209381103515625">
        <ele>2310.199951171875</ele>
        <time>2022-02-23T15:39:41.000Z</time>
      </trkpt>
      <trkpt lat="43.01499123685061931610107421875" lon="-5.9577365778386592864990234375">
        <ele>2311</ele>
        <time>2022-02-23T15:39:48.000Z</time>
      </trkpt>
      <trkpt lat="43.01498067565262317657470703125" lon="-5.957735739648342132568359375">
        <ele>2310</ele>
        <time>2022-02-23T15:40:02.000Z</time>
      </trkpt>
      <trkpt lat="43.01497564651072025299072265625" lon="-5.95773381181061267852783203125">
        <ele>2309.39990234375</ele>
        <time>2022-02-23T15:40:09.000Z</time>
      </trkpt>
      <trkpt lat="43.01497614942491054534912109375" lon="-5.9577325545251369476318359375">
        <ele>2309.39990234375</ele>
        <time>2022-02-23T15:40:15.000Z</time>
      </trkpt>
      <trkpt lat="43.01497799344360828399658203125" lon="-5.95773548819124698638916015625">
        <ele>2309.800048828125</ele>
        <time>2022-02-23T15:40:23.000Z</time>
      </trkpt>
      <trkpt lat="43.0149452202022075653076171875" lon="-5.9577429480850696563720703125">
        <ele>2307.199951171875</ele>
        <time>2022-02-23T15:40:53.000Z</time>
      </trkpt>
      <trkpt lat="43.0149400234222412109375" lon="-5.95775325782597064971923828125">
        <ele>2307.39990234375</ele>
        <time>2022-02-23T15:41:01.000Z</time>
      </trkpt>
      <trkpt lat="43.0149391852319240570068359375" lon="-5.95775376074016094207763671875">
        <ele>2307.39990234375</ele>
        <time>2022-02-23T15:41:02.000Z</time>
      </trkpt>
      <trkpt lat="43.014938347041606903076171875" lon="-5.9577550180256366729736328125">
        <ele>2307.39990234375</ele>
        <time>2022-02-23T15:41:03.000Z</time>
      </trkpt>
      <trkpt lat="43.01493801176548004150390625" lon="-5.9577546827495098114013671875">
        <ele>2307.39990234375</ele>
        <time>2022-02-23T15:41:05.000Z</time>
      </trkpt>
      <trkpt lat="43.014921247959136962890625" lon="-5.95776868052780628204345703125">
        <ele>2306.60009765625</ele>
        <time>2022-02-23T15:41:18.000Z</time>
      </trkpt>
      <trkpt lat="43.01491462625563144683837890625" lon="-5.957769937813282012939453125">
        <ele>2306.199951171875</ele>
        <time>2022-02-23T15:41:21.000Z</time>
      </trkpt>
      <trkpt lat="43.01490272395312786102294921875" lon="-5.95777320675551891326904296875">
        <ele>2305.39990234375</ele>
        <time>2022-02-23T15:41:25.000Z</time>
      </trkpt>
      <trkpt lat="43.0148979462683200836181640625" lon="-5.957776643335819244384765625">
        <ele>2305</ele>
        <time>2022-02-23T15:41:29.000Z</time>
      </trkpt>
      <trkpt lat="43.01488646306097507476806640625" lon="-5.957777984440326690673828125">
        <ele>2304.199951171875</ele>
        <time>2022-02-23T15:41:35.000Z</time>
      </trkpt>
      <trkpt lat="43.01487623713910579681396484375" lon="-5.95778024755418300628662109375">
        <ele>2303.39990234375</ele>
        <time>2022-02-23T15:41:38.000Z</time>
      </trkpt>
      <trkpt lat="43.0148697830736637115478515625" lon="-5.95778175629675388336181640625">
        <ele>2302.800048828125</ele>
        <time>2022-02-23T15:41:40.000Z</time>
      </trkpt>
      <trkpt lat="43.0148298852145671844482421875" lon="-5.957795418798923492431640625">
        <ele>2300.60009765625</ele>
        <time>2022-02-23T15:41:57.000Z</time>
      </trkpt>
      <trkpt lat="43.01482544280588626861572265625" lon="-5.957793407142162322998046875">
        <ele>2300.199951171875</ele>
        <time>2022-02-23T15:41:59.000Z</time>
      </trkpt>
      <trkpt lat="43.01482074894011020660400390625" lon="-5.95779684372246265411376953125">
        <ele>2300</ele>
        <time>2022-02-23T15:42:02.000Z</time>
      </trkpt>
      <trkpt lat="43.01474832929670810699462890625" lon="-5.95789457671344280242919921875">
        <ele>2300.60009765625</ele>
        <time>2022-02-23T15:42:39.000Z</time>
      </trkpt>
      <trkpt lat="43.01466199569404125213623046875" lon="-5.9579662419855594635009765625">
        <ele>2296.60009765625</ele>
        <time>2022-02-23T15:43:11.000Z</time>
      </trkpt>
      <trkpt lat="43.01465176977217197418212890625" lon="-5.957979820668697357177734375">
        <ele>2296.199951171875</ele>
        <time>2022-02-23T15:43:17.000Z</time>
      </trkpt>
      <trkpt lat="43.01464975811541080474853515625" lon="-5.9579816646873950958251953125">
        <ele>2296.199951171875</ele>
        <time>2022-02-23T15:43:19.000Z</time>
      </trkpt>
      <trkpt lat="43.01464372314512729644775390625" lon="-5.9579850174486637115478515625">
        <ele>2295.800048828125</ele>
        <time>2022-02-23T15:43:22.000Z</time>
      </trkpt>
      <trkpt lat="43.01460667513310909271240234375" lon="-5.9580249153077602386474609375">
        <ele>2294.39990234375</ele>
        <time>2022-02-23T15:43:36.000Z</time>
      </trkpt>
      <trkpt lat="43.01459929905831813812255859375" lon="-5.9580262564122676849365234375">
        <ele>2293.800048828125</ele>
        <time>2022-02-23T15:43:38.000Z</time>
      </trkpt>
      <trkpt lat="43.014593683183193206787109375" lon="-5.95802868716418743133544921875">
        <ele>2293.39990234375</ele>
        <time>2022-02-23T15:43:39.000Z</time>
      </trkpt>
      <trkpt lat="43.0145911686122417449951171875" lon="-5.95802969299256801605224609375">
        <ele>2293.39990234375</ele>
        <time>2022-02-23T15:43:40.000Z</time>
      </trkpt>
      <trkpt lat="43.0145881511270999908447265625" lon="-5.9580306150019168853759765625">
        <ele>2293.199951171875</ele>
        <time>2022-02-23T15:43:41.000Z</time>
      </trkpt>
      <trkpt lat="43.01456241868436336517333984375" lon="-5.95805383287370204925537109375">
        <ele>2292.199951171875</ele>
        <time>2022-02-23T15:43:50.000Z</time>
      </trkpt>
      <trkpt lat="43.01455068401992321014404296875" lon="-5.95807931385934352874755859375">
        <ele>2292.39990234375</ele>
        <time>2022-02-23T15:44:03.000Z</time>
      </trkpt>
      <trkpt lat="43.01454297266900539398193359375" lon="-5.95808140933513641357421875">
        <ele>2292</ele>
        <time>2022-02-23T15:44:06.000Z</time>
      </trkpt>
      <trkpt lat="43.01450617611408233642578125" lon="-5.95805852673947811126708984375">
        <ele>2289</ele>
        <time>2022-02-23T15:44:20.000Z</time>
      </trkpt>
      <trkpt lat="43.01451615057885646820068359375" lon="-5.9580443613231182098388671875">
        <ele>2289.199951171875</ele>
        <time>2022-02-23T15:44:35.000Z</time>
      </trkpt>
      <trkpt lat="43.01451765932142734527587890625" lon="-5.9580446965992450714111328125">
        <ele>2289.199951171875</ele>
        <time>2022-02-23T15:44:49.000Z</time>
      </trkpt>
      <trkpt lat="43.01451212726533412933349609375" lon="-5.95805056393146514892578125">
        <ele>2289.199951171875</ele>
        <time>2022-02-23T15:44:54.000Z</time>
      </trkpt>
      <trkpt lat="43.0145096965134143829345703125" lon="-5.95804964192211627960205078125">
        <ele>2289</ele>
        <time>2022-02-23T15:45:03.000Z</time>
      </trkpt>
      <trkpt lat="43.01450592465698719024658203125" lon="-5.958046875894069671630859375">
        <ele>2288.60009765625</ele>
        <time>2022-02-23T15:45:10.000Z</time>
      </trkpt>
      <trkpt lat="43.014502823352813720703125" lon="-5.95804880373179912567138671875">
        <ele>2288.39990234375</ele>
        <time>2022-02-23T15:45:13.000Z</time>
      </trkpt>
      <trkpt lat="43.01450349390506744384765625" lon="-5.95804947428405284881591796875">
        <ele>2288.60009765625</ele>
        <time>2022-02-23T15:45:14.000Z</time>
      </trkpt>
      <trkpt lat="43.01450374536216259002685546875" lon="-5.9580530785024166107177734375">
        <ele>2288.60009765625</ele>
        <time>2022-02-23T15:45:22.000Z</time>
      </trkpt>
      <trkpt lat="43.0145053379237651824951171875" lon="-5.95805316232144832611083984375">
        <ele>2288.800048828125</ele>
        <time>2022-02-23T15:45:23.000Z</time>
      </trkpt>
      <trkpt lat="43.01450751721858978271484375" lon="-5.9580544196069240570068359375">
        <ele>2289</ele>
        <time>2022-02-23T15:45:24.000Z</time>
      </trkpt>
      <trkpt lat="43.01450550556182861328125" lon="-5.9580554254353046417236328125">
        <ele>2288.800048828125</ele>
        <time>2022-02-23T15:45:27.000Z</time>
      </trkpt>
      <trkpt lat="43.01450039260089397430419921875" lon="-5.95806355588138103485107421875">
        <ele>2288.800048828125</ele>
        <time>2022-02-23T15:45:42.000Z</time>
      </trkpt>
      <trkpt lat="43.014442808926105499267578125" lon="-5.95807881094515323638916015625">
        <ele>2285.800048828125</ele>
        <time>2022-02-23T15:46:05.000Z</time>
      </trkpt>
      <trkpt lat="43.01443484611809253692626953125" lon="-5.95808400772511959075927734375">
        <ele>2285.39990234375</ele>
        <time>2022-02-23T15:46:07.000Z</time>
      </trkpt>
      <trkpt lat="43.0144225247204303741455078125" lon="-5.958092473447322845458984375">
        <ele>2285</ele>
        <time>2022-02-23T15:46:10.000Z</time>
      </trkpt>
      <trkpt lat="43.01441824994981288909912109375" lon="-5.9580941498279571533203125">
        <ele>2284.800048828125</ele>
        <time>2022-02-23T15:46:11.000Z</time>
      </trkpt>
      <trkpt lat="43.01441355608403682708740234375" lon="-5.95809607766568660736083984375">
        <ele>2284.60009765625</ele>
        <time>2022-02-23T15:46:12.000Z</time>
      </trkpt>
      <trkpt lat="43.0143963731825351715087890625" lon="-5.9581020288169384002685546875">
        <ele>2283.60009765625</ele>
        <time>2022-02-23T15:46:17.000Z</time>
      </trkpt>
      <trkpt lat="43.01433451473712921142578125" lon="-5.95810018479824066162109375">
        <ele>2280.199951171875</ele>
        <time>2022-02-23T15:46:50.000Z</time>
      </trkpt>
      <trkpt lat="43.01426720805466175079345703125" lon="-5.9580621309578418731689453125">
        <ele>2275.199951171875</ele>
        <time>2022-02-23T15:47:11.000Z</time>
      </trkpt>
      <trkpt lat="43.01426636986434459686279296875" lon="-5.95806187950074672698974609375">
        <ele>2275.199951171875</ele>
        <time>2022-02-23T15:47:12.000Z</time>
      </trkpt>
      <trkpt lat="43.01425832323729991912841796875" lon="-5.95804964192211627960205078125">
        <ele>2274.39990234375</ele>
        <time>2022-02-23T15:47:20.000Z</time>
      </trkpt>
      <trkpt lat="43.01425362937152385711669921875" lon="-5.9580405056476593017578125">
        <ele>2273.800048828125</ele>
        <time>2022-02-23T15:47:23.000Z</time>
      </trkpt>
      <trkpt lat="43.01425027661025524139404296875" lon="-5.9580349735915660858154296875">
        <ele>2273.39990234375</ele>
        <time>2022-02-23T15:47:25.000Z</time>
      </trkpt>
      <trkpt lat="43.01424273289740085601806640625" lon="-5.958032123744487762451171875">
        <ele>2272.800048828125</ele>
        <time>2022-02-23T15:47:31.000Z</time>
      </trkpt>
      <trkpt lat="43.0142287351191043853759765625" lon="-5.9580383263528347015380859375">
        <ele>2272.199951171875</ele>
        <time>2022-02-23T15:47:37.000Z</time>
      </trkpt>
      <trkpt lat="43.01422596909105777740478515625" lon="-5.958042182028293609619140625">
        <ele>2272</ele>
        <time>2022-02-23T15:47:40.000Z</time>
      </trkpt>
      <trkpt lat="43.0142359435558319091796875" lon="-5.9580832533538341522216796875">
        <ele>2273.800048828125</ele>
        <time>2022-02-23T15:48:18.000Z</time>
      </trkpt>
      <trkpt lat="43.0142327584326267242431640625" lon="-5.9580674953758716583251953125">
        <ele>2273.199951171875</ele>
        <time>2022-02-23T15:48:25.000Z</time>
      </trkpt>
      <trkpt lat="43.0142025835812091827392578125" lon="-5.95803690142929553985595703125">
        <ele>2270.39990234375</ele>
        <time>2022-02-23T15:48:36.000Z</time>
      </trkpt>
      <trkpt lat="43.0141942016780376434326171875" lon="-5.958012007176876068115234375">
        <ele>2269.39990234375</ele>
        <time>2022-02-23T15:48:41.000Z</time>
      </trkpt>
      <trkpt lat="43.014187999069690704345703125" lon="-5.9579994343221187591552734375">
        <ele>2268.800048828125</ele>
        <time>2022-02-23T15:48:43.000Z</time>
      </trkpt>
      <trkpt lat="43.0141854844987392425537109375" lon="-5.95799415372312068939208984375">
        <ele>2268.60009765625</ele>
        <time>2022-02-23T15:48:44.000Z</time>
      </trkpt>
      <trkpt lat="43.01418171264231204986572265625" lon="-5.957985855638980865478515625">
        <ele>2268.199951171875</ele>
        <time>2022-02-23T15:48:46.000Z</time>
      </trkpt>
      <trkpt lat="43.01418137736618518829345703125" lon="-5.95798308961093425750732421875">
        <ele>2268.199951171875</ele>
        <time>2022-02-23T15:48:47.000Z</time>
      </trkpt>
      <trkpt lat="43.0141797848045825958251953125" lon="-5.95798216760158538818359375">
        <ele>2268.199951171875</ele>
        <time>2022-02-23T15:48:48.000Z</time>
      </trkpt>
      <trkpt lat="43.014164529740810394287109375" lon="-5.9579695947468280792236328125">
        <ele>2267.199951171875</ele>
        <time>2022-02-23T15:48:53.000Z</time>
      </trkpt>
      <trkpt lat="43.01415472291409969329833984375" lon="-5.95796339213848114013671875">
        <ele>2266.39990234375</ele>
        <time>2022-02-23T15:48:56.000Z</time>
      </trkpt>
      <trkpt lat="43.0141527950763702392578125" lon="-5.95796205103397369384765625">
        <ele>2266.39990234375</ele>
        <time>2022-02-23T15:48:57.000Z</time>
      </trkpt>
      <trkpt lat="43.0141529627144336700439453125" lon="-5.95795811153948307037353515625">
        <ele>2266.39990234375</ele>
        <time>2022-02-23T15:48:58.000Z</time>
      </trkpt>
      <trkpt lat="43.01415103487670421600341796875" lon="-5.9579558484256267547607421875">
        <ele>2266.199951171875</ele>
        <time>2022-02-23T15:49:00.000Z</time>
      </trkpt>
      <trkpt lat="43.01415321417152881622314453125" lon="-5.9579546749591827392578125">
        <ele>2266.199951171875</ele>
        <time>2022-02-23T15:49:04.000Z</time>
      </trkpt>
      <trkpt lat="43.01415623165667057037353515625" lon="-5.957953669130802154541015625">
        <ele>2266.39990234375</ele>
        <time>2022-02-23T15:49:05.000Z</time>
      </trkpt>
      <trkpt lat="43.014156483113765716552734375" lon="-5.95794704742729663848876953125">
        <ele>2266.39990234375</ele>
        <time>2022-02-23T15:49:08.000Z</time>
      </trkpt>
      <trkpt lat="43.01415078341960906982421875" lon="-5.95794327557086944580078125">
        <ele>2266</ele>
        <time>2022-02-23T15:49:10.000Z</time>
      </trkpt>
      <trkpt lat="43.01414466463029384613037109375" lon="-5.9579380787909030914306640625">
        <ele>2265.60009765625</ele>
        <time>2022-02-23T15:49:14.000Z</time>
      </trkpt>
      <trkpt lat="43.01413645036518573760986328125" lon="-5.9579266794025897979736328125">
        <ele>2265</ele>
        <time>2022-02-23T15:49:26.000Z</time>
      </trkpt>
      <trkpt lat="43.0141140706837177276611328125" lon="-5.9578861109912395477294921875">
        <ele>2263</ele>
        <time>2022-02-23T15:49:39.000Z</time>
      </trkpt>
      <trkpt lat="43.01409034989774227142333984375" lon="-5.9577982686460018157958984375">
        <ele>2259.39990234375</ele>
        <time>2022-02-23T15:50:13.000Z</time>
      </trkpt>
      <trkpt lat="43.01408280618488788604736328125" lon="-5.9577127732336521148681640625">
        <ele>2257.199951171875</ele>
        <time>2022-02-23T15:51:12.000Z</time>
      </trkpt>
      <trkpt lat="43.01408029161393642425537109375" lon="-5.9577124379575252532958984375">
        <ele>2257.199951171875</ele>
        <time>2022-02-23T15:51:13.000Z</time>
      </trkpt>
      <trkpt lat="43.0140808783471584320068359375" lon="-5.95771185122430324554443359375">
        <ele>2257.199951171875</ele>
        <time>2022-02-23T15:51:14.000Z</time>
      </trkpt>
      <trkpt lat="43.01407878287136554718017578125" lon="-5.957710258662700653076171875">
        <ele>2257</ele>
        <time>2022-02-23T15:51:15.000Z</time>
      </trkpt>
      <trkpt lat="43.0140778608620166778564453125" lon="-5.95771285705268383026123046875">
        <ele>2257</ele>
        <time>2022-02-23T15:51:16.000Z</time>
      </trkpt>
      <trkpt lat="43.0140771903097629547119140625" lon="-5.95770724117755889892578125">
        <ele>2256.800048828125</ele>
        <time>2022-02-23T15:51:17.000Z</time>
      </trkpt>
      <trkpt lat="43.01407978869974613189697265625" lon="-5.95767228864133358001708984375">
        <ele>2256.199951171875</ele>
        <time>2022-02-23T15:51:27.000Z</time>
      </trkpt>
      <trkpt lat="43.01408599130809307098388671875" lon="-5.957635156810283660888671875">
        <ele>2255.800048828125</ele>
        <time>2022-02-23T15:51:54.000Z</time>
      </trkpt>
      <trkpt lat="43.014080040156841278076171875" lon="-5.957662649452686309814453125">
        <ele>2256</ele>
        <time>2022-02-23T15:52:16.000Z</time>
      </trkpt>
      <trkpt lat="43.0140776932239532470703125" lon="-5.9576433710753917694091796875">
        <ele>2255.60009765625</ele>
        <time>2022-02-23T15:52:33.000Z</time>
      </trkpt>
      <trkpt lat="43.01403955556452274322509765625" lon="-5.9576054848730564117431640625">
        <ele>2252.800048828125</ele>
        <time>2022-02-23T15:53:23.000Z</time>
      </trkpt>
      <trkpt lat="43.01398909650743007659912109375" lon="-5.95759567804634571075439453125">
        <ele>2250</ele>
        <time>2022-02-23T15:54:00.000Z</time>
      </trkpt>
      <trkpt lat="43.01395154558122158050537109375" lon="-5.957543961703777313232421875">
        <ele>2246.60009765625</ele>
        <time>2022-02-23T15:54:39.000Z</time>
      </trkpt>
      <trkpt lat="43.0139457620680332183837890625" lon="-5.95753566361963748931884765625">
        <ele>2246</ele>
        <time>2022-02-23T15:54:52.000Z</time>
      </trkpt>
      <trkpt lat="43.0139447562396526336669921875" lon="-5.95753784291446208953857421875">
        <ele>2246</ele>
        <time>2022-02-23T15:55:04.000Z</time>
      </trkpt>
      <trkpt lat="43.013890273869037628173828125" lon="-5.95752485096454620361328125">
        <ele>2242.800048828125</ele>
        <time>2022-02-23T15:56:02.000Z</time>
      </trkpt>
      <trkpt lat="43.01380687393248081207275390625" lon="-5.95757715404033660888671875">
        <ele>2239.60009765625</ele>
        <time>2022-02-23T15:57:01.000Z</time>
      </trkpt>
      <trkpt lat="43.01374468021094799041748046875" lon="-5.9575947560369968414306640625">
        <ele>2236.199951171875</ele>
        <time>2022-02-23T15:57:28.000Z</time>
      </trkpt>
      <trkpt lat="43.01373504102230072021484375" lon="-5.9576041437685489654541015625">
        <ele>2236</ele>
        <time>2022-02-23T15:57:33.000Z</time>
      </trkpt>
      <trkpt lat="43.0137345381081104278564453125" lon="-5.95760623924434185028076171875">
        <ele>2236</ele>
        <time>2022-02-23T15:57:34.000Z</time>
      </trkpt>
      <trkpt lat="43.01372624002397060394287109375" lon="-5.95761260949075222015380859375">
        <ele>2235.60009765625</ele>
        <time>2022-02-23T15:57:43.000Z</time>
      </trkpt>
      <trkpt lat="43.01370084285736083984375" lon="-5.95763138495385646820068359375">
        <ele>2234.199951171875</ele>
        <time>2022-02-23T15:58:04.000Z</time>
      </trkpt>
      <trkpt lat="43.01367242820560932159423828125" lon="-5.9576359950006008148193359375">
        <ele>2232.199951171875</ele>
        <time>2022-02-23T15:58:33.000Z</time>
      </trkpt>
      <trkpt lat="43.013678379356861114501953125" lon="-5.95767698250710964202880859375">
        <ele>2233.199951171875</ele>
        <time>2022-02-23T15:59:02.000Z</time>
      </trkpt>
      <trkpt lat="43.01367829553782939910888671875" lon="-5.95771838910877704620361328125">
        <ele>2233.800048828125</ele>
        <time>2022-02-23T15:59:21.000Z</time>
      </trkpt>
      <trkpt lat="43.01368064247071743011474609375" lon="-5.9577763080596923828125">
        <ele>2234.800048828125</ele>
        <time>2022-02-23T15:59:34.000Z</time>
      </trkpt>
      <trkpt lat="43.01367561332881450653076171875" lon="-5.9577721171081066131591796875">
        <ele>2234.39990234375</ele>
        <time>2022-02-23T15:59:40.000Z</time>
      </trkpt>
      <trkpt lat="43.013668991625308990478515625" lon="-5.9577669203281402587890625">
        <ele>2234</ele>
        <time>2022-02-23T15:59:42.000Z</time>
      </trkpt>
      <trkpt lat="43.01365750841796398162841796875" lon="-5.95775954425334930419921875">
        <ele>2233</ele>
        <time>2022-02-23T15:59:44.000Z</time>
      </trkpt>
      <trkpt lat="43.01355122588574886322021484375" lon="-5.95771729946136474609375">
        <ele>2224.800048828125</ele>
        <time>2022-02-23T16:00:41.000Z</time>
      </trkpt>
      <trkpt lat="43.0135058797895908355712890625" lon="-5.95770112238824367523193359375">
        <ele>2221.199951171875</ele>
        <time>2022-02-23T16:01:13.000Z</time>
      </trkpt>
      <trkpt lat="43.01349188201129436492919921875" lon="-5.9576852805912494659423828125">
        <ele>2220</ele>
        <time>2022-02-23T16:01:19.000Z</time>
      </trkpt>
      <trkpt lat="43.013487271964550018310546875" lon="-5.957687459886074066162109375">
        <ele>2219.60009765625</ele>
        <time>2022-02-23T16:01:22.000Z</time>
      </trkpt>
      <trkpt lat="43.013449721038341522216796875" lon="-5.95767237246036529541015625">
        <ele>2216.199951171875</ele>
        <time>2022-02-23T16:01:51.000Z</time>
      </trkpt>
      <trkpt lat="43.0134244076907634735107421875" lon="-5.95747715793550014495849609375">
        <ele>2205.60009765625</ele>
        <time>2022-02-23T16:03:30.000Z</time>
      </trkpt>
      <trkpt lat="43.01340521313250064849853515625" lon="-5.957462154328823089599609375">
        <ele>2203</ele>
        <time>2022-02-23T16:03:53.000Z</time>
      </trkpt>
      <trkpt lat="43.01340781152248382568359375" lon="-5.95745980739593505859375">
        <ele>2203.199951171875</ele>
        <time>2022-02-23T16:04:01.000Z</time>
      </trkpt>
      <trkpt lat="43.01340621896088123321533203125" lon="-5.9574556164443492889404296875">
        <ele>2202.800048828125</ele>
        <time>2022-02-23T16:04:04.000Z</time>
      </trkpt>
      <trkpt lat="43.0134069733321666717529296875" lon="-5.957450754940509796142578125">
        <ele>2202.60009765625</ele>
        <time>2022-02-23T16:04:11.000Z</time>
      </trkpt>
      <trkpt lat="43.01337537355720996856689453125" lon="-5.95741798169910907745361328125">
        <ele>2198.60009765625</ele>
        <time>2022-02-23T16:04:33.000Z</time>
      </trkpt>
      <trkpt lat="43.01321276463568210601806640625" lon="-5.957377664744853973388671875">
        <ele>2184.199951171875</ele>
        <time>2022-02-23T16:05:54.000Z</time>
      </trkpt>
      <trkpt lat="43.01320530474185943603515625" lon="-5.95735645852982997894287109375">
        <ele>2182.800048828125</ele>
        <time>2022-02-23T16:06:03.000Z</time>
      </trkpt>
      <trkpt lat="43.01317739300429821014404296875" lon="-5.95735360868275165557861328125">
        <ele>2181</ele>
        <time>2022-02-23T16:06:22.000Z</time>
      </trkpt>
      <trkpt lat="43.01317102275788784027099609375" lon="-5.95735461451113224029541015625">
        <ele>2180.60009765625</ele>
        <time>2022-02-23T16:06:27.000Z</time>
      </trkpt>
      <trkpt lat="43.013163395226001739501953125" lon="-5.95735142938792705535888671875">
        <ele>2180</ele>
        <time>2022-02-23T16:06:30.000Z</time>
      </trkpt>
      <trkpt lat="43.01315995864570140838623046875" lon="-5.95735310576856136322021484375">
        <ele>2180</ele>
        <time>2022-02-23T16:06:33.000Z</time>
      </trkpt>
      <trkpt lat="43.0131075717508792877197265625" lon="-5.9573728032410144805908203125">
        <ele>2177.39990234375</ele>
        <time>2022-02-23T16:06:50.000Z</time>
      </trkpt>
      <trkpt lat="43.0129409395158290863037109375" lon="-5.957365594804286956787109375">
        <ele>2167.60009765625</ele>
        <time>2022-02-23T16:07:49.000Z</time>
      </trkpt>
      <trkpt lat="43.01286659203469753265380859375" lon="-5.957377664744853973388671875">
        <ele>2164.60009765625</ele>
        <time>2022-02-23T16:08:11.000Z</time>
      </trkpt>
      <trkpt lat="43.01275360397994518280029296875" lon="-5.957331396639347076416015625">
        <ele>2159</ele>
        <time>2022-02-23T16:08:36.000Z</time>
      </trkpt>
      <trkpt lat="43.01274907775223255157470703125" lon="-5.95732812769711017608642578125">
        <ele>2158.60009765625</ele>
        <time>2022-02-23T16:08:37.000Z</time>
      </trkpt>
      <trkpt lat="43.01273700781166553497314453125" lon="-5.95731857232749462127685546875">
        <ele>2158</ele>
        <time>2022-02-23T16:08:39.000Z</time>
      </trkpt>
      <trkpt lat="43.01256249658763408660888671875" lon="-5.95722335390746593475341796875">
        <ele>2146.800048828125</ele>
        <time>2022-02-23T16:09:04.000Z</time>
      </trkpt>
      <trkpt lat="43.01253299228847026824951171875" lon="-5.95726668834686279296875">
        <ele>2146.800048828125</ele>
        <time>2022-02-23T16:09:41.000Z</time>
      </trkpt>
      <trkpt lat="43.0124289728701114654541015625" lon="-5.95721581019461154937744140625">
        <ele>2140.39990234375</ele>
        <time>2022-02-23T16:10:09.000Z</time>
      </trkpt>
      <trkpt lat="43.01236619241535663604736328125" lon="-5.9571977891027927398681640625">
        <ele>2137.199951171875</ele>
        <time>2022-02-23T16:10:18.000Z</time>
      </trkpt>
      <trkpt lat="43.01223107613623142242431640625" lon="-5.95710701309144496917724609375">
        <ele>2124.199951171875</ele>
        <time>2022-02-23T16:10:35.000Z</time>
      </trkpt>
      <trkpt lat="43.012191094458103179931640625" lon="-5.9570613317191600799560546875">
        <ele>2119.199951171875</ele>
        <time>2022-02-23T16:10:41.000Z</time>
      </trkpt>
      <trkpt lat="43.01217801868915557861328125" lon="-5.95705303363502025604248046875">
        <ele>2117.800048828125</ele>
        <time>2022-02-23T16:10:43.000Z</time>
      </trkpt>
      <trkpt lat="43.0121433176100254058837890625" lon="-5.957009531557559967041015625">
        <ele>2113</ele>
        <time>2022-02-23T16:10:49.000Z</time>
      </trkpt>
      <trkpt lat="43.0121304094791412353515625" lon="-5.956992097198963165283203125">
        <ele>2111.39990234375</ele>
        <time>2022-02-23T16:10:52.000Z</time>
      </trkpt>
      <trkpt lat="43.011988587677478790283203125" lon="-5.9568407200276851654052734375">
        <ele>2097.800048828125</ele>
        <time>2022-02-23T16:11:23.000Z</time>
      </trkpt>
      <trkpt lat="43.011902086436748504638671875" lon="-5.95675564371049404144287109375">
        <ele>2089.60009765625</ele>
        <time>2022-02-23T16:11:43.000Z</time>
      </trkpt>
      <trkpt lat="43.0117634497582912445068359375" lon="-5.95658917911350727081298828125">
        <ele>2069.60009765625</ele>
        <time>2022-02-23T16:12:13.000Z</time>
      </trkpt>
      <trkpt lat="43.0116357095539569854736328125" lon="-5.95642154105007648468017578125">
        <ele>2055.800048828125</ele>
        <time>2022-02-23T16:12:40.000Z</time>
      </trkpt>
      <trkpt lat="43.0114871822297573089599609375" lon="-5.95629095099866390228271484375">
        <ele>2047.199951171875</ele>
        <time>2022-02-23T16:13:09.000Z</time>
      </trkpt>
      <trkpt lat="43.0113939754664897918701171875" lon="-5.9562841616570949554443359375">
        <ele>2044.800048828125</ele>
        <time>2022-02-23T16:13:23.000Z</time>
      </trkpt>
      <trkpt lat="43.0114063806831836700439453125" lon="-5.956284999847412109375">
        <ele>2045</ele>
        <time>2022-02-23T16:15:10.000Z</time>
      </trkpt>
      <trkpt lat="43.011404536664485931396484375" lon="-5.956279300153255462646484375">
        <ele>2044.800048828125</ele>
        <time>2022-02-23T16:15:11.000Z</time>
      </trkpt>
      <trkpt lat="43.01137042231857776641845703125" lon="-5.9562516398727893829345703125">
        <ele>2043.4000244140625</ele>
        <time>2022-02-23T16:15:16.000Z</time>
      </trkpt>
      <trkpt lat="43.01119037903845310211181640625" lon="-5.95622758381068706512451171875">
        <ele>2036.4000244140625</ele>
        <time>2022-02-23T16:15:39.000Z</time>
      </trkpt>
      <trkpt lat="43.011006228625774383544921875" lon="-5.95626731403172016143798828125">
        <ele>2028.4000244140625</ele>
        <time>2022-02-23T16:16:02.000Z</time>
      </trkpt>
      <trkpt lat="43.01094143651425838470458984375" lon="-5.9562647156417369842529296875">
        <ele>2024.4000244140625</ele>
        <time>2022-02-23T16:16:09.000Z</time>
      </trkpt>
      <trkpt lat="43.01075837574899196624755859375" lon="-5.95621719025075435638427734375">
        <ele>2011.4000244140625</ele>
        <time>2022-02-23T16:16:36.000Z</time>
      </trkpt>
      <trkpt lat="43.010578416287899017333984375" lon="-5.956166647374629974365234375">
        <ele>2001.199951171875</ele>
        <time>2022-02-23T16:17:01.000Z</time>
      </trkpt>
      <trkpt lat="43.010536171495914459228515625" lon="-5.95617611892521381378173828125">
        <ele>1999.4000244140625</ele>
        <time>2022-02-23T16:17:05.000Z</time>
      </trkpt>
      <trkpt lat="43.01035067997872829437255859375" lon="-5.95615264959633350372314453125">
        <ele>1992.800048828125</ele>
        <time>2022-02-23T16:17:23.000Z</time>
      </trkpt>
      <trkpt lat="43.0101749114692211151123046875" lon="-5.95611828379333019256591796875">
        <ele>1988.4000244140625</ele>
        <time>2022-02-23T16:17:41.000Z</time>
      </trkpt>
      <trkpt lat="43.01012168638408184051513671875" lon="-5.95611409284174442291259765625">
        <ele>1987</ele>
        <time>2022-02-23T16:17:46.000Z</time>
      </trkpt>
      <trkpt lat="43.01006837747991085052490234375" lon="-5.95609598793089389801025390625">
        <ele>1985.800048828125</ele>
        <time>2022-02-23T16:17:51.000Z</time>
      </trkpt>
      <trkpt lat="43.0100582353770732879638671875" lon="-5.95609255135059356689453125">
        <ele>1985.5999755859375</ele>
        <time>2022-02-23T16:17:52.000Z</time>
      </trkpt>
      <trkpt lat="43.0100471712648868560791015625" lon="-5.95608911477029323577880859375">
        <ele>1985.4000244140625</ele>
        <time>2022-02-23T16:17:53.000Z</time>
      </trkpt>
      <trkpt lat="43.0100347660481929779052734375" lon="-5.956087522208690643310546875">
        <ele>1985.199951171875</ele>
        <time>2022-02-23T16:17:54.000Z</time>
      </trkpt>
      <trkpt lat="43.01001087762415409088134765625" lon="-5.956083498895168304443359375">
        <ele>1984.800048828125</ele>
        <time>2022-02-23T16:17:56.000Z</time>
      </trkpt>
      <trkpt lat="43.00999998115003108978271484375" lon="-5.95608274452388286590576171875">
        <ele>1984.5999755859375</ele>
        <time>2022-02-23T16:17:57.000Z</time>
      </trkpt>
      <trkpt lat="43.00983049906790256500244140625" lon="-5.95599389635026454925537109375">
        <ele>1979.199951171875</ele>
        <time>2022-02-23T16:18:11.000Z</time>
      </trkpt>
      <trkpt lat="43.009671829640865325927734375" lon="-5.95595332793891429901123046875">
        <ele>1976.800048828125</ele>
        <time>2022-02-23T16:18:28.000Z</time>
      </trkpt>
      <trkpt lat="43.00965012051165103912353515625" lon="-5.95594905316829681396484375">
        <ele>1976.4000244140625</ele>
        <time>2022-02-23T16:18:30.000Z</time>
      </trkpt>
      <trkpt lat="43.00964073278009891510009765625" lon="-5.95594377256929874420166015625">
        <ele>1976.199951171875</ele>
        <time>2022-02-23T16:18:31.000Z</time>
      </trkpt>
      <trkpt lat="43.0096324346959590911865234375" lon="-5.95593555830419063568115234375">
        <ele>1975.800048828125</ele>
        <time>2022-02-23T16:18:32.000Z</time>
      </trkpt>
      <trkpt lat="43.00962388515472412109375" lon="-5.955929271876811981201171875">
        <ele>1975.5999755859375</ele>
        <time>2022-02-23T16:18:33.000Z</time>
      </trkpt>
      <trkpt lat="43.0096144974231719970703125" lon="-5.95592399127781391143798828125">
        <ele>1975.5999755859375</ele>
        <time>2022-02-23T16:18:34.000Z</time>
      </trkpt>
      <trkpt lat="43.00960469059646129608154296875" lon="-5.95591954886913299560546875">
        <ele>1975.4000244140625</ele>
        <time>2022-02-23T16:18:35.000Z</time>
      </trkpt>
      <trkpt lat="43.00958692096173763275146484375" lon="-5.95591644756495952606201171875">
        <ele>1975.5999755859375</ele>
        <time>2022-02-23T16:18:37.000Z</time>
      </trkpt>
      <trkpt lat="43.0095580033957958221435546875" lon="-5.955812595784664154052734375">
        <ele>1974.4000244140625</ele>
        <time>2022-02-23T16:18:50.000Z</time>
      </trkpt>
      <trkpt lat="43.0095412395894527435302734375" lon="-5.955769009888172149658203125">
        <ele>1973.800048828125</ele>
        <time>2022-02-23T16:19:19.000Z</time>
      </trkpt>
      <trkpt lat="43.0094949714839458465576171875" lon="-5.955747552216053009033203125">
        <ele>1973.5999755859375</ele>
        <time>2022-02-23T16:19:29.000Z</time>
      </trkpt>
      <trkpt lat="43.00947569310665130615234375" lon="-5.95574310980737209320068359375">
        <ele>1973.5999755859375</ele>
        <time>2022-02-23T16:19:37.000Z</time>
      </trkpt>
      <trkpt lat="43.00947032868862152099609375" lon="-5.9557416848838329315185546875">
        <ele>1973.5999755859375</ele>
        <time>2022-02-23T16:19:40.000Z</time>
      </trkpt>
      <trkpt lat="43.00961927510797977447509765625" lon="-5.95593161880970001220703125">
        <ele>1975.5999755859375</ele>
        <time>2022-02-23T16:34:09.000Z</time>
      </trkpt>
      <trkpt lat="43.00960854627192020416259765625" lon="-5.95592935569584369659423828125">
        <ele>1975.5999755859375</ele>
        <time>2022-02-23T16:34:10.000Z</time>
      </trkpt>
      <trkpt lat="43.00961508415639400482177734375" lon="-5.9559039585292339324951171875">
        <ele>1975.199951171875</ele>
        <time>2022-02-23T16:34:14.000Z</time>
      </trkpt>
      <trkpt lat="43.00961315631866455078125" lon="-5.95586900599300861358642578125">
        <ele>1975</ele>
        <time>2022-02-23T16:34:16.000Z</time>
      </trkpt>
      <trkpt lat="43.0096310935914516448974609375" lon="-5.9558841772377490997314453125">
        <ele>1975</ele>
        <time>2022-02-23T16:34:17.000Z</time>
      </trkpt>
      <trkpt lat="43.009659089148044586181640625" lon="-5.955907814204692840576171875">
        <ele>1975.4000244140625</ele>
        <time>2022-02-23T16:34:19.000Z</time>
      </trkpt>
      <trkpt lat="43.009671159088611602783203125" lon="-5.95591929741203784942626953125">
        <ele>1975.800048828125</ele>
        <time>2022-02-23T16:34:20.000Z</time>
      </trkpt>
      <trkpt lat="43.00968113355338573455810546875" lon="-5.9559284336864948272705078125">
        <ele>1976.199951171875</ele>
        <time>2022-02-23T16:34:21.000Z</time>
      </trkpt>
      <trkpt lat="43.0097383819520473480224609375" lon="-5.95590856857597827911376953125">
        <ele>1976.4000244140625</ele>
        <time>2022-02-23T16:34:28.000Z</time>
      </trkpt>
      <trkpt lat="43.009803593158721923828125" lon="-5.955876968801021575927734375">
        <ele>1976.199951171875</ele>
        <time>2022-02-23T16:34:35.000Z</time>
      </trkpt>
      <trkpt lat="43.0098523758351802825927734375" lon="-5.9558442793786525726318359375">
        <ele>1976</ele>
        <time>2022-02-23T16:34:40.000Z</time>
      </trkpt>
      <trkpt lat="43.00986989401280879974365234375" lon="-5.9558184631168842315673828125">
        <ele>1975.5999755859375</ele>
        <time>2022-02-23T16:34:43.000Z</time>
      </trkpt>
      <trkpt lat="43.00988900475203990936279296875" lon="-5.95580597408115863800048828125">
        <ele>1975.5999755859375</ele>
        <time>2022-02-23T16:34:45.000Z</time>
      </trkpt>
      <trkpt lat="43.00991297699511051177978515625" lon="-5.95577345229685306549072265625">
        <ele>1975.199951171875</ele>
        <time>2022-02-23T16:34:49.000Z</time>
      </trkpt>
      <trkpt lat="43.01006150431931018829345703125" lon="-5.9556333906948566436767578125">
        <ele>1974.5999755859375</ele>
        <time>2022-02-23T16:35:05.000Z</time>
      </trkpt>
      <trkpt lat="43.01013425923883914947509765625" lon="-5.95560447312891483306884765625">
        <ele>1975.199951171875</ele>
        <time>2022-02-23T16:35:13.000Z</time>
      </trkpt>
      <trkpt lat="43.01020969636738300323486328125" lon="-5.9555559419095516204833984375">
        <ele>1976</ele>
        <time>2022-02-23T16:35:25.000Z</time>
      </trkpt>
      <trkpt lat="43.01030944101512432098388671875" lon="-5.95549215562641620635986328125">
        <ele>1977.199951171875</ele>
        <time>2022-02-23T16:35:36.000Z</time>
      </trkpt>
      <trkpt lat="43.01040910184383392333984375" lon="-5.95528629608452320098876953125">
        <ele>1976</ele>
        <time>2022-02-23T16:35:58.000Z</time>
      </trkpt>
      <trkpt lat="43.01042108796536922454833984375" lon="-5.95524086616933345794677734375">
        <ele>1975.5999755859375</ele>
        <time>2022-02-23T16:36:02.000Z</time>
      </trkpt>
      <trkpt lat="43.0105413682758808135986328125" lon="-5.9550402872264385223388671875">
        <ele>1975.199951171875</ele>
        <time>2022-02-23T16:36:23.000Z</time>
      </trkpt>
      <trkpt lat="43.01067288033664226531982421875" lon="-5.95486669801175594329833984375">
        <ele>1974.800048828125</ele>
        <time>2022-02-23T16:36:41.000Z</time>
      </trkpt>
      <trkpt lat="43.0108219943940639495849609375" lon="-5.9547172486782073974609375">
        <ele>1974.800048828125</ele>
        <time>2022-02-23T16:37:04.000Z</time>
      </trkpt>
      <trkpt lat="43.0109797418117523193359375" lon="-5.95458707772195339202880859375">
        <ele>1975.800048828125</ele>
        <time>2022-02-23T16:37:18.000Z</time>
      </trkpt>
      <trkpt lat="43.0111395008862018585205078125" lon="-5.95445430837571620941162109375">
        <ele>1974.199951171875</ele>
        <time>2022-02-23T16:37:35.000Z</time>
      </trkpt>
      <trkpt lat="43.0112957395613193511962890625" lon="-5.95432824455201625823974609375">
        <ele>1972.4000244140625</ele>
        <time>2022-02-23T16:37:51.000Z</time>
      </trkpt>
      <trkpt lat="43.0114330351352691650390625" lon="-5.954195223748683929443359375">
        <ele>1969.5999755859375</ele>
        <time>2022-02-23T16:38:06.000Z</time>
      </trkpt>
      <trkpt lat="43.01156035624444484710693359375" lon="-5.9540995024144649505615234375">
        <ele>1969.199951171875</ele>
        <time>2022-02-23T16:38:19.000Z</time>
      </trkpt>
      <trkpt lat="43.01168357022106647491455078125" lon="-5.95391593873500823974609375">
        <ele>1969</ele>
        <time>2022-02-23T16:38:42.000Z</time>
      </trkpt>
      <trkpt lat="43.01182036288082599639892578125" lon="-5.95377151854336261749267578125">
        <ele>1971.5999755859375</ele>
        <time>2022-02-23T16:39:20.000Z</time>
      </trkpt>
      <trkpt lat="43.01187652163207530975341796875" lon="-5.95370806753635406494140625">
        <ele>1972</ele>
        <time>2022-02-23T16:39:27.000Z</time>
      </trkpt>
      <trkpt lat="43.0119103007018566131591796875" lon="-5.95367596484720706939697265625">
        <ele>1972.5999755859375</ele>
        <time>2022-02-23T16:39:31.000Z</time>
      </trkpt>
      <trkpt lat="43.01201817579567432403564453125" lon="-5.953488461673259735107421875">
        <ele>1971.800048828125</ele>
        <time>2022-02-23T16:39:52.000Z</time>
      </trkpt>
      <trkpt lat="43.01203443668782711029052734375" lon="-5.9534738771617412567138671875">
        <ele>1972.199951171875</ele>
        <time>2022-02-23T16:40:19.000Z</time>
      </trkpt>
      <trkpt lat="43.01202890463173389434814453125" lon="-5.9534876234829425811767578125">
        <ele>1972.4000244140625</ele>
        <time>2022-02-23T16:41:08.000Z</time>
      </trkpt>
      <trkpt lat="43.0120003223419189453125" lon="-5.9534909762442111968994140625">
        <ele>1971.199951171875</ele>
        <time>2022-02-23T16:41:18.000Z</time>
      </trkpt>
      <trkpt lat="43.0120075307786464691162109375" lon="-5.95345485024154186248779296875">
        <ele>1970.4000244140625</ele>
        <time>2022-02-23T16:41:58.000Z</time>
      </trkpt>
      <trkpt lat="43.01202001981437206268310546875" lon="-5.95344747416675090789794921875">
        <ele>1970.800048828125</ele>
        <time>2022-02-23T16:42:07.000Z</time>
      </trkpt>
      <trkpt lat="43.012040555477142333984375" lon="-5.95340942032635211944580078125">
        <ele>1970.800048828125</ele>
        <time>2022-02-23T16:42:22.000Z</time>
      </trkpt>
      <trkpt lat="43.01204524934291839599609375" lon="-5.95340707339346408843994140625">
        <ele>1970.800048828125</ele>
        <time>2022-02-23T16:42:24.000Z</time>
      </trkpt>
      <trkpt lat="43.01204550080001354217529296875" lon="-5.95340657047927379608154296875">
        <ele>1970.800048828125</ele>
        <time>2022-02-23T16:42:25.000Z</time>
      </trkpt>
      <trkpt lat="43.01204114221036434173583984375" lon="-5.95340539701282978057861328125">
        <ele>1970.5999755859375</ele>
        <time>2022-02-23T16:42:26.000Z</time>
      </trkpt>
      <trkpt lat="43.01204734481871128082275390625" lon="-5.95339567400515079498291015625">
        <ele>1970.5999755859375</ele>
        <time>2022-02-23T16:42:30.000Z</time>
      </trkpt>
      <trkpt lat="43.01205069757997989654541015625" lon="-5.95339332707226276397705078125">
        <ele>1970.800048828125</ele>
        <time>2022-02-23T16:42:31.000Z</time>
      </trkpt>
      <trkpt lat="43.01205321215093135833740234375" lon="-5.953385867178440093994140625">
        <ele>1970.800048828125</ele>
        <time>2022-02-23T16:42:33.000Z</time>
      </trkpt>
      <trkpt lat="43.0120571516454219818115234375" lon="-5.95337857492268085479736328125">
        <ele>1970.5999755859375</ele>
        <time>2022-02-23T16:42:35.000Z</time>
      </trkpt>
      <trkpt lat="43.01205773837864398956298828125" lon="-5.9533736295998096466064453125">
        <ele>1970.5999755859375</ele>
        <time>2022-02-23T16:42:37.000Z</time>
      </trkpt>
      <trkpt lat="43.01207416690886020660400390625" lon="-5.9533561952412128448486328125">
        <ele>1970.800048828125</ele>
        <time>2022-02-23T16:42:43.000Z</time>
      </trkpt>
      <trkpt lat="43.0120943672955036163330078125" lon="-5.95333146862685680389404296875">
        <ele>1970.800048828125</ele>
        <time>2022-02-23T16:42:50.000Z</time>
      </trkpt>
      <trkpt lat="43.0120950378477573394775390625" lon="-5.95332920551300048828125">
        <ele>1970.800048828125</ele>
        <time>2022-02-23T16:42:51.000Z</time>
      </trkpt>
      <trkpt lat="43.01209713332355022430419921875" lon="-5.9533263556659221649169921875">
        <ele>1970.800048828125</ele>
        <time>2022-02-23T16:42:52.000Z</time>
      </trkpt>
      <trkpt lat="43.01209679804742336273193359375" lon="-5.953325517475605010986328125">
        <ele>1970.800048828125</ele>
        <time>2022-02-23T16:42:54.000Z</time>
      </trkpt>
      <trkpt lat="43.012097217142581939697265625" lon="-5.95332342199981212615966796875">
        <ele>1970.800048828125</ele>
        <time>2022-02-23T16:42:55.000Z</time>
      </trkpt>
      <trkpt lat="43.01210962235927581787109375" lon="-5.95331621356308460235595703125">
        <ele>1970.800048828125</ele>
        <time>2022-02-23T16:42:59.000Z</time>
      </trkpt>
      <trkpt lat="43.01210970617830753326416015625" lon="-5.95331051386892795562744140625">
        <ele>1970.5999755859375</ele>
        <time>2022-02-23T16:43:02.000Z</time>
      </trkpt>
      <trkpt lat="43.01211188547313213348388671875" lon="-5.953306071460247039794921875">
        <ele>1970.5999755859375</ele>
        <time>2022-02-23T16:43:04.000Z</time>
      </trkpt>
      <trkpt lat="43.01211364567279815673828125" lon="-5.95329995267093181610107421875">
        <ele>1970.4000244140625</ele>
        <time>2022-02-23T16:43:06.000Z</time>
      </trkpt>
      <trkpt lat="43.01213719882071018218994140625" lon="-5.95326877199113368988037109375">
        <ele>1970</ele>
        <time>2022-02-23T16:43:14.000Z</time>
      </trkpt>
      <trkpt lat="43.0122050084173679351806640625" lon="-5.95318160019814968109130859375">
        <ele>1968.800048828125</ele>
        <time>2022-02-23T16:43:35.000Z</time>
      </trkpt>
      <trkpt lat="43.012204505503177642822265625" lon="-5.9531774930655956268310546875">
        <ele>1968.5999755859375</ele>
        <time>2022-02-23T16:43:37.000Z</time>
      </trkpt>
      <trkpt lat="43.012288324534893035888671875" lon="-5.952958725392818450927734375">
        <ele>1962.800048828125</ele>
        <time>2022-02-23T16:44:06.000Z</time>
      </trkpt>
      <trkpt lat="43.01241338253021240234375" lon="-5.95278245396912097930908203125">
        <ele>1960.199951171875</ele>
        <time>2022-02-23T16:44:32.000Z</time>
      </trkpt>
      <trkpt lat="43.01254740916192531585693359375" lon="-5.9526172466576099395751953125">
        <ele>1960.4000244140625</ele>
        <time>2022-02-23T16:45:01.000Z</time>
      </trkpt>
      <trkpt lat="43.01266173832118511199951171875" lon="-5.9524335153400897979736328125">
        <ele>1959.5999755859375</ele>
        <time>2022-02-23T16:45:31.000Z</time>
      </trkpt>
      <trkpt lat="43.0127696134150028228759765625" lon="-5.95224970020353794097900390625">
        <ele>1956.4000244140625</ele>
        <time>2022-02-23T16:46:12.000Z</time>
      </trkpt>
      <trkpt lat="43.01288721151649951934814453125" lon="-5.9520573355257511138916015625">
        <ele>1953.4000244140625</ele>
        <time>2022-02-23T16:46:44.000Z</time>
      </trkpt>
      <trkpt lat="43.01291570998728275299072265625" lon="-5.95187117345631122589111328125">
        <ele>1950.4000244140625</ele>
        <time>2022-02-23T16:47:03.000Z</time>
      </trkpt>
      <trkpt lat="43.01302953623235225677490234375" lon="-5.95167302526533603668212890625">
        <ele>1953.800048828125</ele>
        <time>2022-02-23T16:47:29.000Z</time>
      </trkpt>
      <trkpt lat="43.01305241882801055908203125" lon="-5.9516462869942188262939453125">
        <ele>1954.800048828125</ele>
        <time>2022-02-23T16:47:32.000Z</time>
      </trkpt>
      <trkpt lat="43.0131183005869388580322265625" lon="-5.95151695422828197479248046875">
        <ele>1957.5999755859375</ele>
        <time>2022-02-23T16:47:44.000Z</time>
      </trkpt>
      <trkpt lat="43.0131737887859344482421875" lon="-5.95128226093947887420654296875">
        <ele>1959.199951171875</ele>
        <time>2022-02-23T16:48:40.000Z</time>
      </trkpt>
      <trkpt lat="43.0132021196186542510986328125" lon="-5.95103583298623561859130859375">
        <ele>1958.5999755859375</ele>
        <time>2022-02-23T16:49:12.000Z</time>
      </trkpt>
      <trkpt lat="43.0132225714623928070068359375" lon="-5.95090826041996479034423828125">
        <ele>1958.199951171875</ele>
        <time>2022-02-23T16:49:25.000Z</time>
      </trkpt>
      <trkpt lat="43.013223744928836822509765625" lon="-5.95090172253549098968505859375">
        <ele>1958.199951171875</ele>
        <time>2022-02-23T16:49:26.000Z</time>
      </trkpt>
      <trkpt lat="43.01323254592716693878173828125" lon="-5.95086953602731227874755859375">
        <ele>1958</ele>
        <time>2022-02-23T16:49:29.000Z</time>
      </trkpt>
      <trkpt lat="43.01323925144970417022705078125" lon="-5.95080600120127201080322265625">
        <ele>1957.5999755859375</ele>
        <time>2022-02-23T16:49:35.000Z</time>
      </trkpt>
      <trkpt lat="43.01331519149243831634521484375" lon="-5.950591675937175750732421875">
        <ele>1956.199951171875</ele>
        <time>2022-02-23T16:49:57.000Z</time>
      </trkpt>
      <trkpt lat="43.01332927308976650238037109375" lon="-5.95054037868976593017578125">
        <ele>1955.4000244140625</ele>
        <time>2022-02-23T16:50:01.000Z</time>
      </trkpt>
      <trkpt lat="43.0133332125842571258544921875" lon="-5.9505143947899341583251953125">
        <ele>1955</ele>
        <time>2022-02-23T16:50:03.000Z</time>
      </trkpt>
      <trkpt lat="43.013338409364223480224609375" lon="-5.9504986368119716644287109375">
        <ele>1955</ele>
        <time>2022-02-23T16:50:04.000Z</time>
      </trkpt>
      <trkpt lat="43.01334050484001636505126953125" lon="-5.95048799179494380950927734375">
        <ele>1954.800048828125</ele>
        <time>2022-02-23T16:50:05.000Z</time>
      </trkpt>
      <trkpt lat="43.01334251649677753448486328125" lon="-5.95047843642532825469970703125">
        <ele>1954.5999755859375</ele>
        <time>2022-02-23T16:50:06.000Z</time>
      </trkpt>
      <trkpt lat="43.01334788091480731964111328125" lon="-5.950466953217983245849609375">
        <ele>1954.5999755859375</ele>
        <time>2022-02-23T16:50:07.000Z</time>
      </trkpt>
      <trkpt lat="43.01335156895220279693603515625" lon="-5.95045547001063823699951171875">
        <ele>1954.5999755859375</ele>
        <time>2022-02-23T16:50:08.000Z</time>
      </trkpt>
      <trkpt lat="43.01335693337023258209228515625" lon="-5.95044624991714954376220703125">
        <ele>1954.4000244140625</ele>
        <time>2022-02-23T16:50:09.000Z</time>
      </trkpt>
      <trkpt lat="43.01336850039660930633544921875" lon="-5.9504285641014575958251953125">
        <ele>1954.4000244140625</ele>
        <time>2022-02-23T16:50:11.000Z</time>
      </trkpt>
      <trkpt lat="43.0133749544620513916015625" lon="-5.95041909255087375640869140625">
        <ele>1954.4000244140625</ele>
        <time>2022-02-23T16:50:12.000Z</time>
      </trkpt>
      <trkpt lat="43.01338274963200092315673828125" lon="-5.95040920190513134002685546875">
        <ele>1954.4000244140625</ele>
        <time>2022-02-23T16:50:13.000Z</time>
      </trkpt>
      <trkpt lat="43.013397753238677978515625" lon="-5.95037735067307949066162109375">
        <ele>1954</ele>
        <time>2022-02-23T16:50:16.000Z</time>
      </trkpt>
      <trkpt lat="43.013406135141849517822265625" lon="-5.950361005961894989013671875">
        <ele>1953.5999755859375</ele>
        <time>2022-02-23T16:50:18.000Z</time>
      </trkpt>
      <trkpt lat="43.01341057755053043365478515625" lon="-5.9503497742116451263427734375">
        <ele>1953.4000244140625</ele>
        <time>2022-02-23T16:50:19.000Z</time>
      </trkpt>
      <trkpt lat="43.01351836882531642913818359375" lon="-5.95013679005205631256103515625">
        <ele>1949.5999755859375</ele>
        <time>2022-02-23T16:50:37.000Z</time>
      </trkpt>
      <trkpt lat="43.01362247206270694732666015625" lon="-5.94993327744305133819580078125">
        <ele>1945.4000244140625</ele>
        <time>2022-02-23T16:50:56.000Z</time>
      </trkpt>
      <trkpt lat="43.01371668465435504913330078125" lon="-5.94987384974956512451171875">
        <ele>1944.4000244140625</ele>
        <time>2022-02-23T16:51:17.000Z</time>
      </trkpt>
      <trkpt lat="43.01376295275986194610595703125" lon="-5.9498311020433902740478515625">
        <ele>1943.5999755859375</ele>
        <time>2022-02-23T16:51:23.000Z</time>
      </trkpt>
      <trkpt lat="43.0138765275478363037109375" lon="-5.9496949799358844757080078125">
        <ele>1939.800048828125</ele>
        <time>2022-02-23T16:51:38.000Z</time>
      </trkpt>
      <trkpt lat="43.01402078010141849517822265625" lon="-5.9495365619659423828125">
        <ele>1935.199951171875</ele>
        <time>2022-02-23T16:51:55.000Z</time>
      </trkpt>
      <trkpt lat="43.0141838081181049346923828125" lon="-5.9494091570377349853515625">
        <ele>1934.199951171875</ele>
        <time>2022-02-23T16:52:13.000Z</time>
      </trkpt>
      <trkpt lat="43.01426150836050510406494140625" lon="-5.94929390586912631988525390625">
        <ele>1932.4000244140625</ele>
        <time>2022-02-23T16:52:23.000Z</time>
      </trkpt>
      <trkpt lat="43.01439930684864521026611328125" lon="-5.94912911765277385711669921875">
        <ele>1930.199951171875</ele>
        <time>2022-02-23T16:52:37.000Z</time>
      </trkpt>
      <trkpt lat="43.0145324952900409698486328125" lon="-5.9489667601883411407470703125">
        <ele>1927</ele>
        <time>2022-02-23T16:53:00.000Z</time>
      </trkpt>
      <trkpt lat="43.0145901627838611602783203125" lon="-5.9488753974437713623046875">
        <ele>1924.5999755859375</ele>
        <time>2022-02-23T16:53:18.000Z</time>
      </trkpt>
      <trkpt lat="43.01463760435581207275390625" lon="-5.9487364254891872406005859375">
        <ele>1920.199951171875</ele>
        <time>2022-02-23T16:53:41.000Z</time>
      </trkpt>
      <trkpt lat="43.0146448127925395965576171875" lon="-5.94869309104979038238525390625">
        <ele>1918.5999755859375</ele>
        <time>2022-02-23T16:53:48.000Z</time>
      </trkpt>
      <trkpt lat="43.014665432274341583251953125" lon="-5.948657132685184478759765625">
        <ele>1917.4000244140625</ele>
        <time>2022-02-23T16:53:56.000Z</time>
      </trkpt>
      <trkpt lat="43.01473424769937992095947265625" lon="-5.94848178327083587646484375">
        <ele>1912.5999755859375</ele>
        <time>2022-02-23T16:54:17.000Z</time>
      </trkpt>
      <trkpt lat="43.01478738896548748016357421875" lon="-5.94837742857635021209716796875">
        <ele>1910.4000244140625</ele>
        <time>2022-02-23T16:54:25.000Z</time>
      </trkpt>
      <trkpt lat="43.01480314694344997406005859375" lon="-5.94829696230590343475341796875">
        <ele>1909.199951171875</ele>
        <time>2022-02-23T16:54:31.000Z</time>
      </trkpt>
      <trkpt lat="43.01481069065630435943603515625" lon="-5.94826092012226581573486328125">
        <ele>1908.5999755859375</ele>
        <time>2022-02-23T16:54:34.000Z</time>
      </trkpt>
      <trkpt lat="43.01482209004461765289306640625" lon="-5.948005355894565582275390625">
        <ele>1906.199951171875</ele>
        <time>2022-02-23T16:54:52.000Z</time>
      </trkpt>
      <trkpt lat="43.0148231796920299530029296875" lon="-5.94775917939841747283935546875">
        <ele>1902</ele>
        <time>2022-02-23T16:55:09.000Z</time>
      </trkpt>
      <trkpt lat="43.01483030430972576141357421875" lon="-5.947574190795421600341796875">
        <ele>1898</ele>
        <time>2022-02-23T16:55:21.000Z</time>
      </trkpt>
      <trkpt lat="43.01482267677783966064453125" lon="-5.94731795601546764373779296875">
        <ele>1892.800048828125</ele>
        <time>2022-02-23T16:55:37.000Z</time>
      </trkpt>
      <trkpt lat="43.0148379318416118621826171875" lon="-5.94718116335570812225341796875">
        <ele>1892.4000244140625</ele>
        <time>2022-02-23T16:55:45.000Z</time>
      </trkpt>
      <trkpt lat="43.0149271152913570404052734375" lon="-5.946957282721996307373046875">
        <ele>1890.199951171875</ele>
        <time>2022-02-23T16:56:04.000Z</time>
      </trkpt>
      <trkpt lat="43.01504370756447315216064453125" lon="-5.94679542817175388336181640625">
        <ele>1886.199951171875</ele>
        <time>2022-02-23T16:56:22.000Z</time>
      </trkpt>
      <trkpt lat="43.015189468860626220703125" lon="-5.94674329273402690887451171875">
        <ele>1880</ele>
        <time>2022-02-23T16:56:34.000Z</time>
      </trkpt>
      <trkpt lat="43.01534880883991718292236328125" lon="-5.946690738201141357421875">
        <ele>1873.800048828125</ele>
        <time>2022-02-23T16:57:05.000Z</time>
      </trkpt>
      <trkpt lat="43.01544369198381900787353515625" lon="-5.94663583673536777496337890625">
        <ele>1870.199951171875</ele>
        <time>2022-02-23T16:57:26.000Z</time>
      </trkpt>
      <trkpt lat="43.0155681632459163665771484375" lon="-5.94645780511200428009033203125">
        <ele>1863</ele>
        <time>2022-02-23T16:57:53.000Z</time>
      </trkpt>
      <trkpt lat="43.01566086709499359130859375" lon="-5.94638404436409473419189453125">
        <ele>1857.199951171875</ele>
        <time>2022-02-23T16:58:12.000Z</time>
      </trkpt>
      <trkpt lat="43.015720210969448089599609375" lon="-5.94638538546860218048095703125">
        <ele>1855</ele>
        <time>2022-02-23T16:58:21.000Z</time>
      </trkpt>
      <trkpt lat="43.01572884432971477508544921875" lon="-5.9463831223547458648681640625">
        <ele>1854.4000244140625</ele>
        <time>2022-02-23T16:58:22.000Z</time>
      </trkpt>
      <trkpt lat="43.015790618956089019775390625" lon="-5.94633995555341243743896484375">
        <ele>1849.800048828125</ele>
        <time>2022-02-23T16:58:32.000Z</time>
      </trkpt>
      <trkpt lat="43.01580126397311687469482421875" lon="-5.94632453285157680511474609375">
        <ele>1848.800048828125</ele>
        <time>2022-02-23T16:58:35.000Z</time>
      </trkpt>
      <trkpt lat="43.01580528728663921356201171875" lon="-5.94632126390933990478515625">
        <ele>1848.4000244140625</ele>
        <time>2022-02-23T16:58:36.000Z</time>
      </trkpt>
      <trkpt lat="43.01580897532403469085693359375" lon="-5.94631682150065898895263671875">
        <ele>1848</ele>
        <time>2022-02-23T16:58:37.000Z</time>
      </trkpt>
      <trkpt lat="43.01581232808530330657958984375" lon="-5.94627222977578639984130859375">
        <ele>1846.199951171875</ele>
        <time>2022-02-23T16:58:44.000Z</time>
      </trkpt>
      <trkpt lat="43.0158184468746185302734375" lon="-5.946263261139392852783203125">
        <ele>1845.5999755859375</ele>
        <time>2022-02-23T16:58:50.000Z</time>
      </trkpt>
      <trkpt lat="43.015879802405834197998046875" lon="-5.9461383707821369171142578125">
        <ele>1837.800048828125</ele>
        <time>2022-02-23T16:59:14.000Z</time>
      </trkpt>
      <trkpt lat="43.01589430309832096099853515625" lon="-5.9460671246051788330078125">
        <ele>1834.199951171875</ele>
        <time>2022-02-23T16:59:22.000Z</time>
      </trkpt>
      <trkpt lat="43.01594576798379421234130859375" lon="-5.9459288232028484344482421875">
        <ele>1826.5999755859375</ele>
        <time>2022-02-23T16:59:47.000Z</time>
      </trkpt>
      <trkpt lat="43.01595096476376056671142578125" lon="-5.94591625034809112548828125">
        <ele>1826</ele>
        <time>2022-02-23T16:59:49.000Z</time>
      </trkpt>
      <trkpt lat="43.0159510485827922821044921875" lon="-5.94590359367430210113525390625">
        <ele>1825.5999755859375</ele>
        <time>2022-02-23T16:59:51.000Z</time>
      </trkpt>
      <trkpt lat="43.01594912074506282806396484375" lon="-5.9458825550973415374755859375">
        <ele>1825</ele>
        <time>2022-02-23T16:59:54.000Z</time>
      </trkpt>
      <trkpt lat="43.0159513838589191436767578125" lon="-5.94582698307931423187255859375">
        <ele>1823.4000244140625</ele>
        <time>2022-02-23T17:00:07.000Z</time>
      </trkpt>
      <trkpt lat="43.01604484207928180694580078125" lon="-5.9457826428115367889404296875">
        <ele>1818</ele>
        <time>2022-02-23T17:00:36.000Z</time>
      </trkpt>
      <trkpt lat="43.01605272106826305389404296875" lon="-5.94576797448098659515380859375">
        <ele>1817.199951171875</ele>
        <time>2022-02-23T17:00:39.000Z</time>
      </trkpt>
      <trkpt lat="43.016053140163421630859375" lon="-5.94576562754809856414794921875">
        <ele>1817.199951171875</ele>
        <time>2022-02-23T17:00:40.000Z</time>
      </trkpt>
      <trkpt lat="43.016171492636203765869140625" lon="-5.94571399502456188201904296875">
        <ele>1810.5999755859375</ele>
        <time>2022-02-23T17:01:09.000Z</time>
      </trkpt>
      <trkpt lat="43.0162739194929599761962890625" lon="-5.9456850774586200714111328125">
        <ele>1805.4000244140625</ele>
        <time>2022-02-23T17:01:27.000Z</time>
      </trkpt>
      <trkpt lat="43.0163010768592357635498046875" lon="-5.94567577354609966278076171875">
        <ele>1804.4000244140625</ele>
        <time>2022-02-23T17:01:31.000Z</time>
      </trkpt>
      <trkpt lat="43.01637559197843074798583984375" lon="-5.9457333572208881378173828125">
        <ele>1802.5999755859375</ele>
        <time>2022-02-23T17:01:44.000Z</time>
      </trkpt>
      <trkpt lat="43.01655094139277935028076171875" lon="-5.94582295976579189300537109375">
        <ele>1798.5999755859375</ele>
        <time>2022-02-23T17:02:11.000Z</time>
      </trkpt>
      <trkpt lat="43.0166537873446941375732421875" lon="-5.94573696143925189971923828125">
        <ele>1796.5999755859375</ele>
        <time>2022-02-23T17:02:25.000Z</time>
      </trkpt>
      <trkpt lat="43.016748167574405670166015625" lon="-5.94562514685094356536865234375">
        <ele>1794.199951171875</ele>
        <time>2022-02-23T17:02:38.000Z</time>
      </trkpt>
      <trkpt lat="43.01682787947356700897216796875" lon="-5.9454074688255786895751953125">
        <ele>1789.800048828125</ele>
        <time>2022-02-23T17:03:01.000Z</time>
      </trkpt>
      <trkpt lat="43.0168878100812435150146484375" lon="-5.9452678263187408447265625">
        <ele>1787</ele>
        <time>2022-02-23T17:03:28.000Z</time>
      </trkpt>
      <trkpt lat="43.0168918333947658538818359375" lon="-5.94526070170104503631591796875">
        <ele>1787</ele>
        <time>2022-02-23T17:03:29.000Z</time>
      </trkpt>
      <trkpt lat="43.016906082630157470703125" lon="-5.94519205391407012939453125">
        <ele>1786</ele>
        <time>2022-02-23T17:03:39.000Z</time>
      </trkpt>
      <trkpt lat="43.0169530212879180908203125" lon="-5.944968760013580322265625">
        <ele>1782.199951171875</ele>
        <time>2022-02-23T17:04:04.000Z</time>
      </trkpt>
      <trkpt lat="43.01699669100344181060791015625" lon="-5.9449444524943828582763671875">
        <ele>1780.800048828125</ele>
        <time>2022-02-23T17:04:09.000Z</time>
      </trkpt>
      <trkpt lat="43.0170041508972644805908203125" lon="-5.94493699260056018829345703125">
        <ele>1780.4000244140625</ele>
        <time>2022-02-23T17:04:10.000Z</time>
      </trkpt>
      <trkpt lat="43.01702803932130336761474609375" lon="-5.94490430317819118499755859375">
        <ele>1779.4000244140625</ele>
        <time>2022-02-23T17:04:14.000Z</time>
      </trkpt>
      <trkpt lat="43.01704086363315582275390625" lon="-5.94488653354346752166748046875">
        <ele>1778.800048828125</ele>
        <time>2022-02-23T17:04:16.000Z</time>
      </trkpt>
      <trkpt lat="43.01705335266888141632080078125" lon="-5.94487362541258335113525390625">
        <ele>1778.4000244140625</ele>
        <time>2022-02-23T17:04:18.000Z</time>
      </trkpt>
      <trkpt lat="43.0170675180852413177490234375" lon="-5.94485007226467132568359375">
        <ele>1777.5999755859375</ele>
        <time>2022-02-23T17:04:24.000Z</time>
      </trkpt>
      <trkpt lat="43.01710733212530612945556640625" lon="-5.9447731263935565948486328125">
        <ele>1775.5999755859375</ele>
        <time>2022-02-23T17:05:00.000Z</time>
      </trkpt>
      <trkpt lat="43.0171989463269710540771484375" lon="-5.9445838630199432373046875">
        <ele>1770.5999755859375</ele>
        <time>2022-02-23T17:05:28.000Z</time>
      </trkpt>
      <trkpt lat="43.01727094687521457672119140625" lon="-5.9445434622466564178466796875">
        <ele>1767.5999755859375</ele>
        <time>2022-02-23T17:05:39.000Z</time>
      </trkpt>
      <trkpt lat="43.01733800210058689117431640625" lon="-5.9444891475141048431396484375">
        <ele>1764.4000244140625</ele>
        <time>2022-02-23T17:05:48.000Z</time>
      </trkpt>
      <trkpt lat="43.01739365793764591217041015625" lon="-5.944414548575878143310546875">
        <ele>1761.4000244140625</ele>
        <time>2022-02-23T17:05:56.000Z</time>
      </trkpt>
      <trkpt lat="43.0174460448324680328369140625" lon="-5.9443996287882328033447265625">
        <ele>1759.4000244140625</ele>
        <time>2022-02-23T17:06:02.000Z</time>
      </trkpt>
      <trkpt lat="43.0175476334989070892333984375" lon="-5.944360233843326568603515625">
        <ele>1755.4000244140625</ele>
        <time>2022-02-23T17:06:18.000Z</time>
      </trkpt>
      <trkpt lat="43.01758669316768646240234375" lon="-5.94428404234349727630615234375">
        <ele>1752.800048828125</ele>
        <time>2022-02-23T17:06:28.000Z</time>
      </trkpt>
      <trkpt lat="43.01760219968855381011962890625" lon="-5.944196619093418121337890625">
        <ele>1750.5999755859375</ele>
        <time>2022-02-23T17:06:38.000Z</time>
      </trkpt>
      <trkpt lat="43.01775676198303699493408203125" lon="-5.9442715533077716827392578125">
        <ele>1748.5999755859375</ele>
        <time>2022-02-23T17:06:56.000Z</time>
      </trkpt>
      <trkpt lat="43.01779867149889469146728515625" lon="-5.94423207454383373260498046875">
        <ele>1747</ele>
        <time>2022-02-23T17:07:04.000Z</time>
      </trkpt>
      <trkpt lat="43.017978630959987640380859375" lon="-5.94422939233481884002685546875">
        <ele>1742.800048828125</ele>
        <time>2022-02-23T17:07:20.000Z</time>
      </trkpt>
      <trkpt lat="43.0180357955396175384521484375" lon="-5.94417775981128215789794921875">
        <ele>1739.800048828125</ele>
        <time>2022-02-23T17:07:27.000Z</time>
      </trkpt>
      <trkpt lat="43.01804007031023502349853515625" lon="-5.944166444242000579833984375">
        <ele>1739.4000244140625</ele>
        <time>2022-02-23T17:07:28.000Z</time>
      </trkpt>
      <trkpt lat="43.01818214356899261474609375" lon="-5.94400509260594844818115234375">
        <ele>1731.4000244140625</ele>
        <time>2022-02-23T17:07:44.000Z</time>
      </trkpt>
      <trkpt lat="43.0182976461946964263916015625" lon="-5.943916998803615570068359375">
        <ele>1726</ele>
        <time>2022-02-23T17:07:57.000Z</time>
      </trkpt>
      <trkpt lat="43.01845438778400421142578125" lon="-5.94385941512882709503173828125">
        <ele>1719.5999755859375</ele>
        <time>2022-02-23T17:08:39.000Z</time>
      </trkpt>
      <trkpt lat="43.01846620626747608184814453125" lon="-5.94385958276689052581787109375">
        <ele>1719.199951171875</ele>
        <time>2022-02-23T17:08:42.000Z</time>
      </trkpt>
      <trkpt lat="43.0184899270534515380859375" lon="-5.94385639764368534088134765625">
        <ele>1718.5999755859375</ele>
        <time>2022-02-23T17:08:47.000Z</time>
      </trkpt>
      <trkpt lat="43.01863786764442920684814453125" lon="-5.94375112093985080718994140625">
        <ele>1714.4000244140625</ele>
        <time>2022-02-23T17:09:23.000Z</time>
      </trkpt>
      <trkpt lat="43.01869846880435943603515625" lon="-5.9437175095081329345703125">
        <ele>1712.5999755859375</ele>
        <time>2022-02-23T17:09:31.000Z</time>
      </trkpt>
      <trkpt lat="43.01872906275093555450439453125" lon="-5.9436606802046298980712890625">
        <ele>1710.800048828125</ele>
        <time>2022-02-23T17:09:37.000Z</time>
      </trkpt>
      <trkpt lat="43.01885026507079601287841796875" lon="-5.9434786252677440643310546875">
        <ele>1704</ele>
        <time>2022-02-23T17:09:59.000Z</time>
      </trkpt>
      <trkpt lat="43.01893073134124279022216796875" lon="-5.94340360723435878753662109375">
        <ele>1700.4000244140625</ele>
        <time>2022-02-23T17:10:14.000Z</time>
      </trkpt>
      <trkpt lat="43.01908261142671108245849609375" lon="-5.94329983927309513092041015625">
        <ele>1694.800048828125</ele>
        <time>2022-02-23T17:10:33.000Z</time>
      </trkpt>
      <trkpt lat="43.01915050484240055084228515625" lon="-5.94324150122702121734619140625">
        <ele>1692.199951171875</ele>
        <time>2022-02-23T17:10:41.000Z</time>
      </trkpt>
      <trkpt lat="43.0193155445158481597900390625" lon="-5.943160951137542724609375">
        <ele>1687.5999755859375</ele>
        <time>2022-02-23T17:11:04.000Z</time>
      </trkpt>
      <trkpt lat="43.0194447934627532958984375" lon="-5.943066738545894622802734375">
        <ele>1682.4000244140625</ele>
        <time>2022-02-23T17:11:30.000Z</time>
      </trkpt>
      <trkpt lat="43.01951914094388484954833984375" lon="-5.94306464307010173797607421875">
        <ele>1681</ele>
        <time>2022-02-23T17:11:37.000Z</time>
      </trkpt>
      <trkpt lat="43.0195748805999755859375" lon="-5.94304896891117095947265625">
        <ele>1679.5999755859375</ele>
        <time>2022-02-23T17:11:43.000Z</time>
      </trkpt>
      <trkpt lat="43.01960547454655170440673828125" lon="-5.94301485456526279449462890625">
        <ele>1677.5999755859375</ele>
        <time>2022-02-23T17:11:48.000Z</time>
      </trkpt>
      <trkpt lat="43.01963078789412975311279296875" lon="-5.94296825118362903594970703125">
        <ele>1675.4000244140625</ele>
        <time>2022-02-23T17:11:52.000Z</time>
      </trkpt>
      <trkpt lat="43.01970169879496097564697265625" lon="-5.94285174272954463958740234375">
        <ele>1669.5999755859375</ele>
        <time>2022-02-23T17:12:01.000Z</time>
      </trkpt>
      <trkpt lat="43.01970991306006908416748046875" lon="-5.94283439218997955322265625">
        <ele>1668.800048828125</ele>
        <time>2022-02-23T17:12:03.000Z</time>
      </trkpt>
      <trkpt lat="43.01972047425806522369384765625" lon="-5.94281469471752643585205078125">
        <ele>1667.800048828125</ele>
        <time>2022-02-23T17:12:05.000Z</time>
      </trkpt>
      <trkpt lat="43.01972969435155391693115234375" lon="-5.9428023733198642730712890625">
        <ele>1667</ele>
        <time>2022-02-23T17:12:06.000Z</time>
      </trkpt>
      <trkpt lat="43.01975852809846401214599609375" lon="-5.94276809133589267730712890625">
        <ele>1665</ele>
        <time>2022-02-23T17:12:09.000Z</time>
      </trkpt>
      <trkpt lat="43.01976758055388927459716796875" lon="-5.94274143688380718231201171875">
        <ele>1664</ele>
        <time>2022-02-23T17:12:11.000Z</time>
      </trkpt>
      <trkpt lat="43.01977177150547504425048828125" lon="-5.94272769056260585784912109375">
        <ele>1663.4000244140625</ele>
        <time>2022-02-23T17:12:12.000Z</time>
      </trkpt>
      <trkpt lat="43.019789792597293853759765625" lon="-5.94266298227012157440185546875">
        <ele>1661</ele>
        <time>2022-02-23T17:12:18.000Z</time>
      </trkpt>
      <trkpt lat="43.019793145358562469482421875" lon="-5.94265325926244258880615234375">
        <ele>1660.5999755859375</ele>
        <time>2022-02-23T17:12:19.000Z</time>
      </trkpt>
      <trkpt lat="43.01984310150146484375" lon="-5.94257044605910778045654296875">
        <ele>1658.199951171875</ele>
        <time>2022-02-23T17:12:28.000Z</time>
      </trkpt>
      <trkpt lat="43.0198811553418636322021484375" lon="-5.94251747243106365203857421875">
        <ele>1657.199951171875</ele>
        <time>2022-02-23T17:12:34.000Z</time>
      </trkpt>
      <trkpt lat="43.01996673457324504852294921875" lon="-5.9424345754086971282958984375">
        <ele>1654</ele>
        <time>2022-02-23T17:12:48.000Z</time>
      </trkpt>
      <trkpt lat="43.019987605512142181396484375" lon="-5.94243985600769519805908203125">
        <ele>1653</ele>
        <time>2022-02-23T17:12:51.000Z</time>
      </trkpt>
      <trkpt lat="43.02012230269610881805419921875" lon="-5.94250791706144809722900390625">
        <ele>1647.800048828125</ele>
        <time>2022-02-23T17:13:18.000Z</time>
      </trkpt>
      <trkpt lat="43.02013370208442211151123046875" lon="-5.9425668418407440185546875">
        <ele>1647.4000244140625</ele>
        <time>2022-02-23T17:13:24.000Z</time>
      </trkpt>
      <trkpt lat="43.0203079618513584136962890625" lon="-5.94257958233356475830078125">
        <ele>1642.4000244140625</ele>
        <time>2022-02-23T17:13:47.000Z</time>
      </trkpt>
      <trkpt lat="43.020408041775226593017578125" lon="-5.9425264410674571990966796875">
        <ele>1639.4000244140625</ele>
        <time>2022-02-23T17:13:57.000Z</time>
      </trkpt>
      <trkpt lat="43.02057794295251369476318359375" lon="-5.94244957901537418365478515625">
        <ele>1632</ele>
        <time>2022-02-23T17:14:16.000Z</time>
      </trkpt>
      <trkpt lat="43.02071222104132175445556640625" lon="-5.9422857128083705902099609375">
        <ele>1624.800048828125</ele>
        <time>2022-02-23T17:14:34.000Z</time>
      </trkpt>
      <trkpt lat="43.0207404680550098419189453125" lon="-5.94214917160570621490478515625">
        <ele>1622.199951171875</ele>
        <time>2022-02-23T17:14:48.000Z</time>
      </trkpt>
      <trkpt lat="43.02083023823797702789306640625" lon="-5.9419822879135608673095703125">
        <ele>1616.4000244140625</ele>
        <time>2022-02-23T17:15:03.000Z</time>
      </trkpt>
      <trkpt lat="43.020995445549488067626953125" lon="-5.9419660270214080810546875">
        <ele>1609.199951171875</ele>
        <time>2022-02-23T17:15:33.000Z</time>
      </trkpt>
      <trkpt lat="43.02105437032878398895263671875" lon="-5.941844992339611053466796875">
        <ele>1605.4000244140625</ele>
        <time>2022-02-23T17:15:49.000Z</time>
      </trkpt>
      <trkpt lat="43.02109099924564361572265625" lon="-5.9417579881846904754638671875">
        <ele>1602.800048828125</ele>
        <time>2022-02-23T17:16:00.000Z</time>
      </trkpt>
      <trkpt lat="43.0211008898913860321044921875" lon="-5.9417398832738399505615234375">
        <ele>1602.4000244140625</ele>
        <time>2022-02-23T17:16:03.000Z</time>
      </trkpt>
      <trkpt lat="43.0211039073765277862548828125" lon="-5.94173762015998363494873046875">
        <ele>1602.199951171875</ele>
        <time>2022-02-23T17:16:04.000Z</time>
      </trkpt>
      <trkpt lat="43.021112792193889617919921875" lon="-5.94173577614128589630126953125">
        <ele>1601.800048828125</ele>
        <time>2022-02-23T17:16:06.000Z</time>
      </trkpt>
      <trkpt lat="43.021133579313755035400390625" lon="-5.94170677475631237030029296875">
        <ele>1600.5999755859375</ele>
        <time>2022-02-23T17:16:13.000Z</time>
      </trkpt>
      <trkpt lat="43.0211364291608333587646484375" lon="-5.94170023687183856964111328125">
        <ele>1600.5999755859375</ele>
        <time>2022-02-23T17:16:14.000Z</time>
      </trkpt>
      <trkpt lat="43.02117490209639072418212890625" lon="-5.941708199679851531982421875">
        <ele>1599</ele>
        <time>2022-02-23T17:16:23.000Z</time>
      </trkpt>
      <trkpt lat="43.02122033201158046722412109375" lon="-5.9416604228317737579345703125">
        <ele>1596.5999755859375</ele>
        <time>2022-02-23T17:16:33.000Z</time>
      </trkpt>
      <trkpt lat="43.021281771361827850341796875" lon="-5.9416838921606540679931640625">
        <ele>1594.4000244140625</ele>
        <time>2022-02-23T17:16:43.000Z</time>
      </trkpt>
      <trkpt lat="43.02136081270873546600341796875" lon="-5.94153620302677154541015625">
        <ele>1590.4000244140625</ele>
        <time>2022-02-23T17:17:00.000Z</time>
      </trkpt>
      <trkpt lat="43.02137506194412708282470703125" lon="-5.9415199421346187591552734375">
        <ele>1589.800048828125</ele>
        <time>2022-02-23T17:17:03.000Z</time>
      </trkpt>
      <trkpt lat="43.0214416980743408203125" lon="-5.941544584929943084716796875">
        <ele>1587.5999755859375</ele>
        <time>2022-02-23T17:17:11.000Z</time>
      </trkpt>
      <trkpt lat="43.02158092148602008819580078125" lon="-5.94143285416066646575927734375">
        <ele>1583.5999755859375</ele>
        <time>2022-02-23T17:17:26.000Z</time>
      </trkpt>
      <trkpt lat="43.0216577835381031036376953125" lon="-5.94140418805181980133056640625">
        <ele>1581.5999755859375</ele>
        <time>2022-02-23T17:17:34.000Z</time>
      </trkpt>
      <trkpt lat="43.02174788899719715118408203125" lon="-5.94144769012928009033203125">
        <ele>1578</ele>
        <time>2022-02-23T17:17:45.000Z</time>
      </trkpt>
      <trkpt lat="43.02176498807966709136962890625" lon="-5.9414515458047389984130859375">
        <ele>1577.4000244140625</ele>
        <time>2022-02-23T17:17:47.000Z</time>
      </trkpt>
      <trkpt lat="43.0217744596302509307861328125" lon="-5.94145313836634159088134765625">
        <ele>1577</ele>
        <time>2022-02-23T17:17:48.000Z</time>
      </trkpt>
      <trkpt lat="43.0218126811087131500244140625" lon="-5.94144090078771114349365234375">
        <ele>1576</ele>
        <time>2022-02-23T17:17:52.000Z</time>
      </trkpt>
      <trkpt lat="43.02183204330503940582275390625" lon="-5.9414096362888813018798828125">
        <ele>1575.5999755859375</ele>
        <time>2022-02-23T17:17:55.000Z</time>
      </trkpt>
      <trkpt lat="43.0219152756035327911376953125" lon="-5.94131701625883579254150390625">
        <ele>1573.5999755859375</ele>
        <time>2022-02-23T17:18:09.000Z</time>
      </trkpt>
      <trkpt lat="43.022029437124729156494140625" lon="-5.9412510506808757781982421875">
        <ele>1570.199951171875</ele>
        <time>2022-02-23T17:18:24.000Z</time>
      </trkpt>
      <trkpt lat="43.02208333276212215423583984375" lon="-5.9411447681486606597900390625">
        <ele>1568.5999755859375</ele>
        <time>2022-02-23T17:18:38.000Z</time>
      </trkpt>
      <trkpt lat="43.02223755978047847747802734375" lon="-5.94109422527253627777099609375">
        <ele>1562.800048828125</ele>
        <time>2022-02-23T17:18:57.000Z</time>
      </trkpt>
      <trkpt lat="43.02230645902454853057861328125" lon="-5.94105248339474201202392578125">
        <ele>1560.4000244140625</ele>
        <time>2022-02-23T17:19:05.000Z</time>
      </trkpt>
      <trkpt lat="43.022343255579471588134765625" lon="-5.941041000187397003173828125">
        <ele>1559</ele>
        <time>2022-02-23T17:19:08.000Z</time>
      </trkpt>
      <trkpt lat="43.02241324447095394134521484375" lon="-5.94101526774466037750244140625">
        <ele>1557.199951171875</ele>
        <time>2022-02-23T17:19:15.000Z</time>
      </trkpt>
      <trkpt lat="43.02256696857511997222900390625" lon="-5.940854251384735107421875">
        <ele>1553.5999755859375</ele>
        <time>2022-02-23T17:19:32.000Z</time>
      </trkpt>
      <trkpt lat="43.02276427857577800750732421875" lon="-5.94085115008056163787841796875">
        <ele>1551</ele>
        <time>2022-02-23T17:19:43.000Z</time>
      </trkpt>
      <trkpt lat="43.02286662161350250244140625" lon="-5.940829776227474212646484375">
        <ele>1549.800048828125</ele>
        <time>2022-02-23T17:19:52.000Z</time>
      </trkpt>
      <trkpt lat="43.02296075038611888885498046875" lon="-5.9407783113420009613037109375">
        <ele>1548.800048828125</ele>
        <time>2022-02-23T17:20:05.000Z</time>
      </trkpt>
      <trkpt lat="43.02297667600214481353759765625" lon="-5.94077604822814464569091796875">
        <ele>1548.800048828125</ele>
        <time>2022-02-23T17:20:07.000Z</time>
      </trkpt>
      <trkpt lat="43.02298673428595066070556640625" lon="-5.94077554531395435333251953125">
        <ele>1548.5999755859375</ele>
        <time>2022-02-23T17:20:08.000Z</time>
      </trkpt>
      <trkpt lat="43.02301104180514812469482421875" lon="-5.94077521003782749176025390625">
        <ele>1548.4000244140625</ele>
        <time>2022-02-23T17:20:10.000Z</time>
      </trkpt>
      <trkpt lat="43.0230236984789371490478515625" lon="-5.94077688641846179962158203125">
        <ele>1548.199951171875</ele>
        <time>2022-02-23T17:20:11.000Z</time>
      </trkpt>
      <trkpt lat="43.0230421386659145355224609375" lon="-5.94078744761645793914794921875">
        <ele>1548</ele>
        <time>2022-02-23T17:20:13.000Z</time>
      </trkpt>
      <trkpt lat="43.0230837129056453704833984375" lon="-5.9408115036785602569580078125">
        <ele>1547.4000244140625</ele>
        <time>2022-02-23T17:20:18.000Z</time>
      </trkpt>
      <trkpt lat="43.02309720776975154876708984375" lon="-5.94081468880176544189453125">
        <ele>1547.199951171875</ele>
        <time>2022-02-23T17:20:20.000Z</time>
      </trkpt>
      <trkpt lat="43.0230791866779327392578125" lon="-5.94077445566654205322265625">
        <ele>1547.5999755859375</ele>
        <time>2022-02-23T17:20:51.000Z</time>
      </trkpt>
      <trkpt lat="43.02308899350464344024658203125" lon="-5.9407682530581951141357421875">
        <ele>1547.5999755859375</ele>
        <time>2022-02-23T17:20:52.000Z</time>
      </trkpt>
      <trkpt lat="43.02315764129161834716796875" lon="-5.94070228748023509979248046875">
        <ele>1547.199951171875</ele>
        <time>2022-02-23T17:20:59.000Z</time>
      </trkpt>
      <trkpt lat="43.023188821971416473388671875" lon="-5.94065048731863498687744140625">
        <ele>1547.5999755859375</ele>
        <time>2022-02-23T17:21:04.000Z</time>
      </trkpt>
      <trkpt lat="43.02322461269795894622802734375" lon="-5.9406012855470180511474609375">
        <ele>1547.800048828125</ele>
        <time>2022-02-23T17:21:11.000Z</time>
      </trkpt>
      <trkpt lat="43.02335319109261035919189453125" lon="-5.94051939435303211212158203125">
        <ele>1547.5999755859375</ele>
        <time>2022-02-23T17:21:23.000Z</time>
      </trkpt>
      <trkpt lat="43.023479841649532318115234375" lon="-5.94043708406388759613037109375">
        <ele>1547.800048828125</ele>
        <time>2022-02-23T17:21:34.000Z</time>
      </trkpt>
      <trkpt lat="43.0236344039440155029296875" lon="-5.9403045661747455596923828125">
        <ele>1548.199951171875</ele>
        <time>2022-02-23T17:21:49.000Z</time>
      </trkpt>
      <trkpt lat="43.02377513609826564788818359375" lon="-5.94014069996774196624755859375">
        <ele>1548.800048828125</ele>
        <time>2022-02-23T17:22:05.000Z</time>
      </trkpt>
      <trkpt lat="43.0238248407840728759765625" lon="-5.940080769360065460205078125">
        <ele>1549</ele>
        <time>2022-02-23T17:22:10.000Z</time>
      </trkpt>
      <trkpt lat="43.023986108601093292236328125" lon="-5.93996250070631504058837890625">
        <ele>1549.4000244140625</ele>
        <time>2022-02-23T17:22:24.000Z</time>
      </trkpt>
      <trkpt lat="43.02408359013497829437255859375" lon="-5.93974909745156764984130859375">
        <ele>1550.4000244140625</ele>
        <time>2022-02-23T17:22:37.000Z</time>
      </trkpt>
      <trkpt lat="43.0241710133850574493408203125" lon="-5.93966133892536163330078125">
        <ele>1550</ele>
        <time>2022-02-23T17:22:52.000Z</time>
      </trkpt>
      <trkpt lat="43.0241896212100982666015625" lon="-5.9396715648472309112548828125">
        <ele>1549.5999755859375</ele>
        <time>2022-02-23T17:22:54.000Z</time>
      </trkpt>
      <trkpt lat="43.02433739416301250457763671875" lon="-5.9395267255604267120361328125">
        <ele>1549</ele>
        <time>2022-02-23T17:23:09.000Z</time>
      </trkpt>
      <trkpt lat="43.024432361125946044921875" lon="-5.93930653296411037445068359375">
        <ele>1549.5999755859375</ele>
        <time>2022-02-23T17:23:23.000Z</time>
      </trkpt>
      <trkpt lat="43.0244489572942256927490234375" lon="-5.93928960151970386505126953125">
        <ele>1549.5999755859375</ele>
        <time>2022-02-23T17:23:25.000Z</time>
      </trkpt>
      <trkpt lat="43.02463226951658725738525390625" lon="-5.9393399767577648162841796875">
        <ele>1546.5999755859375</ele>
        <time>2022-02-23T17:23:39.000Z</time>
      </trkpt>
      <trkpt lat="43.024817593395709991455078125" lon="-5.939343832433223724365234375">
        <ele>1544.5999755859375</ele>
        <time>2022-02-23T17:23:57.000Z</time>
      </trkpt>
      <trkpt lat="43.02489210851490497589111328125" lon="-5.93922841362655162811279296875">
        <ele>1544</ele>
        <time>2022-02-23T17:24:06.000Z</time>
      </trkpt>
      <trkpt lat="43.0249471776187419891357421875" lon="-5.939157418906688690185546875">
        <ele>1544.199951171875</ele>
        <time>2022-02-23T17:24:12.000Z</time>
      </trkpt>
      <trkpt lat="43.024968802928924560546875" lon="-5.93911324627697467803955078125">
        <ele>1544.4000244140625</ele>
        <time>2022-02-23T17:24:16.000Z</time>
      </trkpt>
      <trkpt lat="43.0250128917396068572998046875" lon="-5.9390918724238872528076171875">
        <ele>1544.5999755859375</ele>
        <time>2022-02-23T17:24:22.000Z</time>
      </trkpt>
      <trkpt lat="43.02521584397413" lon="-5.938925763140279">
        <ele>1552.4000244140625</ele>
        <time>2022-02-24T07:19:57.000Z</time>
      </trkpt>
      <trkpt lat="43.02588963881135" lon="-5.94012837857008">
        <ele>1575.199951171875</ele>
        <time>2022-02-24T07:21:29.000Z</time>
      </trkpt>
      <trkpt lat="43.02637302316725" lon="-5.941090201959014">
        <ele>1604.199951171875</ele>
        <time>2022-02-24T07:24:42.000Z</time>
      </trkpt>
      <trkpt lat="43.02675884217024" lon="-5.942187225446105">
        <ele>1630</ele>
        <time>2022-02-24T07:26:46.000Z</time>
      </trkpt>
      <trkpt lat="43.02725245244801" lon="-5.942891389131546">
        <ele>1666</ele>
        <time>2022-02-24T07:29:42.000Z</time>
      </trkpt>
      <trkpt lat="43.02734135583248" lon="-5.9431636338704">
        <ele>1672.199951171875</ele>
        <time>2022-02-24T07:31:12.000Z</time>
      </trkpt>
      <trkpt lat="43.0275153927505" lon="-5.943237729370594">
        <ele>1682.4000244140625</ele>
        <time>2022-02-24T07:31:59.000Z</time>
      </trkpt>
      <trkpt lat="43.028087206184864" lon="-5.943414838984609">
        <ele>1709.4000244140625</ele>
        <time>2022-02-24T07:32:47.000Z</time>
      </trkpt>
      <trkpt lat="43.02813598886132" lon="-5.943525731563568">
        <ele>1713.4000244140625</ele>
        <time>2022-02-24T07:33:55.000Z</time>
      </trkpt>
      <trkpt lat="43.02813473157585" lon="-5.943516930565238">
        <ele>1713.199951171875</ele>
        <time>2022-02-24T07:36:52.000Z</time>
      </trkpt>
      <trkpt lat="43.02844525961341" lon="-5.94451278585615">
        <ele>1745</ele>
        <time>2022-02-24T07:37:48.000Z</time>
      </trkpt>
      <trkpt lat="43.02888046950102" lon="-5.945119885727763">
        <ele>1773.800048828125</ele>
        <time>2022-02-24T07:39:52.000Z</time>
      </trkpt>
      <trkpt lat="43.02905456162989" lon="-5.9456004202365875">
        <ele>1793.800048828125</ele>
        <time>2022-02-24T07:40:44.000Z</time>
      </trkpt>
      <trkpt lat="43.02932144142687" lon="-5.945424400269985">
        <ele>1803</ele>
        <time>2022-02-24T07:41:55.000Z</time>
      </trkpt>
      <trkpt lat="43.02960265427828" lon="-5.945920692756772">
        <ele>1831.199951171875</ele>
        <time>2022-02-24T07:43:51.000Z</time>
      </trkpt>
      <trkpt lat="43.02974380552769" lon="-5.946057317778468">
        <ele>1841</ele>
        <time>2022-02-24T07:44:52.000Z</time>
      </trkpt>
      <trkpt lat="43.02990465424955" lon="-5.946331154555082">
        <ele>1854.5999755859375</ele>
        <time>2022-02-24T07:46:01.000Z</time>
      </trkpt>
      <trkpt lat="43.030036333948374" lon="-5.946461912244558">
        <ele>1866</ele>
        <time>2022-02-24T07:48:52.000Z</time>
      </trkpt>
      <trkpt lat="43.030360378324986" lon="-5.946659976616502">
        <ele>1894.5999755859375</ele>
        <time>2022-02-24T07:49:00.000Z</time>
      </trkpt>
      <trkpt lat="43.030472695827484" lon="-5.947060463950038">
        <ele>1911</ele>
        <time>2022-02-24T07:50:58.000Z</time>
      </trkpt>
      <trkpt lat="43.030602782964706" lon="-5.947048645466566">
        <ele>1916.199951171875</ele>
        <time>2022-02-24T07:52:42.000Z</time>
      </trkpt>
      <trkpt lat="43.03064603358507" lon="-5.947422981262207">
        <ele>1935.4000244140625</ele>
        <time>2022-02-24T07:52:56.000Z</time>
      </trkpt>
      <trkpt lat="43.030720464885235" lon="-5.947790779173374">
        <ele>1975</ele>
        <time>2022-02-24T07:53:54.000Z</time>
      </trkpt>
      <trkpt lat="43.030783496797085" lon="-5.948193026706576">
        <ele>1996.5999755859375</ele>
        <time>2022-02-24T07:54:59.000Z</time>
      </trkpt>
      <trkpt lat="43.03067964501679" lon="-5.948404753580689">
        <ele>2002.5999755859375</ele>
        <time>2022-02-24T07:55:43.000Z</time>
      </trkpt>
      <trkpt lat="43.030828004702926" lon="-5.9486141335219145">
        <ele>2036.5999755859375</ele>
        <time>2022-02-24T07:55:50.000Z</time>
      </trkpt>
      <trkpt lat="43.03074158728123" lon="-5.94866132363677">
        <ele>2029.800048828125</ele>
        <time>2022-02-24T07:56:59.000Z</time>
      </trkpt>
      <trkpt lat="43.03073647432029" lon="-5.94872385263443">
        <ele>2033.800048828125</ele>
        <time>2022-02-24T07:57:48.000Z</time>
      </trkpt>
      <trkpt lat="43.030816689133644" lon="-5.949189718812704">
        <ele>2075.60009765625</ele>
        <time>2022-02-24T07:58:59.000Z</time>
      </trkpt>
      <trkpt lat="43.03076363168657" lon="-5.949397422373295">
        <ele>2072.800048828125</ele>
        <time>2022-02-24T08:00:54.000Z</time>
      </trkpt>
      <trkpt lat="43.030974017456174" lon="-5.950153050944209">
        <ele>2078.60009765625</ele>
        <time>2022-02-24T08:01:55.000Z</time>
      </trkpt>
      <trkpt lat="43.031071750447154" lon="-5.950252544134855">
        <ele>2079.199951171875</ele>
        <time>2022-02-24T08:03:48.000Z</time>
      </trkpt>
      <trkpt lat="43.030989272519946" lon="-5.95042621716857">
        <ele>2075.800048828125</ele>
        <time>2022-02-24T08:04:02.000Z</time>
      </trkpt>
      <trkpt lat="43.031111899763346" lon="-5.950826117768884">
        <ele>2066.39990234375</ele>
        <time>2022-02-24T08:05:01.000Z</time>
      </trkpt>
      <trkpt lat="43.03062147460878" lon="-5.951464734971523">
        <ele>2062.39990234375</ele>
        <time>2022-02-24T08:34:52.000Z</time>
      </trkpt>
      <trkpt lat="43.03044872358441" lon="-5.951722897589207">
        <ele>2061.800048828125</ele>
        <time>2022-02-24T08:35:57.000Z</time>
      </trkpt>
      <trkpt lat="43.030298771336675" lon="-5.952072171494365">
        <ele>2037.5999755859375</ele>
        <time>2022-02-24T08:36:51.000Z</time>
      </trkpt>
      <trkpt lat="43.03005435504019" lon="-5.952502833679318">
        <ele>2046.4000244140625</ele>
        <time>2022-02-24T08:38:46.000Z</time>
      </trkpt>
      <trkpt lat="43.03009886294603" lon="-5.952552622184157">
        <ele>2026.4000244140625</ele>
        <time>2022-02-24T08:39:03.000Z</time>
      </trkpt>
      <trkpt lat="43.02999216131866" lon="-5.95282687805593">
        <ele>2052.60009765625</ele>
        <time>2022-02-24T08:39:51.000Z</time>
      </trkpt>
      <trkpt lat="43.02992636337876" lon="-5.952925281599164">
        <ele>2072.60009765625</ele>
        <time>2022-02-24T08:41:59.000Z</time>
      </trkpt>
      <trkpt lat="43.02994673140347" lon="-5.953346053138375">
        <ele>2070.199951171875</ele>
        <time>2022-02-24T08:43:52.000Z</time>
      </trkpt>
      <trkpt lat="43.02997740916908" lon="-5.9533406887203455">
        <ele>2067</ele>
        <time>2022-02-24T08:44:56.000Z</time>
      </trkpt>
      <trkpt lat="43.029882526025176" lon="-5.953557780012488">
        <ele>2086.199951171875</ele>
        <time>2022-02-24T08:47:56.000Z</time>
      </trkpt>
      <trkpt lat="43.0296999681741" lon="-5.954081146046519">
        <ele>2134.39990234375</ele>
        <time>2022-02-24T08:52:39.000Z</time>
      </trkpt>
      <trkpt lat="43.029745146632195" lon="-5.954814059659839">
        <ele>2111.800048828125</ele>
        <time>2022-02-24T08:54:48.000Z</time>
      </trkpt>
      <trkpt lat="43.02980795537297" lon="-5.955641270011237">
        <ele>2112</ele>
        <time>2022-02-24T09:00:48.000Z</time>
      </trkpt>
      <trkpt lat="43.02976874152927" lon="-5.956478134415531">
        <ele>2142.60009765625</ele>
        <time>2022-02-24T09:01:45.000Z</time>
      </trkpt>
      <trkpt lat="43.029556134715676" lon="-5.957047250121832">
        <ele>2149.60009765625</ele>
        <time>2022-02-24T09:01:55.000Z</time>
      </trkpt>
      <trkpt lat="43.029563426971436" lon="-5.957206003367901">
        <ele>2100.800048828125</ele>
        <time>2022-02-24T09:02:48.000Z</time>
      </trkpt>
      <trkpt lat="43.02981823682785" lon="-5.957914860919118">
        <ele>2128.60009765625</ele>
        <time>2022-02-24T09:04:45.000Z</time>
      </trkpt>
      <trkpt lat="43.02976191043854" lon="-5.9582077246159315">
        <ele>2123.60009765625</ele>
        <time>2022-02-24T09:04:59.000Z</time>
      </trkpt>
      <trkpt lat="43.0298207513988" lon="-5.958358431234956">
        <ele>2152.800048828125</ele>
        <time>2022-02-24T09:05:56.000Z</time>
      </trkpt>
      <trkpt lat="43.03018502891064" lon="-5.958827398717403">
        <ele>2170.800048828125</ele>
        <time>2022-02-24T09:06:52.000Z</time>
      </trkpt>
      <trkpt lat="43.03020430728793" lon="-5.959077682346106">
        <ele>2244.800048828125</ele>
        <time>2022-02-24T09:07:44.000Z</time>
      </trkpt>
      <trkpt lat="43.030360378324986" lon="-5.9598728734999895">
        <ele>2275.60009765625</ele>
        <time>2022-02-24T09:10:45.000Z</time>
      </trkpt>
      <trkpt lat="43.03062692284584" lon="-5.9603900369256735">
        <ele>2273.60009765625</ele>
        <time>2022-02-24T09:11:45.000Z</time>
      </trkpt>
      <trkpt lat="43.03109496831894" lon="-5.960513167083263">
        <ele>2296.800048828125</ele>
        <time>2022-02-24T09:12:50.000Z</time>
      </trkpt>
      <trkpt lat="43.03138040985954" lon="-5.960657018548585">
        <ele>2294</ele>
        <time>2022-02-24T09:12:59.000Z</time>
      </trkpt>
      <trkpt lat="43.03168234788104" lon="-5.960876954122037">
        <ele>2319</ele>
        <time>2022-02-24T09:15:49.000Z</time>
      </trkpt>
      <trkpt lat="43.031870568233764" lon="-5.960978897316004">
        <ele>2325.60009765625</ele>
        <time>2022-02-24T09:24:57.000Z</time>
      </trkpt>
      <trkpt lat="43.0319725206838" lon="-5.9611451767261645">
        <ele>2345.800048828125</ele>
        <time>2022-02-24T09:26:57.000Z</time>
      </trkpt>
      <trkpt lat="43.03249533288181" lon="-5.961286313831806">
        <ele>2353.60009765625</ele>
        <time>2022-02-24T09:32:59.000Z</time>
      </trkpt>
      <trkpt lat="43.033023392781615" lon="-5.9618051536381245">
        <ele>2354.39990234375</ele>
        <time>2022-02-24T10:10:01.000Z</time>
      </trkpt>
      <trkpt lat="43.0330312717706" lon="-5.961561994627118">
        <ele>2359.39990234375</ele>
        <time>2022-02-24T10:13:50.000Z</time>
      </trkpt>
      <trkpt lat="43.03289456292987" lon="-5.961288996040821">
        <ele>2359.39990234375</ele>
        <time>2022-02-24T10:21:53.000Z</time>
      </trkpt>
      <trkpt lat="43.03266607224941" lon="-5.961143067106605">
        <ele>2351.39990234375</ele>
        <time>2022-02-24T10:24:43.000Z</time>
      </trkpt>
      <trkpt lat="43.03260890766978" lon="-5.961008286103606">
        <ele>2304.800048828125</ele>
        <time>2022-02-24T10:26:57.000Z</time>
      </trkpt>
      <trkpt lat="43.03233968093991" lon="-5.960561027750373">
        <ele>2294</ele>
        <time>2022-02-24T10:27:51.000Z</time>
      </trkpt>
      <trkpt lat="43.03222602233291" lon="-5.960303200408816">
        <ele>2292.199951171875</ele>
        <time>2022-02-24T10:28:51.000Z</time>
      </trkpt>
      <trkpt lat="43.03209407915289" lon="-5.9603619703185755">
        <ele>2282.39990234375</ele>
        <time>2022-02-24T10:28:57.000Z</time>
      </trkpt>
      <trkpt lat="43.032052014023066" lon="-5.960283502936363">
        <ele>2232</ele>
        <time>2022-02-24T10:29:51.000Z</time>
      </trkpt>
      <trkpt lat="43.03134776651859" lon="-5.95994520932436">
        <ele>2206.39990234375</ele>
        <time>2022-02-24T10:30:51.000Z</time>
      </trkpt>
      <trkpt lat="43.03092553938629" lon="-5.95978257735373">
        <ele>2171.800048828125</ele>
        <time>2022-02-24T10:31:56.000Z</time>
      </trkpt>
      <trkpt lat="43.03072947348742" lon="-5.959171020078409">
        <ele>2153.199951171875</ele>
        <time>2022-02-24T10:32:47.000Z</time>
      </trkpt>
      <trkpt lat="43.03054124963522" lon="-5.958688259124757">
        <ele>2153.60009765625</ele>
        <time>2022-02-24T10:33:59.000Z</time>
      </trkpt>
      <trkpt lat="43.030447137492686" lon="-5.958076740351618">
        <ele>2133.60009765625</ele>
        <time>2022-02-24T10:34:58.000Z</time>
      </trkpt>
      <trkpt lat="43.03042360943449" lon="-5.957711949710943">
        <ele>2124.199951171875</ele>
        <time>2022-02-24T10:35:58.000Z</time>
      </trkpt>
      <trkpt lat="43.03034518250874" lon="-5.957272090088278">
        <ele>2092.800048828125</ele>
        <time>2022-02-24T10:38:02.000Z</time>
      </trkpt>
      <trkpt lat="43.030196171073726" lon="-5.956059736197639">
        <ele>2048.800048828125</ele>
        <time>2022-02-24T10:44:58.000Z</time>
      </trkpt>
      <trkpt lat="43.03008897230029" lon="-5.954657820984721">
        <ele>2089</ele>
        <time>2022-02-24T10:45:54.000Z</time>
      </trkpt>
      <trkpt lat="43.030052511021495" lon="-5.954130096361041">
        <ele>2038.4000244140625</ele>
        <time>2022-02-24T10:46:42.000Z</time>
      </trkpt>
      <trkpt lat="43.03020799532533" lon="-5.953704882413149">
        <ele>2027.800048828125</ele>
        <time>2022-02-24T10:48:49.000Z</time>
      </trkpt>
      <trkpt lat="43.030556263402104" lon="-5.952587407082319">
        <ele>2035</ele>
        <time>2022-02-24T10:49:54.000Z</time>
      </trkpt>
      <trkpt lat="43.030773187056184" lon="-5.95202699303627">
        <ele>2045.199951171875</ele>
        <time>2022-02-24T10:51:02.000Z</time>
      </trkpt>
      <trkpt lat="43.03107454905052" lon="-5.951017162557834">
        <ele>2065.800048828125</ele>
        <time>2022-02-24T10:52:48.000Z</time>
      </trkpt>
      <trkpt lat="43.03058830565238" lon="-5.950534364018166">
        <ele>2010.4000244140625</ele>
        <time>2022-02-24T10:56:01.000Z</time>
      </trkpt>
      <trkpt lat="43.03002543747425" lon="-5.949746277183294">
        <ele>1954.800048828125</ele>
        <time>2022-02-24T10:58:53.000Z</time>
      </trkpt>
      <trkpt lat="43.02988428622484" lon="-5.948692923411727">
        <ele>1811</ele>
        <time>2022-02-24T10:59:45.000Z</time>
      </trkpt>
      <trkpt lat="43.02897744812071" lon="-5.94626946374774">
        <ele>1786.199951171875</ele>
        <time>2022-02-24T11:00:47.000Z</time>
      </trkpt>
      <trkpt lat="43.02878617309034" lon="-5.945686837658286">
        <ele>1728.4000244140625</ele>
        <time>2022-02-24T11:01:47.000Z</time>
      </trkpt>
      <trkpt lat="43.02782309241593" lon="-5.944509683176875">
        <ele>1631</ele>
        <time>2022-02-24T11:02:46.000Z</time>
      </trkpt>
      <trkpt lat="43.02720802330385" lon="-5.943560591899266">
        <ele>1593.5999755859375</ele>
        <time>2022-02-24T11:03:48.000Z</time>
      </trkpt>
      <trkpt lat="43.026747945696115" lon="-5.942265931516886">
        <ele>1592</ele>
        <time>2022-02-24T11:23:00.000Z</time>
      </trkpt>
      <trkpt lat="43.026118045672774" lon="-5.940970592200756">
        <ele>1559.4000244140625</ele>
        <time>2022-02-24T11:24:53.000Z</time>
      </trkpt>
      <trkpt lat="43.026176216080785" lon="-5.940735898911953">
        <ele>1546</ele>
        <time>2022-02-24T11:25:52.000Z</time>
      </trkpt>
      <trkpt lat="43.02561613731086" lon="-5.939097069203854">
        <ele>1540</ele>
        <time>2022-02-24T11:26:01.000Z</time>
      </trkpt>
      <trkpt lat="43.02543140016496" lon="-5.938527183607221"/>
      <trkpt lat="43.025192096829414" lon="-5.938191907480359"/>
      <trkpt lat="43.024924" lon="-5.939193">
        <ele>1535.219</ele>
        <time>2022-02-24T13:38:49Z</time>
      </trkpt>
      <trkpt lat="43.024734" lon="-5.939504">
        <ele>1535.209</ele>
        <time>2022-02-24T13:39:16Z</time>
      </trkpt>
      <trkpt lat="43.024446" lon="-5.939451">
        <ele>1534.219</ele>
        <time>2022-02-24T13:39:44Z</time>
      </trkpt>
      <trkpt lat="43.023766" lon="-5.940128">
        <ele>1530.508</ele>
        <time>2022-02-24T13:40:59Z</time>
      </trkpt>
      <trkpt lat="43.022725" lon="-5.940665">
        <ele>1533.430</ele>
        <time>2022-02-24T13:42:47Z</time>
      </trkpt>
      <trkpt lat="43.022255" lon="-5.940698">
        <ele>1541.647</ele>
        <time>2022-02-24T13:43:51Z</time>
      </trkpt>
      <trkpt lat="43.022023" lon="-5.940192">
        <ele>1558.852</ele>
        <time>2022-02-24T13:44:59Z</time>
      </trkpt>
      <trkpt lat="43.022016" lon="-5.940445">
        <ele>1560.633</ele>
        <time>2022-02-24T13:45:39Z</time>
      </trkpt>
      <trkpt lat="43.021615" lon="-5.940742">
        <ele>1570.987</ele>
        <time>2022-02-24T13:47:04Z</time>
      </trkpt>
      <trkpt lat="43.021212" lon="-5.940538">
        <ele>1588.631</ele>
        <time>2022-02-24T13:48:41Z</time>
      </trkpt>
      <trkpt lat="43.020721" lon="-5.940747">
        <ele>1604.763</ele>
        <time>2022-02-24T13:50:25Z</time>
      </trkpt>
      <trkpt lat="43.020333" lon="-5.941199">
        <ele>1624.170</ele>
        <time>2022-02-24T13:52:05Z</time>
      </trkpt>
      <trkpt lat="43.019294" lon="-5.941276">
        <ele>1655.468</ele>
        <time>2022-02-24T13:55:51Z</time>
      </trkpt>
      <trkpt lat="43.018776" lon="-5.942103">
        <ele>1667.442</ele>
        <time>2022-02-24T13:57:59Z</time>
      </trkpt>
      <trkpt lat="43.018493" lon="-5.942278">
        <ele>1679.926</ele>
        <time>2022-02-24T13:59:19Z</time>
      </trkpt>
      <trkpt lat="43.018382" lon="-5.942621">
        <ele>1683.608</ele>
        <time>2022-02-24T14:00:13Z</time>
      </trkpt>
      <trkpt lat="43.018108" lon="-5.942691">
        <ele>1694.845</ele>
        <time>2022-02-24T14:01:42Z</time>
      </trkpt>
      <trkpt lat="43.017949" lon="-5.943094">
        <ele>1703.612</ele>
        <time>2022-02-24T14:02:54Z</time>
      </trkpt>
      <trkpt lat="43.018022" lon="-5.943325">
        <ele>1711.467</ele>
        <time>2022-02-24T14:03:39Z</time>
      </trkpt>
      <trkpt lat="43.017507" lon="-5.943347">
        <ele>1730.418</ele>
        <time>2022-02-24T14:06:25Z</time>
      </trkpt>
      <trkpt lat="43.017086" lon="-5.943864">
        <ele>1738.352</ele>
        <time>2022-02-24T14:08:00Z</time>
      </trkpt>
      <trkpt lat="43.017211" lon="-5.943626">
        <ele>1753.366</ele>
        <time>2022-02-24T14:10:34Z</time>
      </trkpt>
      <trkpt lat="43.017173" lon="-5.943838">
        <ele>1755.528</ele>
        <time>2022-02-24T14:11:38Z</time>
      </trkpt>
      <trkpt lat="43.017345" lon="-5.944063">
        <ele>1763.895</ele>
        <time>2022-02-24T14:12:24Z</time>
      </trkpt>
      <trkpt lat="43.016884" lon="-5.943876">
        <ele>1765.198</ele>
        <time>2022-02-24T14:13:54Z</time>
      </trkpt>
      <trkpt lat="43.016558" lon="-5.944208">
        <ele>1774.215</ele>
        <time>2022-02-24T14:15:00Z</time>
      </trkpt>
      <trkpt lat="43.016376" lon="-5.944223">
        <ele>1776.926</ele>
        <time>2022-02-24T14:15:35Z</time>
      </trkpt>
      <trkpt lat="43.016102" lon="-5.944791">
        <ele>1794.808</ele>
        <time>2022-02-24T14:17:34Z</time>
      </trkpt>
      <trkpt lat="43.015965" lon="-5.944771">
        <ele>1797.598</ele>
        <time>2022-02-24T14:18:09Z</time>
      </trkpt>
      <trkpt lat="43.015904" lon="-5.944451">
        <ele>1800.345</ele>
        <time>2022-02-24T14:19:03Z</time>
      </trkpt>
      <trkpt lat="43.015817" lon="-5.944580">
        <ele>1806.880</ele>
        <time>2022-02-24T14:19:31Z</time>
      </trkpt>
      <trkpt lat="43.015801" lon="-5.944382">
        <ele>1811.931</ele>
        <time>2022-02-24T14:19:50Z</time>
      </trkpt>
      <trkpt lat="43.015609" lon="-5.944755">
        <ele>1823.195</ele>
        <time>2022-02-24T14:20:47Z</time>
      </trkpt>
      <trkpt lat="43.015543" lon="-5.944521">
        <ele>1827.329</ele>
        <time>2022-02-24T14:21:22Z</time>
      </trkpt>
      <trkpt lat="43.015427" lon="-5.944871">
        <ele>1834.071</ele>
        <time>2022-02-24T14:22:22Z</time>
      </trkpt>
      <trkpt lat="43.015288" lon="-5.944743">
        <ele>1838.038</ele>
        <time>2022-02-24T14:22:59Z</time>
      </trkpt>
      <trkpt lat="43.014890" lon="-5.945438">
        <ele>1863.326</ele>
        <time>2022-02-24T14:25:22Z</time>
      </trkpt>
      <trkpt lat="43.014615" lon="-5.945436">
        <ele>1872.347</ele>
        <time>2022-02-24T14:26:20Z</time>
      </trkpt>
      <trkpt lat="43.014865" lon="-5.946849">
        <ele>1892.511</ele>
        <time>2022-02-24T14:28:57Z</time>
      </trkpt>
      <trkpt lat="43.014638" lon="-5.948486">
        <ele>1908.708</ele>
        <time>2022-02-24T14:31:42Z</time>
      </trkpt>
      <trkpt lat="43.014284" lon="-5.947824">
        <ele>1906.731</ele>
        <time>2022-02-24T14:34:49Z</time>
      </trkpt>
      <trkpt lat="43.013998" lon="-5.947600">
        <ele>1900.278</ele>
        <time>2022-02-24T14:35:20Z</time>
      </trkpt>
      <trkpt lat="43.013468" lon="-5.948171">
        <ele>1895.793</ele>
        <time>2022-02-24T14:36:43Z</time>
      </trkpt>
      <trkpt lat="43.012573" lon="-5.948382">
        <ele>1903.264</ele>
        <time>2022-02-24T14:38:36Z</time>
      </trkpt>
      <trkpt lat="43.012363" lon="-5.949027">
        <ele>1907.658</ele>
        <time>2022-02-24T14:39:44Z</time>
      </trkpt>
      <trkpt lat="43.012531" lon="-5.951325">
        <ele>1927.952</ele>
        <time>2022-02-24T14:43:46Z</time>
      </trkpt>
      <trkpt lat="43.011626" lon="-5.952043">
        <ele>1924.934</ele>
        <time>2022-02-24T14:46:36Z</time>
      </trkpt>
      <trkpt lat="43.011686" lon="-5.952673">
        <ele>1928.071</ele>
        <time>2022-02-24T14:49:13Z</time>
      </trkpt>
      <trkpt lat="43.011388" lon="-5.953316">
        <ele>1933.138</ele>
        <time>2022-02-24T14:50:35Z</time>
      </trkpt>
      <trkpt lat="43.011255" lon="-5.953383">
        <ele>1936.270</ele>
        <time>2022-02-24T14:50:56Z</time>
      </trkpt>
      <trkpt lat="43.011066" lon="-5.953209">
        <ele>1937.717</ele>
        <time>2022-02-24T14:51:33Z</time>
      </trkpt>
      <trkpt lat="43.010800" lon="-5.953550">
        <ele>1938.308</ele>
        <time>2022-02-24T14:52:27Z</time>
      </trkpt>
      <trkpt lat="43.010211" lon="-5.953724">
        <ele>1937.312</ele>
        <time>2022-02-24T14:53:37Z</time>
      </trkpt>
      <trkpt lat="43.010091" lon="-5.955216">
        <ele>1959.169</ele>
        <time>2022-02-24T14:58:07Z</time>
      </trkpt>
      <trkpt lat="43.009355" lon="-5.956960">
        <ele>1959.994</ele>
        <time>2022-02-24T15:02:40Z</time>
      </trkpt>
      <trkpt lat="43.009068" lon="-5.957323">
        <ele>1949.645</ele>
        <time>2022-02-24T15:03:27Z</time>
      </trkpt>
      <trkpt lat="43.009060" lon="-5.959654">
        <ele>1908.449</ele>
        <time>2022-02-24T15:06:45Z</time>
      </trkpt>
      <trkpt lat="43.009653" lon="-5.961677">
        <ele>1876.573</ele>
        <time>2022-02-24T15:09:52Z</time>
      </trkpt>
      <trkpt lat="43.009650" lon="-5.962392">
        <ele>1855.635</ele>
        <time>2022-02-24T15:11:19Z</time>
      </trkpt>
      <trkpt lat="43.010257" lon="-5.964032">
        <ele>1834.472</ele>
        <time>2022-02-24T15:14:20Z</time>
      </trkpt>
      <trkpt lat="43.010192" lon="-5.964651">
        <ele>1819.665</ele>
        <time>2022-02-24T15:16:15Z</time>
      </trkpt>
      <trkpt lat="43.010765" lon="-5.965636">
        <ele>1805.668</ele>
        <time>2022-02-24T15:18:55Z</time>
      </trkpt>
      <trkpt lat="43.010884" lon="-5.966509">
        <ele>1789.014</ele>
        <time>2022-02-24T15:21:11Z</time>
      </trkpt>
      <trkpt lat="43.010770" lon="-5.966651">
        <ele>1777.708</ele>
        <time>2022-02-24T15:21:41Z</time>
      </trkpt>
      <trkpt lat="43.011319" lon="-5.968156">
        <ele>1740.565</ele>
        <time>2022-02-24T15:24:48Z</time>
      </trkpt>
      <trkpt lat="43.010993" lon="-5.968883">
        <ele>1715.372</ele>
        <time>2022-02-24T15:27:05Z</time>
      </trkpt>
      <trkpt lat="43.011102" lon="-5.970133">
        <ele>1675.167</ele>
        <time>2022-02-24T15:29:41Z</time>
      </trkpt>
      <trkpt lat="43.011405" lon="-5.970500">
        <ele>1666.178</ele>
        <time>2022-02-24T15:30:17Z</time>
      </trkpt>
      <trkpt lat="43.011645" lon="-5.970358">
        <ele>1662.252</ele>
        <time>2022-02-24T15:30:56Z</time>
      </trkpt>
      <trkpt lat="43.012322" lon="-5.971124">
        <ele>1638.516</ele>
        <time>2022-02-24T15:33:15Z</time>
      </trkpt>
      <trkpt lat="43.012321" lon="-5.971460">
        <ele>1631.728</ele>
        <time>2022-02-24T15:33:43Z</time>
      </trkpt>
      <trkpt lat="43.012694" lon="-5.972148">
        <ele>1624.145</ele>
        <time>2022-02-24T15:34:47Z</time>
      </trkpt>
      <trkpt lat="43.013176" lon="-5.973582">
        <ele>1596.762</ele>
        <time>2022-02-24T15:37:13Z</time>
      </trkpt>
      <trkpt lat="43.013204" lon="-5.974152">
        <ele>1585.683</ele>
        <time>2022-02-24T15:38:01Z</time>
      </trkpt>
      <trkpt lat="43.013329" lon="-5.974234">
        <ele>1582.611</ele>
        <time>2022-02-24T15:38:23Z</time>
      </trkpt>
      <trkpt lat="43.013476" lon="-5.975648">
        <ele>1554.108</ele>
        <time>2022-02-24T15:40:25Z</time>
      </trkpt>
      <trkpt lat="43.013173" lon="-5.976613">
        <ele>1536.845</ele>
        <time>2022-02-24T15:42:53Z</time>
      </trkpt>
      <trkpt lat="43.013827" lon="-5.978283">
        <ele>1513.122</ele>
        <time>2022-02-24T15:45:15Z</time>
      </trkpt>
      <trkpt lat="43.013610" lon="-5.979668">
        <ele>1490.987</ele>
        <time>2022-02-24T15:47:01Z</time>
      </trkpt>
      <trkpt lat="43.013855" lon="-5.982159">
        <ele>1451.858</ele>
        <time>2022-02-24T15:49:57Z</time>
      </trkpt>
      <trkpt lat="43.012942" lon="-5.982980">
        <ele>1433.432</ele>
        <time>2022-02-24T15:51:40Z</time>
      </trkpt>
      <trkpt lat="43.012834" lon="-5.983909">
        <ele>1420.716</ele>
        <time>2022-02-24T15:52:43Z</time>
      </trkpt>
      <trkpt lat="43.013096" lon="-5.984890">
        <ele>1408.778</ele>
        <time>2022-02-24T15:53:51Z</time>
      </trkpt>
      <trkpt lat="43.013022" lon="-5.985218">
        <ele>1407.075</ele>
        <time>2022-02-24T15:54:12Z</time>
      </trkpt>
      <trkpt lat="43.012719" lon="-5.985461">
        <ele>1403.371</ele>
        <time>2022-02-24T15:54:43Z</time>
      </trkpt>
      <trkpt lat="43.012433" lon="-5.985414">
        <ele>1400.541</ele>
        <time>2022-02-24T15:55:07Z</time>
      </trkpt>
      <trkpt lat="43.011915" lon="-5.985907">
        <ele>1388.315</ele>
        <time>2022-02-24T15:56:06Z</time>
      </trkpt>
      <trkpt lat="43.011279" lon="-5.987112">
        <ele>1364.008</ele>
        <time>2022-02-24T15:57:55Z</time>
      </trkpt>
      <trkpt lat="43.010391" lon="-5.988291">
        <ele>1337.726</ele>
        <time>2022-02-24T15:59:50Z</time>
      </trkpt>
      <trkpt lat="43.009840" lon="-5.988404">
        <ele>1330.353</ele>
        <time>2022-02-24T16:00:41Z</time>
      </trkpt>
      <trkpt lat="43.008407" lon="-5.989601">
        <ele>1298.798</ele>
        <time>2022-02-24T16:03:13Z</time>
      </trkpt>
      <trkpt lat="43.007850" lon="-5.990839">
        <ele>1271.359</ele>
        <time>2022-02-24T16:04:49Z</time>
      </trkpt>
      <trkpt lat="43.007426" lon="-5.991308">
        <ele>1263.433</ele>
        <time>2022-02-24T16:05:43Z</time>
      </trkpt>
      <trkpt lat="43.006815" lon="-5.992488">
        <ele>1247.487</ele>
        <time>2022-02-24T16:07:13Z</time>
      </trkpt>
      <trkpt lat="43.006235" lon="-5.993282">
        <ele>1240.399</ele>
        <time>2022-02-24T16:08:22Z</time>
      </trkpt>
      <trkpt lat="43.005935" lon="-5.993366">
        <ele>1238.356</ele>
        <time>2022-02-24T16:08:46Z</time>
      </trkpt>
      <trkpt lat="43.005895" lon="-5.993604">
        <ele>1238.646</ele>
        <time>2022-02-24T16:09:02Z</time>
      </trkpt>
      <trkpt lat="43.006319" lon="-5.993976">
        <ele>1237.088</ele>
        <time>2022-02-24T16:09:42Z</time>
      </trkpt>
      <trkpt lat="43.006527" lon="-5.994394">
        <ele>1237.216</ele>
        <time>2022-02-24T16:10:16Z</time>
      </trkpt>
    </trkseg>
  </trk>
</gpx>
